Date StartTime U_cm/s V_cm/s W_cm/s Ustd_cm/s Vstd_cm/s Wstd_cm/s Uvar_(cm/s)^2 Vvar_(cm/s)^2 Wvar_(cm/s)^2 KE_(m/s)^2 TurbulentKE_(m/s)^2 HorizWindSpeed_cm/s FrictionSpeec_cm/s DragCoef SpeedOfSound_m/s SonicTemperature_C Pressure_mb 
01/14/2014  00:00:00      -24.239      -27.909        0.160       19.560       16.372       10.489      382.593      268.039      110.023        0.106        0.038       36.966        8.164        0.049      332.029        0.427      877.408
01/14/2014  00:01:00       -7.067      -36.824       13.674       26.659       23.294       16.465      710.707      542.606      271.109        0.156        0.076       37.496       18.192        0.235      332.102        0.545      877.425
01/14/2014  00:02:00       -5.726      -13.518        0.730       21.223       13.163       11.823      450.411      173.275      139.773        0.049        0.038       14.681       11.484        0.612      332.140        0.609      877.447
01/14/2014  00:03:00        6.367      -10.192        7.756       10.206        9.773        9.544      104.157       95.516       91.079        0.025        0.015       12.017        5.699        0.225      332.144        0.617      877.452
01/14/2014  00:04:00       -4.492        2.325        3.470        4.740        4.758        4.942       22.472       22.639       24.421        0.005        0.003        5.058        3.977        0.618      332.066        0.488      877.446
01/14/2014  00:05:00      -25.635       -2.103       -5.543       10.724        6.637        5.026      115.011       44.049       25.264        0.044        0.009       25.721        3.748        0.021      332.097        0.539      877.432
01/14/2014  00:06:00      -52.869      -11.326       -7.568       12.107        7.387        5.317      146.584       54.566       28.273        0.160        0.011       54.068        3.567        0.004      332.059        0.475      877.424
01/14/2014  00:07:00      -82.050       -9.458       -8.327       11.152        9.969        8.010      124.372       99.390       64.165        0.359        0.014       82.593        4.961        0.004      331.983        0.349      877.420
01/14/2014  00:08:00     -102.573      -24.630       -7.971       19.670       20.208       10.469      386.918      408.351      109.600        0.605        0.045      105.489        7.109        0.005      331.953        0.301      877.418
01/14/2014  00:09:00     -123.887      -46.245       -5.035       18.324       16.273       13.230      335.754      264.797      175.034        0.914        0.039      132.237       11.309        0.007      331.938        0.276      877.407
01/14/2014  00:10:00     -133.777      -41.255       -9.937       12.636       10.479        8.660      159.668      109.807       75.004        1.002        0.017      139.993        5.504        0.002      331.934        0.269      877.395
01/14/2014  00:11:00     -102.154      -24.079      -14.425       28.974       17.758       15.263      839.518      315.351      232.955        0.631        0.069      104.953       14.987        0.020      331.810        0.066      877.395
01/14/2014  00:12:00      -95.515      -22.696       -8.279       24.106       20.493       16.360      581.096      419.954      267.659        0.549        0.063       98.174       14.112        0.021      331.750       -0.033      877.405
01/14/2014  00:13:00     -137.548      -53.854      -16.317       15.780       13.849        9.556      249.017      191.804       91.322        1.131        0.027      147.715        6.615        0.002      331.899        0.211      877.416
01/14/2014  00:14:00     -155.329      -76.732       -0.975       26.239       20.608       16.641      688.506      424.705      276.936        1.570        0.070      173.247       13.767        0.006      331.866        0.158      877.424
01/14/2014  00:15:00     -153.553      -70.001       -0.198       40.186       31.878       19.720     1614.935     1016.198      388.881        1.575        0.151      168.757       21.855        0.017      331.788        0.028      877.429
01/14/2014  00:16:00     -170.179      -59.727       -4.308       35.536       31.454       19.122     1262.839      989.356      365.669        1.758        0.131      180.355       14.964        0.007      331.746       -0.039      877.427
01/14/2014  00:17:00     -160.298      -72.857        3.413       55.632       30.441       21.625     3094.969      926.651      467.625        1.775        0.224      176.079       25.622        0.021      331.903        0.217      877.419
01/14/2014  00:18:00     -142.832      -57.497       -3.992       34.414       21.330       17.583     1184.344      454.969      309.156        1.284        0.097      153.970       15.916        0.011      331.855        0.139      877.424
01/14/2014  00:19:00     -156.157      -48.253       -4.711       29.807       22.047       18.342      888.456      486.073      336.435        1.422        0.086      163.443       14.993        0.008      331.802        0.052      877.424
01/14/2014  00:20:00     -162.434      -59.893       -3.750       29.544       23.178       21.526      872.846      537.204      463.367        1.593        0.094      173.124       17.683        0.010      331.845        0.124      877.418
01/14/2014  00:21:00     -147.879      -63.123       -5.085       44.975       26.867       23.112     2022.710      721.824      534.172        1.458        0.164      160.788       23.937        0.022      331.745       -0.041      877.418
01/14/2014  00:22:00     -125.759      -55.555      -15.703       32.238       35.325       18.821     1039.296     1247.869      354.233        1.089        0.132      137.483       14.781        0.012      331.612       -0.261      877.423
01/14/2014  00:23:00     -146.639      -48.675      -11.590       23.150       19.329       14.842      535.908      373.618      220.297        1.257        0.056      154.506        9.840        0.004      331.549       -0.365      877.443
01/14/2014  00:24:00     -142.743      -75.048       -2.089       32.889       22.784       19.761     1081.679      519.121      390.494        1.400        0.100      161.269       18.550        0.013      331.559       -0.347      877.477
01/14/2014  00:25:00     -111.600      -64.827       -4.995       33.123       27.269       20.280     1097.106      743.600      411.281        0.947        0.113      129.062       17.508        0.018      331.605       -0.273      877.500
01/14/2014  00:26:00     -104.426      -52.699       -2.830       45.591       27.266       19.333     2078.528      743.445      373.775        0.844        0.160      116.970       18.784        0.026      331.555       -0.356      877.524
01/14/2014  00:27:00     -132.618     -114.142       -0.228       62.786       43.158       32.488     3942.071     1862.588     1055.500        1.874        0.343      174.974       33.076        0.036      331.672       -0.162      877.531
01/14/2014  00:28:00     -156.190      -89.542       -0.092       59.819       40.131       26.538     3578.327     1610.516      704.282        1.915        0.295      180.036       25.425        0.020      331.840        0.113      877.533
01/14/2014  00:29:00     -136.372      -91.739        1.010       45.988       35.017       26.643     2114.919     1226.179      709.850        1.553        0.203      164.357       24.307        0.022      331.821        0.082      877.536
01/14/2014  00:30:00     -111.533      -47.390       -0.957       46.576       27.541       20.782     2169.326      758.529      431.909        0.902        0.168      121.183       23.447        0.037      331.718       -0.086      877.546
01/14/2014  00:31:00     -122.559      -55.548       -2.594       39.267       30.271       18.558     1541.879      916.323      344.415        1.046        0.140      134.560       16.035        0.014      331.776        0.009      877.564
01/14/2014  00:32:00     -121.514      -36.317       -6.768       23.305       13.292       12.771      543.144      176.674      163.098        0.851        0.044      126.825        9.377        0.005      331.909        0.228      877.562
01/14/2014  00:33:00      -98.987      -33.251       -1.461       24.848       16.632       14.109      617.446      276.629      199.073        0.600        0.055      104.423       10.742        0.011      331.969        0.325      877.563
01/14/2014  00:34:00      -91.360      -28.394        4.403       28.234       24.129       13.994      797.144      582.218      195.840        0.537        0.079       95.671       14.122        0.022      331.954        0.302      877.573
01/14/2014  00:35:00     -102.296      -28.726       -4.692       17.542       16.399       16.071      307.719      268.923      258.291        0.607        0.042      106.253       11.244        0.011      331.955        0.305      877.590
01/14/2014  00:36:00     -112.078      -32.405       -8.415       15.179       17.838       10.177      230.413      318.184      103.573        0.717        0.033      116.668        7.583        0.004      331.889        0.194      877.588
01/14/2014  00:37:00      -88.226      -30.021        4.799       27.551       22.234       14.337      759.073      494.334      205.545        0.508        0.073       93.194       13.787        0.022      331.903        0.217      877.580
01/14/2014  00:38:00      -96.996      -32.853        0.648       24.618       15.099       13.224      606.030      227.983      174.874        0.575        0.050      102.408       13.166        0.017      331.888        0.193      877.572
01/14/2014  00:39:00      -89.501      -29.138        0.474       24.786       20.335       13.702      614.327      413.530      187.755        0.504        0.061       94.124       13.080        0.019      331.753       -0.029      877.556
01/14/2014  00:40:00      -88.924      -24.129        3.356       32.561       24.604       15.794     1060.202      605.341      249.464        0.521        0.096       92.140       14.659        0.025      331.637       -0.220      877.533
01/14/2014  00:41:00     -104.809      -17.389       -5.833       30.671       14.495       16.692      940.717      210.092      278.619        0.638        0.071      106.242       16.380        0.024      331.615       -0.256      877.515
01/14/2014  00:42:00      -96.304      -28.866       -4.192       18.722       15.275       12.357      350.522      233.314      152.684        0.543        0.037      100.537        8.895        0.008      331.708       -0.103      877.496
01/14/2014  00:43:00      -64.902      -49.727      -15.404       25.227       20.450       17.198      636.390      418.191      295.783        0.414        0.068       81.762       10.696        0.017      331.594       -0.289      877.476
01/14/2014  00:44:00      -79.391      -55.739       -7.821       31.376       23.717       23.215      984.440      562.504      538.937        0.578        0.104       97.004       12.849        0.018      331.414       -0.588      877.467
01/14/2014  00:45:00      -88.942      -48.630       -3.063       29.233       37.392       19.430      854.568     1398.194      377.512        0.646        0.132      101.368       13.408        0.017      331.247       -0.861      877.463
01/14/2014  00:46:00     -123.849      -38.220      -18.716       28.213       31.849       17.179      795.972     1014.361      295.112        0.963        0.105      129.612       13.920        0.012      331.169       -0.989      877.463
01/14/2014  00:47:00      -67.696       -7.133        1.352       59.666       34.538       19.179     3560.054     1192.857      367.815        0.488        0.256       68.071       25.712        0.143      331.207       -0.926      877.481
01/14/2014  00:48:00     -102.671      -12.346       -9.120       25.466       25.900       15.923      648.537      670.833      253.545        0.617        0.079      103.411       13.200        0.016      331.282       -0.802      877.491
01/14/2014  00:49:00     -100.470      -20.211      -13.191       29.313       31.533       19.085      859.239      994.318      364.249        0.645        0.111      102.482       15.428        0.023      331.283       -0.800      877.491
01/14/2014  00:50:00     -169.649       28.672      -15.323       31.643       26.801       17.989     1001.260      718.281      323.587        1.594        0.102      172.054       13.953        0.007      331.394       -0.619      877.488
01/14/2014  00:51:00     -118.168      -18.316      -14.484       63.567       39.471       22.539     4040.704     1557.997      508.025        1.031        0.305      119.579       20.351        0.029      331.351       -0.689      877.475
01/14/2014  00:52:00     -121.205       15.110       -9.922       44.672       34.743       25.166     1995.561     1207.103      633.340        0.943        0.192      122.143       16.634        0.019      331.318       -0.745      877.465
01/14/2014  00:53:00     -161.768       21.622      -14.863       38.577       31.955       19.013     1488.156     1021.143      361.505        1.486        0.144      163.207       12.145        0.006      331.422       -0.573      877.468
01/14/2014  00:54:00     -148.918       17.178      -14.780       33.285       28.410       18.597     1107.920      807.147      345.837        1.248        0.113      149.906       15.749        0.011      331.480       -0.479      877.477
01/14/2014  00:55:00      -75.349       11.825       -6.536       38.001       28.290       18.616     1444.091      800.336      346.539        0.422        0.130       76.271       14.106        0.034      331.400       -0.611      877.493
01/14/2014  00:56:00      -33.781      -26.847       -4.361       17.673       18.103       12.504      312.346      327.737      156.353        0.134        0.040       43.150        7.489        0.030      331.317       -0.745      877.516
01/14/2014  00:57:00      -64.275      -20.333      -11.570       26.601       19.385       13.003      707.624      375.766      169.088        0.297        0.063       67.414       12.064        0.032      331.362       -0.672      877.542
01/14/2014  00:58:00      -63.116        3.124      -11.942       27.232       22.795       16.937      741.566      519.604      286.868        0.284        0.077       63.193       12.728        0.041      331.488       -0.464      877.539
01/14/2014  00:59:00      -74.386       25.132       -9.354       27.388       32.145       14.538      750.119     1033.275      211.342        0.412        0.100       78.517       12.521        0.025      331.678       -0.152      877.534
01/14/2014  01:00:00      -47.899      -21.849       -5.108       14.703       24.537       10.115      216.182      602.075      102.320        0.186        0.046       52.647        3.888        0.005      331.474       -0.488      877.519
01/14/2014  01:01:00      -80.409      -33.474       -5.687       16.130       18.043       13.431      260.182      325.553      180.380        0.419        0.038       87.098        7.765        0.008      331.389       -0.630      877.514
01/14/2014  01:02:00      -54.498      -40.476       -9.024       22.161       20.514       11.788      491.097      420.838      138.947        0.287        0.053       67.885        8.302        0.015      331.319       -0.741      877.517
01/14/2014  01:03:00      -39.102      -34.355       -4.120       27.546       30.430       21.792      758.784      925.965      474.896        0.244        0.108       52.050       20.315        0.152      331.325       -0.732      877.516
01/14/2014  01:04:00      -41.705      -37.638       -0.898       35.045       20.427       20.384     1228.133      417.252      415.525        0.261        0.103       56.178       21.319        0.144      331.392       -0.622      877.518
01/14/2014  01:05:00      -40.807      -31.436       -9.352       20.911       16.499        9.479      437.291      272.228       89.853        0.177        0.040       51.511        5.053        0.010      331.589       -0.299      877.527
01/14/2014  01:06:00      -41.965      -37.567      -13.330       22.733       21.676       16.422      516.798      469.840      269.673        0.230        0.063       56.323       13.141        0.054      331.516       -0.420      877.545
01/14/2014  01:07:00      -67.600      -32.806      -19.831       23.141       25.419       17.981      535.522      646.103      323.330        0.377        0.075       75.140       11.596        0.024      331.512       -0.425      877.564
01/14/2014  01:08:00      -88.111      -51.130      -25.024       17.241       20.368       12.957      297.252      414.851      167.871        0.594        0.044      101.872        8.726        0.007      331.457       -0.518      877.585
01/14/2014  01:09:00      -90.558      -41.870      -13.487       25.034       33.810       15.113      626.691     1143.146      228.396        0.607        0.100       99.769        9.618        0.009      331.412       -0.589      877.600
01/14/2014  01:10:00      -71.228      -50.874      -11.765       19.254       25.690       17.501      370.699      659.995      306.276        0.457        0.067       87.531       13.762        0.025      331.382       -0.638      877.604
01/14/2014  01:11:00      -73.750      -21.040       -5.841       21.048       35.307       14.778      443.012     1246.578      218.387        0.391        0.095       76.693       12.605        0.027      331.399       -0.612      877.613
01/14/2014  01:12:00      -19.293       -5.633        3.283       31.760       18.277       11.187     1008.675      334.065      125.158        0.094        0.073       20.098       13.692        0.464      331.339       -0.710      877.611
01/14/2014  01:13:00      -14.607       -9.436        1.183       14.601        9.144       10.129      213.175       83.604      102.594        0.035        0.020       17.390        8.850        0.259      331.402       -0.607      877.625
01/14/2014  01:14:00       -5.413       -0.061        4.845        5.519        5.251        9.116       30.463       27.572       83.106        0.010        0.007        5.413        5.858        1.171      331.506       -0.435      877.653
01/14/2014  01:15:00       -6.930       14.614       34.008        8.943       11.710        8.307       79.968      137.118       69.014        0.085        0.014       16.174        7.122        0.194      331.523       -0.407      877.677
01/14/2014  01:16:00       -2.449        8.866       32.609        9.709       21.537       11.693       94.256      463.823      136.726        0.092        0.035        9.198        5.643        0.376      331.546       -0.369      877.706
01/14/2014  01:17:00       -6.078       27.570       45.996        9.936       20.773       11.653       98.717      431.516      135.788        0.179        0.033       28.232       11.125        0.155      331.565       -0.337      877.722
01/14/2014  01:18:00       -2.687      -26.151       15.324       18.630       32.848       20.587      347.076     1078.980      423.839        0.139        0.092       26.289       21.659        0.679      331.664       -0.175      877.730
01/14/2014  01:19:00      -48.274      -25.869       -9.608       13.383       13.580        8.021      179.101      184.404       64.339        0.176        0.021       54.768        2.764        0.003      331.518       -0.414      877.722
01/14/2014  01:20:00      -55.222      -22.250       -5.196        9.524        7.778        5.998       90.713       60.495       35.972        0.188        0.009       59.536        3.450        0.003      331.407       -0.598      877.712
01/14/2014  01:21:00      -57.344      -26.272        0.113       18.152       10.349        7.264      329.501      107.110       52.766        0.223        0.024       63.076        6.239        0.010      331.374       -0.651      877.710
01/14/2014  01:22:00      -42.271      -12.230       -2.056       19.765       10.504       10.024      390.642      110.327      100.487        0.127        0.030       44.004        2.447        0.003      331.360       -0.675      877.716
01/14/2014  01:23:00      -44.536       -6.952       -0.922       20.286       24.251       12.866      411.535      588.111      165.538        0.160        0.058       45.075        9.276        0.042      331.398       -0.612      877.719
01/14/2014  01:24:00      -53.201        4.620       -5.615       20.183       19.815       11.379      407.365      392.621      129.478        0.191        0.046       53.401        6.377        0.014      331.331       -0.722      877.734
01/14/2014  01:25:00      -50.219        5.131      -11.679       13.964        9.635        8.908      194.995       92.841       79.346        0.153        0.018       50.480        8.231        0.027      331.396       -0.616      877.741
01/14/2014  01:26:00      -42.050       -7.755       -8.701        8.636        7.871        6.598       74.585       61.950       43.531        0.104        0.009       42.759        3.911        0.008      331.444       -0.537      877.738
01/14/2014  01:27:00      -34.349      -22.647      -13.904       13.573       10.100        7.766      184.225      102.018       60.306        0.112        0.017       41.143        3.827        0.009      331.534       -0.389      877.726
01/14/2014  01:28:00      -60.872       -7.080       -8.153       10.520        7.700        7.422      110.672       59.287       55.093        0.202        0.011       61.283        5.404        0.008      331.480       -0.479      877.710
01/14/2014  01:29:00      -58.344       -3.693       -7.949       16.494        8.734        7.510      272.056       76.275       56.395        0.194        0.020       58.461        6.233        0.011      331.527       -0.401      877.707
01/14/2014  01:30:00      -51.595       -7.544       -5.189       15.365       11.764        7.889      236.068      138.381       62.242        0.159        0.022       52.143        6.181        0.014      331.486       -0.469      877.722
01/14/2014  01:31:00      -59.104      -21.660       -7.501       21.429       10.077        8.715      459.220      101.553       75.947        0.233        0.032       62.948        9.673        0.024      331.443       -0.541      877.749
01/14/2014  01:32:00      -67.746       -7.982       -3.591       14.734       16.652       11.151      217.096      277.289      124.349        0.264        0.031       68.215        8.795        0.017      331.318       -0.742      877.781
01/14/2014  01:33:00      -34.922      -18.068       -2.092       18.705       12.046        7.755      349.867      145.108       60.132        0.105        0.028       39.319        7.749        0.039      331.315       -0.747      877.818
01/14/2014  01:34:00       -0.502       -3.837        8.127       13.340       15.253        7.137      177.955      232.651       50.944        0.027        0.023        3.870        6.943        3.219      331.299       -0.775      877.833
01/14/2014  01:35:00      -11.835       -3.010       -3.080       17.428        5.442        6.977      303.721       29.611       48.683        0.027        0.019       12.212        3.241        0.070      331.346       -0.699      877.830
01/14/2014  01:36:00      -75.965        2.170       -8.126       10.474       12.162        7.627      109.711      147.906       58.178        0.308        0.016       75.996        5.176        0.005      331.428       -0.563      877.801
01/14/2014  01:37:00      -76.433      -19.821       -6.665       13.262       15.847       16.048      175.869      251.137      257.531        0.348        0.034       78.961        9.807        0.015      331.230       -0.888      877.771
01/14/2014  01:38:00      -87.185      -48.787       -3.800       19.770       20.569       14.018      390.856      423.093      196.502        0.550        0.051       99.907       12.139        0.015      331.115       -1.077      877.758
01/14/2014  01:39:00     -104.983      -20.367      -11.581       14.166       17.369       11.999      200.665      301.670      143.988        0.611        0.032      106.940        8.121        0.006      331.050       -1.185      877.759
01/14/2014  01:40:00      -73.652       -3.430       -7.823       31.336       17.920       16.714      981.963      321.123      279.355        0.354        0.079       73.732       14.874        0.041      331.075       -1.145      877.768
01/14/2014  01:41:00     -108.906       -9.475       -6.857       20.616       17.520       12.931      425.026      306.933      167.216        0.645        0.045      109.318        8.968        0.007      331.136       -1.043      877.769
01/14/2014  01:42:00     -112.382      -13.092      -10.649       25.047       16.050       12.806      627.365      257.610      163.987        0.698        0.052      113.142       11.401        0.010      331.091       -1.118      877.777
01/14/2014  01:43:00     -121.889       -8.456      -10.618       17.511       15.108       15.293      306.639      228.262      233.888        0.790        0.038      122.182       13.742        0.013      331.148       -1.024      877.806
01/14/2014  01:44:00     -112.959       -3.376      -13.629       22.326       10.272       12.702      498.437      105.511      161.346        0.686        0.038      113.009       10.061        0.008      331.243       -0.867      877.830
01/14/2014  01:45:00      -74.351       -3.331       -9.895       19.041       14.836       14.358      362.550      220.115      206.151        0.321        0.039       74.426        7.273        0.010      331.279       -0.808      877.859
01/14/2014  01:46:00      -79.238      -12.652      -13.258       12.359        8.790        8.007      152.736       77.268       64.112        0.345        0.015       80.242        4.869        0.004      331.434       -0.554      877.873
01/14/2014  01:47:00      -57.138      -10.664       -7.630       14.921       13.480        9.822      222.639      181.720       96.474        0.197        0.025       58.125        7.978        0.019      331.330       -0.724      877.879
01/14/2014  01:48:00      -54.077      -13.234       -4.906       17.564       10.134        8.409      308.510      102.701       70.715        0.180        0.024       55.673        8.657        0.024      331.306       -0.763      877.878
01/14/2014  01:49:00      -51.945       -6.136       -5.627        9.390       10.488        8.090       88.163      109.994       65.456        0.152        0.013       52.306        5.218        0.010      331.287       -0.794      877.888
01/14/2014  01:50:00      -29.919       -7.922       -5.607        8.002        7.601        6.689       64.035       57.778       44.740        0.058        0.008       30.950        5.651        0.033      331.378       -0.646      877.907
01/14/2014  01:51:00      -44.425       -4.976      -10.315       10.435        6.997        5.694      108.888       48.961       32.424        0.115        0.010       44.703        4.812        0.012      331.456       -0.515      877.914
01/14/2014  01:52:00      -62.577      -29.127      -10.965        9.941       13.328        7.926       98.826      177.624       62.817        0.261        0.017       69.023        4.211        0.004      331.356       -0.682      877.907
01/14/2014  01:53:00     -102.894      -36.451      -12.663       22.499       12.594        7.997      506.209      158.616       63.951        0.640        0.036      109.160        5.543        0.003      331.116       -1.077      877.892
01/14/2014  01:54:00     -105.525      -26.016      -11.212       26.223       20.908       12.933      687.630      437.131      167.252        0.661        0.065      108.685       13.411        0.015      331.016       -1.240      877.876
01/14/2014  01:55:00      -90.375       -9.751       -5.338       41.558       21.599       16.322     1727.061      466.525      266.409        0.538        0.123       90.900       16.163        0.032      330.961       -1.332      877.871
01/14/2014  01:56:00      -75.501      -18.702       -4.754       46.936       30.648       21.463     2202.974      939.276      460.641        0.484        0.180       77.782       20.147        0.067      330.875       -1.472      877.868
01/14/2014  01:57:00     -103.654       -5.845      -22.072       50.672       40.492       28.746     2567.640     1639.566      826.348        0.815        0.252      103.819       26.077        0.063      330.913       -1.410      877.868
01/14/2014  01:58:00     -153.205      -13.990      -18.450       56.862       49.948       28.742     3233.336     2494.811      826.110        1.528        0.328      153.842       23.676        0.024      330.893       -1.443      877.870
01/14/2014  01:59:00     -128.280      -17.969       -2.072       61.243       43.446       31.539     3750.726     1887.580      994.722        1.171        0.332      129.533       34.333        0.070      330.861       -1.497      877.880
01/14/2014  02:00:00     -144.626        2.236      -13.563       39.923       40.410       20.647     1593.865     1632.930      426.294        1.238        0.183      144.643       12.206        0.007      330.947       -1.353      877.903
01/14/2014  02:01:00     -138.591       39.489      -18.198       41.264       32.040       23.054     1702.734     1026.558      531.467        1.218        0.163      144.107       18.555        0.017      331.037       -1.206      877.922
01/14/2014  02:02:00     -131.476       13.685      -13.534       35.668       30.831       21.060     1272.221      950.555      443.530        1.016        0.133      132.187       18.171        0.019      331.128       -1.056      877.939
01/14/2014  02:03:00      -79.190       -1.678       -1.997       34.873       26.375       16.267     1216.158      695.630      264.602        0.423        0.109       79.208       16.668        0.044      331.103       -1.100      877.954
01/14/2014  02:04:00      -63.609      -36.367       -9.221       22.323       19.201       13.534      498.312      368.675      183.158        0.325        0.053       73.271        9.365        0.016      331.102       -1.101      877.977
01/14/2014  02:05:00      -68.654      -31.104        1.214       30.165       29.404       18.643      909.914      864.587      347.575        0.390        0.106       75.371       15.529        0.042      331.063       -1.164      877.977
01/14/2014  02:06:00      -78.994      -23.533        1.262       28.576       28.900       15.147      816.593      835.231      229.434        0.434        0.094       82.425       13.939        0.029      330.993       -1.279      877.973
01/14/2014  02:07:00      -80.442      -43.530      -14.088       35.206       18.758       15.548     1239.455      351.844      241.729        0.520        0.092       91.465        3.702        0.002      331.069       -1.154      877.962
01/14/2014  02:08:00      -69.862      -49.209      -12.095       19.777       20.773       15.312      391.147      431.535      234.444        0.425        0.053       85.454        9.762        0.013      331.048       -1.189      877.936
01/14/2014  02:09:00     -128.021      -31.402       -7.076       32.765       26.123       19.792     1073.535      682.398      391.728        0.979        0.107      131.816       18.667        0.020      331.020       -1.234      877.919
01/14/2014  02:10:00     -123.375      -33.993      -10.289       29.408       20.362       17.480      864.829      414.610      305.564        0.903        0.079      127.972       15.984        0.016      331.089       -1.121      877.911
01/14/2014  02:11:00      -99.426      -52.162      -11.860       15.406       16.494       11.356      237.338      272.051      128.958        0.669        0.032      112.278        6.628        0.003      331.059       -1.170      877.906
01/14/2014  02:12:00      -98.844      -52.075      -13.784       14.379       23.201       17.723      206.759      538.303      314.120        0.687        0.053      111.722       11.807        0.011      331.055       -1.177      877.916
01/14/2014  02:13:00      -83.974      -41.436      -14.302       16.764       13.510       13.766      281.030      182.528      189.516        0.481        0.033       93.641        7.622        0.007      331.048       -1.189      877.938
01/14/2014  02:14:00      -69.676      -24.739      -10.268       16.611       12.075       10.769      275.910      145.794      115.976        0.305        0.027       73.938        7.437        0.010      330.993       -1.278      877.958
01/14/2014  02:15:00      -68.429      -18.201      -14.613       14.537        7.334        5.721      211.314       53.790       32.727        0.276        0.015       70.808        3.512        0.002      331.089       -1.121      877.971
01/14/2014  02:16:00      -72.105      -17.704      -13.168       13.305       10.440        7.648      177.030      108.988       58.489        0.302        0.017       74.247        7.209        0.009      331.214       -0.918      877.962
01/14/2014  02:17:00      -76.046        1.797      -10.756       13.329       11.803        9.857      177.649      139.314       97.151        0.316        0.021       76.067        5.855        0.006      331.129       -1.054      877.957
01/14/2014  02:18:00      -84.235       -6.594      -17.721       11.450       13.598        9.197      131.108      184.914       84.578        0.393        0.020       84.493        5.342        0.004      331.072       -1.150      877.939
01/14/2014  02:19:00      -78.780       -8.843      -13.090       10.324       11.027        8.897      106.580      121.604       79.161        0.338        0.015       79.275        6.882        0.008      331.117       -1.075      877.922
01/14/2014  02:20:00      -92.969       -4.094      -14.388       15.485        7.607        8.211      239.788       57.864       67.424        0.462        0.018       93.059        7.098        0.006      331.162       -0.999      877.903
01/14/2014  02:21:00      -70.930        2.116      -13.444       16.876        9.087        7.821      284.816       82.569       61.169        0.282        0.021       70.962        7.322        0.011      331.136       -1.045      877.886
01/14/2014  02:22:00      -35.624      -12.997       -5.093       12.165       10.435       10.639      147.995      108.882      113.183        0.092        0.019       37.921        4.019        0.011      331.185       -0.964      877.873
01/14/2014  02:23:00       -1.924      -10.830       -3.759       13.797        8.799       10.996      190.358       77.421      120.921        0.026        0.019       11.000        9.106        0.685      331.185       -0.963      877.881
01/14/2014  02:24:00        5.344        5.409       20.120        9.913        9.904       11.439       98.277       98.093      130.843        0.039        0.016        7.604       10.594        1.941      331.178       -0.975      877.889
01/14/2014  02:25:00       20.131       43.697       45.884       21.133       15.206       15.285      446.620      231.229      233.626        0.267        0.046       48.111       15.048        0.098      331.191       -0.953      877.902
01/14/2014  02:26:00       48.340       20.056       10.729       21.657       18.576       21.814      469.016      345.061      475.836        0.207        0.064       52.336       13.335        0.065      331.054       -1.179      877.921
01/14/2014  02:27:00       60.006       41.717       16.355       26.060       18.412       16.850      679.122      339.007      283.913        0.346        0.065       73.082       10.380        0.020      330.901       -1.431      877.945
01/14/2014  02:28:00       51.176       38.476       28.379       22.456       18.951       16.194      504.265      359.139      262.261        0.301        0.056       64.027        8.323        0.017      330.884       -1.457      877.972
01/14/2014  02:29:00       97.878       39.104       12.949       23.559       20.538       19.576      555.034      421.801      383.232        0.632        0.068      105.400       12.310        0.014      330.840       -1.531      877.988
01/14/2014  02:30:00       76.232       46.164        4.110       24.862       19.927       21.112      618.123      397.086      445.726        0.471        0.073       89.120       17.135        0.037      330.764       -1.655      877.997
01/14/2014  02:31:00       64.845       36.275       14.183       24.300       15.450       17.643      590.505      238.709      311.260        0.343        0.057       74.302       11.492        0.024      330.744       -1.689      878.011
01/14/2014  02:32:00       65.016       43.868       25.796       24.978       24.414       19.473      623.907      596.041      379.205        0.421        0.080       78.431       13.697        0.030      330.789       -1.613      878.032
01/14/2014  02:33:00       31.731       46.162       43.503       31.116       18.721       16.846      968.179      350.489      283.789        0.332        0.080       56.016       15.977        0.081      330.783       -1.623      878.059
01/14/2014  02:34:00       48.459       46.720       47.429       24.488       17.719       11.195      599.672      313.972      125.319        0.391        0.052       67.313        7.125        0.011      330.757       -1.665      878.080
01/14/2014  02:35:00       66.505       60.576       28.255       17.248       14.662       14.409      297.477      214.961      207.626        0.481        0.036       89.958       10.062        0.013      330.741       -1.693      878.093
01/14/2014  02:36:00       85.104       52.023       14.077       22.690       16.987       14.756      514.850      288.573      217.753        0.558        0.051       99.745       10.887        0.012      330.771       -1.642      878.103
01/14/2014  02:37:00       65.423       38.507       15.541       13.139       14.810       16.242      172.635      219.331      263.795        0.333        0.033       75.914       10.745        0.020      330.836       -1.536      878.122
01/14/2014  02:38:00       60.932       32.990        3.247       13.923       12.396       10.083      193.849      153.671      101.661        0.263        0.022       69.290        8.032        0.013      330.935       -1.374      878.135
01/14/2014  02:39:00       41.358       27.948        8.560       12.916        7.735       10.579      166.834       59.827      111.915        0.145        0.017       49.915        4.240        0.007      330.975       -1.309      878.153
01/14/2014  02:40:00       43.541       29.943       13.863        9.476        7.842        9.533       89.792       61.498       90.871        0.161        0.012       52.843        7.281        0.019      331.024       -1.230      878.161
01/14/2014  02:41:00       32.184       14.762        4.044        9.772        8.558        6.038       95.498       73.247       36.462        0.074        0.010       35.408        3.507        0.010      331.035       -1.210      878.146
01/14/2014  02:42:00       23.820       14.369       -2.486        6.910        9.474        8.724       47.744       89.760       76.103        0.050        0.011       27.819        7.045        0.064      331.102       -1.101      878.134
01/14/2014  02:43:00       21.811        7.720       -5.655        7.099        6.108        4.861       50.392       37.303       23.626        0.034        0.006       23.137        2.620        0.013      331.164       -0.998      878.119
01/14/2014  02:44:00        0.060        6.767       -2.345       12.069        4.444        5.675      145.658       19.751       32.207        0.012        0.010        6.768        6.936        1.050      331.182       -0.967      878.107
01/14/2014  02:45:00      -34.830       -1.792        1.706        9.341        8.251        7.753       87.252       68.073       60.105        0.072        0.011       34.876        6.321        0.033      330.978       -1.303      878.104
01/14/2014  02:46:00      -38.601       14.164       -4.160        6.053        8.469        5.945       36.644       71.726       35.347        0.093        0.007       41.118        2.345        0.003      330.941       -1.364      878.111
01/14/2014  02:47:00      -35.776       16.376       -5.670        7.695        8.970        9.406       59.215       80.452       88.469        0.090        0.011       39.346        5.903        0.023      331.000       -1.266      878.117
01/14/2014  02:48:00        2.647       18.649       -6.798       13.611        9.673        9.513      185.272       93.562       90.495        0.039        0.018       18.836        8.147        0.187      331.138       -1.040      878.120
01/14/2014  02:49:00       -8.313        8.425       -6.471       16.622       12.153        7.088      276.302      147.704       50.236        0.033        0.024       11.836        7.080        0.358      331.122       -1.065      878.115
01/14/2014  02:50:00      -30.122       -7.943       -4.083        7.374        7.326        6.525       54.374       53.672       42.570        0.057        0.008       31.152        3.830        0.015      330.928       -1.385      878.113
01/14/2014  02:51:00      -33.449      -18.169       -6.805        6.835        5.548        6.338       46.718       30.778       40.165        0.081        0.006       38.065        3.386        0.008      330.886       -1.453      878.125
01/14/2014  02:52:00      -28.169      -30.194       -8.171       14.443       12.449        8.307      208.613      154.988       69.013        0.110        0.022       41.294        5.556        0.018      330.891       -1.446      878.140
01/14/2014  02:53:00      -47.196      -29.155       -8.925        5.923        7.483        5.848       35.078       56.002       34.194        0.164        0.006       55.475        2.872        0.003      330.930       -1.381      878.155
01/14/2014  02:54:00      -55.330      -17.834       -7.782        7.173        7.076        4.509       51.453       50.069       20.331        0.178        0.006       58.133        2.834        0.002      330.862       -1.492      878.169
01/14/2014  02:55:00      -80.469      -24.016       -7.146        7.765        7.138        5.563       60.291       50.950       30.943        0.362        0.007       83.977        2.398        0.001      330.911       -1.413      878.185
01/14/2014  02:56:00      -81.408      -12.685      -10.304       18.257       12.950       13.989      333.336      167.694      195.694        0.380        0.035       82.391       12.469        0.023      330.792       -1.608      878.192
01/14/2014  02:57:00     -100.640       -5.926      -13.231       23.895       14.323       12.717      570.994      205.143      161.712        0.564        0.047      100.815       12.582        0.016      330.722       -1.723      878.184
01/14/2014  02:58:00     -119.882      -11.516      -16.171       18.096       12.278        9.261      327.471      150.760       85.772        0.766        0.028      120.433        8.491        0.005      330.715       -1.735      878.167
01/14/2014  02:59:00     -108.820      -22.597       -9.487       33.954       14.518       15.434     1152.867      210.771      238.195        0.702        0.080      111.141       18.903        0.029      330.687       -1.782      878.147
01/14/2014  03:00:00     -133.691      -14.484      -19.227       10.503       10.161        8.358      110.314      103.237       69.856        0.937        0.014      134.473        5.171        0.001      330.724       -1.720      878.137
01/14/2014  03:01:00     -138.565      -14.710      -18.513       12.781       12.672        8.987      163.348      160.571       80.772        1.008        0.020      139.343        5.271        0.001      330.721       -1.726      878.126
01/14/2014  03:02:00     -118.821      -27.909      -14.281       23.412       18.853       11.452      548.100      355.422      131.155        0.807        0.052      122.055        9.235        0.006      330.758       -1.663      878.104
01/14/2014  03:03:00     -130.724      -21.992      -11.554       17.166       15.338       13.488      294.672      235.240      181.933        0.921        0.036      132.561       11.221        0.007      330.694       -1.768      878.095
01/14/2014  03:04:00     -139.246      -14.648      -15.661       22.261       13.096       12.448      495.546      171.518      154.957        1.034        0.041      140.015       12.473        0.008      330.759       -1.662      878.075
01/14/2014  03:05:00     -108.579      -30.707      -13.546       17.255       16.659       11.405      297.727      277.524      130.084        0.681        0.035      112.837        9.681        0.007      330.684       -1.785      878.060
01/14/2014  03:06:00      -76.695      -44.313       -6.893       14.825       20.835       12.130      219.772      434.093      147.134        0.435        0.040       88.576        5.250        0.004      330.596       -1.929      878.044
01/14/2014  03:07:00      -64.015      -44.348       -6.525       24.117       20.522       13.414      581.621      421.152      179.935        0.364        0.059       77.876        5.906        0.006      330.585       -1.949      878.030
01/14/2014  03:08:00      -74.839      -50.694      -18.596       21.048       22.348       11.986      443.034      499.418      143.667        0.480        0.054       90.392       10.843        0.014      330.581       -1.954      878.010
01/14/2014  03:09:00      -73.692      -30.761       -7.647       27.191       18.720       15.863      739.340      350.425      251.643        0.389        0.067       79.854        4.411        0.003      330.558       -1.993      877.997
01/14/2014  03:10:00      -53.027       -8.244       -1.437       39.196       23.855       19.207     1536.330      569.055      368.922        0.268        0.124       53.664       17.305        0.104      330.613       -1.903      877.990
01/14/2014  03:11:00      -11.387       -9.752        5.957       17.602       17.760       14.597      309.826      315.423      213.071        0.055        0.042       14.993        7.986        0.284      330.687       -1.781      877.985
01/14/2014  03:12:00      -31.996       -3.801       -3.852       27.803       21.269       13.168      773.026      452.386      173.394        0.123        0.070       32.221       12.094        0.141      330.789       -1.614      877.982
01/14/2014  03:13:00      -39.270       -4.768       -4.964       25.745       19.684       15.747      662.829      387.442      247.964        0.144        0.065       39.558       16.496        0.174      330.834       -1.541      877.982
01/14/2014  03:14:00      -45.906      -11.302       -5.507       21.065       21.160       18.505      443.729      447.744      342.418        0.175        0.062       47.276       12.820        0.074      330.824       -1.557      877.981
01/14/2014  03:15:00      -40.701      -12.928       -1.740       22.086       23.036       12.895      487.800      530.667      166.287        0.151        0.059       42.705        5.069        0.014      330.705       -1.750      877.990
01/14/2014  03:16:00      -57.397      -15.116       -1.376       38.265       31.152       20.725     1464.190      970.430      429.511        0.319        0.143       59.354       12.556        0.045      330.680       -1.792      878.005
01/14/2014  03:17:00      -21.032      -16.899        3.944       18.245       15.954       14.086      332.892      254.522      198.406        0.076        0.039       26.980       10.051        0.139      330.679       -1.794      878.011
01/14/2014  03:18:00      -31.063      -14.169       -5.295       12.353       13.591       10.881      152.591      184.715      118.404        0.082        0.023       34.142        6.398        0.035      330.627       -1.878      878.004
01/14/2014  03:19:00      -41.009        2.585      -19.303       11.327        9.604       13.518      128.292       92.233      182.736        0.123        0.020       41.090        5.817        0.020      330.839       -1.533      878.000
01/14/2014  03:20:00      -44.877      -13.427       -7.160       16.126       14.841        9.695      260.060      220.266       94.000        0.141        0.029       46.842        5.782        0.015      330.862       -1.493      878.009
01/14/2014  03:21:00      -71.666       11.792       -7.708       16.799       17.668       13.044      282.201      312.160      170.141        0.305        0.038       72.630       10.263        0.020      331.037       -1.207      878.019
01/14/2014  03:22:00      -63.688       -5.194      -12.704       10.292       15.106       10.195      105.920      228.195      103.939        0.234        0.022       63.899        5.409        0.007      330.954       -1.341      878.036
01/14/2014  03:23:00      -48.363      -16.978      -10.887        9.992       10.671        9.176       99.845      113.864       84.197        0.152        0.015       51.257        4.678        0.008      330.839       -1.531      878.049
01/14/2014  03:24:00      -49.265      -21.120      -10.837        8.233       14.242        9.325       67.781      202.826       86.962        0.167        0.018       53.601        7.546        0.020      330.871       -1.480      878.048
01/14/2014  03:25:00      -54.830      -19.238       -7.839       13.633       12.685        8.348      185.861      160.918       69.686        0.193        0.021       58.107        5.488        0.009      330.773       -1.639      878.048
01/14/2014  03:26:00      -61.974        0.754      -13.204       16.656       10.470       12.052      277.435      109.616      145.245        0.227        0.027       61.979       12.019        0.038      330.815       -1.572      878.052
01/14/2014  03:27:00      -66.492       10.377       -9.122       18.255       12.608        9.176      333.259      158.959       84.203        0.259        0.029       67.297        8.490        0.016      330.838       -1.534      878.066
01/14/2014  03:28:00      -63.282        2.202      -11.162       16.964        8.123        6.056      287.766       65.987       36.680        0.226        0.020       63.320        3.950        0.004      331.177       -0.974      878.076
01/14/2014  03:29:00      -40.919        0.452      -10.507       11.801        9.288        6.570      139.275       86.261       43.167        0.103        0.013       40.922        3.176        0.006      331.074       -1.146      878.087
01/14/2014  03:30:00      -20.403        7.150       -1.717       11.159        5.070        4.165      124.532       25.701       17.351        0.032        0.008       21.620        5.403        0.062      331.324       -0.732      878.093
01/14/2014  03:31:00      -20.149        3.071       -2.404        6.583        9.569        4.958       43.335       91.557       24.580        0.029        0.008       20.382        5.271        0.067      331.100       -1.102      878.104
01/14/2014  03:32:00      -31.015        1.739       -6.127        7.517        4.699        5.277       56.507       22.081       27.845        0.055        0.005       31.064        3.736        0.014      331.030       -1.217      878.107
01/14/2014  03:33:00      -46.295       -3.810       -7.357        4.548        6.854        4.393       20.681       46.972       19.302        0.115        0.004       46.452        1.996        0.002      331.075       -1.144      878.107
01/14/2014  03:34:00      -56.989      -21.346      -11.241        9.427        7.448        4.727       88.873       55.477       22.342        0.200        0.008       60.855        3.220        0.003      330.854       -1.507      878.090
01/14/2014  03:35:00      -78.913      -31.474      -12.588        6.532       10.137        6.941       42.663      102.759       48.175        0.378        0.010       84.959        1.820        0.000      330.625       -1.882      878.066
01/14/2014  03:36:00      -81.804      -52.654       -4.805       18.336       19.715       16.988      336.195      388.692      288.577        0.525        0.051       97.285        8.771        0.008      330.496       -2.095      878.041
01/14/2014  03:37:00      -99.077      -26.697       -4.314       33.103       29.719       20.192     1095.794      883.211      407.708        0.647        0.119      102.611       20.618        0.040      330.449       -2.173      878.027
01/14/2014  03:38:00     -101.254      -21.147      -14.572       20.733       20.045       15.494      429.861      401.787      240.072        0.599        0.054      103.439       11.908        0.013      330.405       -2.244      878.014
01/14/2014  03:39:00     -107.732      -33.075      -13.013       22.583       20.142       16.557      509.979      405.697      274.129        0.703        0.059      112.695       11.729        0.011      330.430       -2.201      878.014
01/14/2014  03:40:00     -112.508      -41.010      -13.806       22.246       22.033       13.570      494.874      485.448      184.158        0.785        0.058      119.749       13.061        0.012      330.435       -2.193      878.018
01/14/2014  03:41:00     -130.765      -24.625      -12.626       26.682       19.507       17.540      711.917      380.534      307.642        0.963        0.070      133.063       14.029        0.011      330.462       -2.149      878.032
01/14/2014  03:42:00      -88.069      -24.675       -1.795       23.362       32.687       19.386      545.789     1068.452      375.823        0.518        0.100       91.461       15.504        0.029      330.418       -2.223      878.036
01/14/2014  03:43:00      -96.335      -51.025       -2.713       26.588       35.600       17.352      706.937     1267.343      301.101        0.708        0.114      109.014       16.005        0.022      330.467       -2.142      878.045
01/14/2014  03:44:00      -78.390      -68.055      -10.480       28.630       24.927       16.484      819.672      621.363      271.713        0.630        0.086      103.810        8.502        0.007      330.455       -2.160      878.045
01/14/2014  03:45:00     -112.048      -50.863       -5.648       24.546       23.490       15.419      602.486      551.799      237.741        0.828        0.070      123.052       13.435        0.012      330.445       -2.177      878.052
01/14/2014  03:46:00     -110.967      -47.929       -3.751       24.742       20.476       15.766      612.151      419.278      248.578        0.795        0.064      120.875       15.990        0.018      330.519       -2.056      878.058
01/14/2014  03:47:00     -100.105      -59.428       -6.791       27.242       20.169       15.025      742.153      406.785      225.752        0.749        0.069      116.416       12.412        0.011      330.589       -1.942      878.079
01/14/2014  03:48:00      -63.370      -49.422        3.270       37.722       33.172       19.933     1422.930     1100.407      397.309        0.469        0.146       80.364       16.753        0.043      330.580       -1.955      878.092
01/14/2014  03:49:00      -76.330      -42.798        1.573       41.702       23.543       17.911     1739.045      554.273      320.806        0.514        0.131       87.510       20.027        0.052      330.530       -2.037      878.093
01/14/2014  03:50:00      -67.685      -53.941        7.410       44.915       27.923       24.832     2017.350      779.704      616.617        0.548        0.171       86.550       26.007        0.090      330.538       -2.026      878.091
01/14/2014  03:51:00      -59.755      -54.657        2.692       38.868       35.675       22.353     1510.698     1272.706      499.636        0.492        0.164       80.982       19.328        0.057      330.571       -1.971      878.097
01/14/2014  03:52:00     -107.687      -67.917        2.158       40.568       31.124       25.366     1645.789      968.685      643.426        0.974        0.163      127.316       23.190        0.033      330.692       -1.772      878.100
01/14/2014  03:53:00      -97.890      -55.552        0.962       30.669       31.713       21.413      940.606     1005.720      458.502        0.754        0.120      112.554       16.035        0.020      330.814       -1.572      878.103
01/14/2014  03:54:00     -117.469      -40.747       -0.255       27.369       26.657       16.314      749.058      710.573      266.141        0.859        0.086      124.335        8.278        0.004      330.765       -1.654      878.104
01/14/2014  03:55:00      -89.254      -51.381       -5.841       29.144       17.621       12.718      849.390      310.486      161.741        0.598        0.066      102.987        6.973        0.005      330.680       -1.792      878.114
01/14/2014  03:56:00      -71.117      -30.566        0.056       24.399       20.694       15.696      595.316      428.240      246.356        0.363        0.063       77.407        8.416        0.012      330.698       -1.763      878.136
01/14/2014  03:57:00      -80.558      -23.690      -11.471       19.430       15.423       12.082      377.519      237.881      145.972        0.397        0.038       83.969        8.999        0.011      330.752       -1.676      878.142
01/14/2014  03:58:00      -70.443      -16.379       -3.220       17.058       18.350       13.766      290.965      336.720      189.504        0.303        0.041       72.322       10.121        0.020      330.746       -1.685      878.154
01/14/2014  03:59:00      -50.346      -25.156        2.572       27.613       15.676       14.357      762.466      245.745      206.122        0.219        0.061       56.281       11.552        0.042      330.768       -1.649      878.164
01/14/2014  04:00:00      -43.660      -15.461        6.341       27.327       20.710       11.127      746.748      428.924      123.802        0.174        0.065       46.316       11.876        0.066      330.687       -1.781      878.158
01/14/2014  04:01:00      -48.205       -1.610        2.662       29.216       23.012       14.776      853.553      529.549      218.342        0.197        0.080       48.232       11.260        0.055      330.618       -1.894      878.150
01/14/2014  04:02:00      -67.703       -9.197        0.872       33.059       23.075       15.430     1092.917      532.458      238.094        0.327        0.093       68.325       11.644        0.029      330.564       -1.982      878.165
01/14/2014  04:03:00      -79.325      -21.537        2.353       21.184       18.365       16.011      448.757      337.277      256.364        0.390        0.052       82.197       11.748        0.020      330.577       -1.962      878.165
01/14/2014  04:04:00      -92.039      -14.275       -1.791       45.276       21.967       12.923     2049.960      482.545      167.000        0.569        0.135       93.139       11.789        0.016      330.488       -2.107      878.162
01/14/2014  04:05:00     -121.500      -19.882      -12.509       25.392       17.534       17.935      644.755      307.428      321.671        0.829        0.064      123.116       16.916        0.019      330.291       -2.429      878.158
01/14/2014  04:06:00     -117.427      -19.580      -11.060       33.223       18.691       15.996     1103.798      349.335      255.877        0.800        0.085      119.049       13.514        0.013      330.199       -2.581      878.154
01/14/2014  04:07:00     -111.152      -24.484       -9.159       25.008       29.939       13.844      625.378      896.323      191.649        0.738        0.086      113.817        6.608        0.003      330.130       -2.695      878.151
01/14/2014  04:08:00     -119.358      -54.765      -15.162       29.021       24.277       21.317      842.196      589.361      454.395        0.968        0.094      131.323       14.957        0.013      330.137       -2.682      878.164
01/14/2014  04:09:00      -95.079      -56.605       -7.621       35.569       28.031       20.515     1265.153      785.710      420.855        0.739        0.124      110.654        7.894        0.005      330.178       -2.616      878.170
01/14/2014  04:10:00     -103.731      -48.951      -15.265       31.927       22.292       18.000     1019.353      496.939      324.008        0.761        0.092      114.702        9.802        0.007      330.201       -2.577      878.185
01/14/2014  04:11:00      -61.779      -16.131       -6.220       34.505       45.456       20.892     1190.565     2066.252      436.490        0.390        0.185       63.851       15.047        0.056      330.218       -2.550      878.196
01/14/2014  04:12:00      -61.007       -6.272       -3.324       28.047       25.456       20.113      786.620      648.004      404.531        0.281        0.092       61.329       15.791        0.066      330.303       -2.410      878.210
01/14/2014  04:13:00     -100.388        3.826       -6.150       39.907       39.433       20.178     1592.598     1554.947      407.138        0.684        0.178      100.461       21.196        0.045      330.448       -2.174      878.213
01/14/2014  04:14:00     -123.842       21.449      -11.976       53.013       38.030       25.398     2810.374     1446.259      645.046        1.042        0.245      125.686       19.026        0.023      330.457       -2.158      878.212
01/14/2014  04:15:00     -150.634       33.555      -14.744       40.703       33.959       21.525     1656.733     1153.183      463.318        1.365        0.164      154.326       13.361        0.007      330.530       -2.039      878.220
01/14/2014  04:16:00     -117.977        8.508       -8.197       39.808       29.348       19.070     1584.692      861.287      363.668        0.843        0.140      118.283       15.414        0.017      330.494       -2.098      878.242
01/14/2014  04:17:00     -118.447      -12.356       -8.343       30.933       37.016       19.509      956.820     1370.202      380.619        0.848        0.135      119.090       13.536        0.013      330.405       -2.244      878.232
01/14/2014  04:18:00     -144.273        3.500      -15.407       37.308       38.553       22.010     1391.908     1486.333      484.456        1.221        0.168      144.315       20.498        0.020      330.345       -2.341      878.222
01/14/2014  04:19:00     -129.265       31.198       -5.611       46.936       34.737       21.953     2202.968     1206.664      481.950        1.080        0.195      132.976       17.463        0.017      330.326       -2.374      878.204
01/14/2014  04:20:00      -74.232       23.356       -7.933       43.881       32.342       28.166     1925.558     1046.012      793.325        0.494        0.188       77.820       19.968        0.066      330.371       -2.299      878.194
01/14/2014  04:21:00      -73.828       11.534       -4.500       38.534       31.076       27.665     1484.834      965.738      765.379        0.441        0.161       74.724       20.853        0.078      330.432       -2.200      878.193
01/14/2014  04:22:00     -113.129       22.649       -4.513       46.859       33.997       24.938     2195.729     1155.769      621.894        0.865        0.199      115.374       20.113        0.030      330.414       -2.228      878.193
01/14/2014  04:23:00     -124.293       18.860       -6.115       42.960       34.572       29.351     1845.592     1195.225      861.491        0.987        0.195      125.716       25.943        0.043      330.374       -2.293      878.189
01/14/2014  04:24:00     -133.803       35.702       -7.397       49.394       35.051       22.333     2439.740     1228.573      498.754        1.170        0.208      138.484       15.730        0.013      330.413       -2.229      878.191
01/14/2014  04:25:00     -119.998       39.270      -11.587       39.393       31.584       26.923     1551.772      997.522      724.866        0.967        0.164      126.260       13.636        0.012      330.528       -2.042      878.198
01/14/2014  04:26:00     -148.590       43.491       -7.611       31.317       28.617       21.419      980.777      818.960      458.791        1.314        0.113      154.824       16.515        0.011      330.635       -1.867      878.206
01/14/2014  04:27:00     -172.642       39.738      -13.439       42.530       26.343       19.442     1808.803      693.951      377.989        1.722        0.144      177.156       16.305        0.008      330.610       -1.907      878.228
01/14/2014  04:28:00     -123.706        7.344       -8.489       39.161       39.718       19.838     1533.613     1577.509      393.562        0.947        0.175      123.924       15.205        0.015      330.467       -2.141      878.244
01/14/2014  04:29:00      -75.219      -16.485       -0.080       53.562       32.455       25.432     2868.883     1053.329      646.761        0.525        0.228       77.004       27.361        0.126      330.452       -2.167      878.253
01/14/2014  04:30:00      -61.625      -25.322       -4.663       25.593       21.933       11.711      655.020      481.053      137.158        0.287        0.064       66.625        8.535        0.016      330.384       -2.277      878.267
01/14/2014  04:31:00      -86.349      -48.127       -9.970       16.483       24.531       12.297      271.679      601.774      151.226        0.545        0.051       98.856       12.228        0.015      330.311       -2.398      878.274
01/14/2014  04:32:00      -59.655      -34.282       -5.302       29.941       21.527       16.325      896.435      463.429      266.514        0.319        0.081       68.804       16.614        0.058      330.356       -2.323      878.275
01/14/2014  04:33:00      -22.535      -25.645       -3.066       21.698       15.260       17.910      470.806      232.871      320.759        0.110        0.051       34.140        7.946        0.054      330.294       -2.424      878.268
01/14/2014  04:34:00      -83.361      -19.724      -14.401       24.143       18.778       11.378      582.876      352.611      129.451        0.430        0.053       85.662       13.233        0.024      330.272       -2.460      878.271
01/14/2014  04:35:00     -106.889      -13.793      -16.159       12.201       11.617        9.894      148.875      134.951       97.893        0.613        0.019      107.775        6.229        0.003      330.333       -2.361      878.282
01/14/2014  04:36:00      -82.620       -7.700      -10.368       24.741       20.450       12.544      612.123      418.217      157.348        0.409        0.059       82.978        8.184        0.010      330.395       -2.259      878.283
01/14/2014  04:37:00      -93.704       -9.535       -9.306       39.288       20.419       10.726     1543.556      416.954      115.043        0.552        0.104       94.188       14.318        0.023      330.455       -2.162      878.295
01/14/2014  04:38:00     -106.025       -1.732      -12.712       16.518        9.283       11.783      272.846       86.166      138.837        0.595        0.025      106.039       10.214        0.009      330.421       -2.218      878.313
01/14/2014  04:39:00     -101.946       -7.049      -12.434       14.087        9.196        8.497      198.441       84.564       72.194        0.548        0.018      102.189        7.184        0.005      330.379       -2.287      878.322
01/14/2014  04:40:00      -77.870      -20.964      -12.620       14.635       15.382        8.989      214.175      236.597       80.809        0.360        0.027       80.643        7.915        0.010      330.431       -2.200      878.325
01/14/2014  04:41:00      -67.862      -18.590      -12.702        9.750        8.940        6.787       95.053       79.927       46.066        0.267        0.011       70.363        4.221        0.004      330.509       -2.074      878.331
01/14/2014  04:42:00      -53.071      -26.902      -14.741        8.311        9.297        7.238       69.070       86.425       52.384        0.198        0.010       59.500        4.659        0.006      330.467       -2.140      878.354
01/14/2014  04:43:00      -60.359      -19.959       -8.267       13.844       12.325        7.779      191.646      151.904       60.510        0.226        0.020       63.573        3.372        0.003      330.399       -2.255      878.370
01/14/2014  04:44:00      -76.152      -16.539       -4.222       13.690        9.549        7.928      187.424       91.191       62.849        0.322        0.017       77.927        9.117        0.014      330.477       -2.123      878.388
01/14/2014  04:45:00      -71.761      -10.252      -10.311       10.094       10.343        6.495      101.891      106.979       42.191        0.281        0.013       72.489        1.947        0.001      330.426       -2.211      878.407
01/14/2014  04:46:00      -60.235      -13.523       -7.644       12.056        9.682        8.944      145.338       93.732       79.994        0.209        0.016       61.735        4.665        0.006      330.356       -2.325      878.421
01/14/2014  04:47:00      -59.244      -23.195      -12.306        6.158        8.574        7.232       37.927       73.520       52.300        0.218        0.008       63.623        3.495        0.003      330.331       -2.366      878.428
01/14/2014  04:48:00      -56.839      -16.121       -5.676       16.917       11.902        9.569      286.197      141.664       91.569        0.202        0.026       59.081        5.896        0.010      330.263       -2.475      878.428
01/14/2014  04:49:00      -77.757      -25.174       -9.943        7.562        7.997        6.494       57.183       63.951       42.169        0.347        0.008       81.731        3.120        0.001      330.165       -2.637      878.421
01/14/2014  04:50:00      -96.375      -31.346       -9.521       15.835       11.656        7.437      250.747      135.859       55.304        0.540        0.022      101.345        4.241        0.002      330.183       -2.606      878.432
01/14/2014  04:51:00     -122.258      -19.577      -12.342       19.639       16.982       12.702      385.694      288.390      161.333        0.816        0.042      123.816        4.599        0.001      330.086       -2.767      878.427
01/14/2014  04:52:00     -122.252      -20.936      -12.312       20.361       13.443       10.462      414.576      180.712      109.450        0.812        0.035      124.031        8.449        0.005      330.036       -2.849      878.429
01/14/2014  04:53:00     -135.662      -19.541      -17.348       20.245       18.957       14.342      409.851      359.376      205.679        1.003        0.049      137.063       12.903        0.009      330.108       -2.731      878.437
01/14/2014  04:54:00     -108.874      -36.332       -4.905       14.270       12.809       10.373      203.643      164.067      107.602        0.684        0.024      114.776        7.236        0.004      330.157       -2.651      878.444
01/14/2014  04:55:00     -102.317      -21.754      -12.230       11.073       11.592       10.513      122.622      134.374      110.521        0.573        0.018      104.604        8.218        0.006      330.218       -2.551      878.463
01/14/2014  04:56:00      -80.605      -13.980       -3.433       15.490       10.829       10.454      239.930      117.269      109.278        0.359        0.023       81.808       10.593        0.017      330.234       -2.524      878.487
01/14/2014  04:57:00      -62.799      -19.672       -5.248       21.052       15.395        8.337      443.168      237.006       69.506        0.255        0.037       65.808        4.822        0.005      330.235       -2.522      878.502
01/14/2014  04:58:00      -74.081      -39.203       -6.744       14.142       13.866        8.070      200.007      192.261       65.131        0.376        0.023       83.814        4.757        0.003      330.307       -2.403      878.503
01/14/2014  04:59:00      -34.245      -33.061        5.771       31.417       30.195       17.987      987.005      911.722      323.548        0.226        0.111       47.600       18.966        0.159      330.269       -2.466      878.492
01/14/2014  05:00:00      -62.854      -46.796        2.104       23.239       23.086       14.088      540.054      532.953      198.467        0.371        0.064       78.361       12.792        0.027      330.338       -2.353      878.489
01/14/2014  05:01:00      -59.785      -62.763       -1.742       26.359       23.856       18.287      694.806      569.127      334.416        0.456        0.080       86.680       10.853        0.016      330.356       -2.325      878.501
01/14/2014  05:02:00      -74.223      -46.183       -6.708       27.562       25.915       13.048      759.667      671.563      170.257        0.464        0.080       87.418       11.364        0.017      330.382       -2.280      878.523
01/14/2014  05:03:00      -82.673      -51.715       -1.753       27.253       17.542       12.230      742.706      307.725      149.563        0.536        0.060       97.515       11.589        0.014      330.292       -2.428      878.536
01/14/2014  05:04:00     -103.826      -34.740       -7.263       20.737       17.707       13.599      430.030      313.526      184.943        0.648        0.046      109.484        9.319        0.007      330.299       -2.415      878.544
01/14/2014  05:05:00      -95.291      -30.095       -0.066       30.150       23.718       15.331      909.007      562.526      235.047        0.585        0.085       99.930       16.303        0.027      330.306       -2.405      878.532
01/14/2014  05:06:00      -98.291      -51.543        0.489       44.614       28.456       22.453     1990.374      809.737      504.132        0.781        0.165      110.985       24.803        0.050      330.334       -2.359      878.513
01/14/2014  05:07:00     -116.996      -57.322       -5.628       20.741       20.367       14.402      430.198      414.798      207.404        0.903        0.053      130.283       11.249        0.007      330.343       -2.345      878.496
01/14/2014  05:08:00      -80.124      -36.377        2.901       27.481       23.655       17.820      755.216      559.575      317.550        0.469        0.082       87.995       16.759        0.036      330.346       -2.340      878.502
01/14/2014  05:09:00      -86.538      -37.320        0.039       36.258       19.780       17.360     1314.627      391.265      301.371        0.544        0.100       94.242       12.303        0.017      330.427       -2.206      878.517
01/14/2014  05:10:00      -52.833      -34.309       -2.516       30.832       19.684       16.542      950.619      387.473      273.636        0.279        0.081       62.995       14.180        0.051      330.458       -2.157      878.525
01/14/2014  05:11:00      -58.012      -27.827        1.678       20.689       20.688       15.074      428.038      427.989      227.219        0.261        0.054       64.340        9.115        0.020      330.473       -2.131      878.534
01/14/2014  05:12:00      -52.363      -26.488       -0.987       23.464       18.939       10.291      550.542      358.681      105.906        0.223        0.051       58.682        8.701        0.022      330.410       -2.234      878.541
01/14/2014  05:13:00      -64.799       -0.058       -4.323       20.457       11.833       15.141      418.502      140.009      229.256        0.250        0.039       64.799       13.050        0.041      330.343       -2.346      878.542
01/14/2014  05:14:00      -40.154       -6.289       -0.077       31.613       12.670       17.447      999.378      160.522      304.388        0.156        0.073       40.643       19.278        0.225      330.284       -2.442      878.545
01/14/2014  05:15:00        0.080       -1.697        5.883        7.989        7.670        6.638       63.819       58.835       44.058        0.010        0.008        1.699        3.014        3.145      330.346       -2.339      878.542
01/14/2014  05:16:00      -19.080       -6.304       -7.277       14.445        8.124        8.636      208.653       66.002       74.589        0.040        0.017       20.095        6.901        0.118      330.391       -2.268      878.526
01/14/2014  05:17:00      -39.160      -13.736       -6.480        8.060        7.914        6.140       64.965       62.628       37.702        0.096        0.008       41.499        2.622        0.004      330.491       -2.102      878.523
01/14/2014  05:18:00      -31.068      -14.927        0.054        6.149        6.524        5.289       37.814       42.569       27.975        0.065        0.005       34.468        2.690        0.006      330.470       -2.137      878.525
01/14/2014  05:19:00      -29.610      -12.316       -1.580        5.031        4.979        3.769       25.307       24.789       14.206        0.055        0.003       32.069        1.801        0.003      330.456       -2.160      878.524
01/14/2014  05:20:00      -19.374       -2.886       -5.191        9.440        5.864        6.193       89.117       34.383       38.359        0.029        0.008       19.588        4.848        0.061      330.447       -2.173      878.521
01/14/2014  05:21:00      -10.426        6.913        3.086        5.209        5.608        7.188       27.130       31.452       51.665        0.014        0.006       12.510        5.129        0.168      330.394       -2.263      878.516
01/14/2014  05:22:00        1.863       58.933       -5.610        6.879       20.855       10.806       47.315      434.945      116.763        0.205        0.030       58.962       12.238        0.043      330.229       -2.531      878.513
01/14/2014  05:23:00       -4.042       78.132       -4.731        6.451       15.683        9.848       41.611      245.944       96.980        0.326        0.019       78.236        5.844        0.006      330.306       -2.406      878.512
01/14/2014  05:24:00      -17.770       56.761       -4.758       18.211       21.115        9.721      331.627      445.844       94.490        0.222        0.044       59.478        8.224        0.019      330.323       -2.379      878.517
01/14/2014  05:25:00      -43.508       49.582       -5.689       18.132       19.540       11.117      328.755      381.796      123.586        0.261        0.042       65.964        6.280        0.009      330.275       -2.457      878.518
01/14/2014  05:26:00      -14.832       54.002       -0.423       26.952       35.681       16.438      726.406     1273.120      270.219        0.270        0.113       56.002       13.629        0.059      330.222       -2.542      878.520
01/14/2014  05:27:00       -4.358      123.644       -7.988       11.870       20.264       13.056      140.905      410.642      170.471        0.805        0.036      123.721       10.087        0.007      330.259       -2.483      878.519
01/14/2014  05:28:00       -2.348      125.875       -6.576        9.718       15.499       13.209       94.436      240.215      174.476        0.820        0.025      125.897        8.015        0.004      330.276       -2.454      878.520
01/14/2014  05:29:00      -18.356      120.524      -13.925       18.552       24.506       14.897      344.166      600.529      221.929        0.811        0.058      121.914       15.191        0.016      330.296       -2.422      878.519
01/14/2014  05:30:00      -14.728      121.569      -14.524       12.202       13.420        8.215      148.888      180.087       67.482        0.780        0.020      122.458        4.843        0.002      330.323       -2.378      878.526
01/14/2014  05:31:00       -9.310      106.345      -15.825       11.419       10.755        9.109      130.396      115.666       82.972        0.599        0.016      106.752        3.145        0.001      330.334       -2.360      878.544
01/14/2014  05:32:00      -11.353       84.290       -5.643       13.249       14.529       11.582      175.533      211.078      134.135        0.389        0.026       85.052        4.359        0.003      330.508       -2.075      878.552
01/14/2014  05:33:00       -4.307       83.693      -11.978        8.661       12.180        5.470       75.018      148.345       29.919        0.371        0.013       83.804        4.967        0.004      330.481       -2.118      878.559
01/14/2014  05:34:00       -4.244       81.807      -10.015        8.549       12.736        6.539       73.088      162.198       42.758        0.354        0.014       81.917        5.068        0.004      330.569       -1.974      878.566
01/14/2014  05:35:00       -2.058       53.425       -5.761       12.387       25.766       10.659      153.439      663.898      113.615        0.191        0.047       53.465       12.890        0.058      330.600       -1.924      878.575
01/14/2014  05:36:00       -9.743        5.282        0.780        9.048        5.385        5.753       81.862       28.999       33.100        0.013        0.007       11.083        4.541        0.168      330.291       -2.430      878.591
01/14/2014  05:37:00      -13.565       16.658       -5.143       17.396       23.224       10.508      302.620      539.354      110.419        0.072        0.048       21.483        7.009        0.106      330.318       -2.386      878.611
01/14/2014  05:38:00       13.896       10.371       -0.496       16.218       15.730       11.430      263.017      247.445      130.649        0.047        0.032       17.339        5.753        0.110      330.558       -1.993      878.636
01/14/2014  05:39:00       11.152        9.956        4.019       12.640       13.675        9.827      159.776      187.011       96.576        0.034        0.022       14.949        5.661        0.143      330.575       -1.965      878.664
01/14/2014  05:40:00      -37.598      -21.495       -4.959       23.669       16.687       11.334      560.237      278.470      128.458        0.143        0.048       43.309       11.884        0.075      330.169       -2.630      878.679
01/14/2014  05:41:00      -77.421      -20.652      -11.719       15.507       15.701       11.555      240.456      246.509      133.514        0.359        0.031       80.128        3.626        0.002      329.854       -3.147      878.694
01/14/2014  05:42:00     -111.828       -9.750      -11.668       15.702       14.703       11.447      246.562      216.184      131.044        0.667        0.030      112.252        6.462        0.003      329.874       -3.114      878.691
01/14/2014  05:43:00      -99.638      -20.729      -12.714       13.732       14.343       11.719      188.558      205.734      137.337        0.553        0.027      101.772        5.526        0.003      329.957       -2.977      878.688
01/14/2014  05:44:00     -121.312      -31.866      -14.657       20.611       14.266       11.925      424.817      203.514      142.204        0.836        0.039      125.427        7.391        0.003      329.998       -2.909      878.677
01/14/2014  05:45:00     -120.053      -11.465      -15.611       18.617       19.296       13.937      346.594      372.327      194.242        0.785        0.046      120.599        9.918        0.007      329.878       -3.108      878.668
01/14/2014  05:46:00     -111.405      -10.474      -14.328       25.718       18.164       16.924      661.395      329.916      286.435        0.700        0.064      111.896       15.329        0.019      329.869       -3.123      878.670
01/14/2014  05:47:00      -84.172      -21.863      -11.380       20.900       16.016       11.703      436.821      256.516      136.965        0.426        0.042       86.965        7.920        0.008      329.856       -3.143      878.681
01/14/2014  05:48:00      -73.014      -22.221       -9.463       16.586       14.952        9.186      275.082      223.551       84.386        0.325        0.029       76.320        5.666        0.006      329.903       -3.067      878.690
01/14/2014  05:49:00      -61.364       -8.692       -8.691       11.398       10.677       12.296      129.918      113.989      151.187        0.216        0.020       61.977        6.498        0.011      329.907       -3.060      878.702
01/14/2014  05:50:00      -65.628       -2.430      -11.293       11.634        9.323        9.258      135.343       86.917       85.704        0.237        0.015       65.673        8.045        0.015      330.086       -2.767      878.699
01/14/2014  05:51:00      -78.827      -11.809       -8.655       17.223       13.125       11.022      296.629      172.269      121.484        0.351        0.030       79.706        8.834        0.012      330.127       -2.701      878.693
01/14/2014  05:52:00      -62.413      -13.799       -4.485       13.842       10.534        8.029      191.603      110.959       64.459        0.224        0.018       63.920        2.998        0.002      330.121       -2.710      878.694
01/14/2014  05:53:00      -64.007      -15.766       -8.671       11.841        7.466        8.104      140.206       55.738       65.676        0.234        0.013       65.920        3.605        0.003      330.043       -2.836      878.689
01/14/2014  05:54:00      -47.315      -18.586       -9.048       15.020        8.716        6.374      225.592       75.962       40.629        0.150        0.017       50.835        5.696        0.013      329.998       -2.911      878.680
01/14/2014  05:55:00      -49.543       -5.012      -12.294       10.329        6.437        5.960      106.689       41.439       35.523        0.141        0.009       49.796        4.972        0.010      330.011       -2.887      878.673
01/14/2014  05:56:00      -65.177      -11.930      -12.633        8.454        7.982        7.375       71.465       63.711       54.389        0.237        0.009       66.259        2.588        0.002      330.084       -2.770      878.671
01/14/2014  05:57:00      -87.209      -12.126       -7.005       18.222       12.174       11.181      332.057      148.197      125.006        0.420        0.030       88.048        8.770        0.010      330.055       -2.819      878.670
01/14/2014  05:58:00      -90.513      -23.809       -8.973       19.215       11.935        9.905      369.210      142.453       98.101        0.472        0.030       93.592        3.725        0.002      330.094       -2.753      878.671
01/14/2014  05:59:00      -52.096       -6.040       -4.819       19.916       13.502       10.459      396.628      182.291      109.389        0.173        0.034       52.445       10.058        0.037      329.975       -2.948      878.679
01/14/2014  06:00:00      -42.126       -6.955       -6.842       12.715       11.049        9.590      161.661      122.090       91.970        0.112        0.019       42.696        7.430        0.030      330.095       -2.752      878.688
01/14/2014  06:01:00      -45.017       -5.931       -7.867       11.350        7.485        6.199      128.823       56.032       38.423        0.117        0.011       45.406        3.713        0.007      330.223       -2.540      878.683
01/14/2014  06:02:00      -49.089      -10.353       -7.608       19.680        7.455        6.383      387.320       55.577       40.739        0.153        0.024       50.169        8.022        0.026      330.281       -2.445      878.686
01/14/2014  06:03:00      -72.934      -15.947      -13.379        7.314        6.124        6.550       53.490       37.509       42.899        0.294        0.007       74.657        2.047        0.001      330.274       -2.459      878.700
01/14/2014  06:04:00      -59.588      -21.173       -8.274       13.758        7.898        6.917      189.286       62.384       47.841        0.218        0.015       63.238        2.317        0.001      330.283       -2.443      878.717
01/14/2014  06:05:00      -20.078       -9.377       -9.294       17.060        8.934        8.136      291.050       79.821       66.199        0.051        0.022       22.160        7.314        0.109      330.197       -2.585      878.748
01/14/2014  06:06:00      -30.073       -3.559       -2.559       18.301       10.740        6.000      334.944      115.347       35.995        0.070        0.024       30.283        8.653        0.082      330.238       -2.517      878.776
01/14/2014  06:07:00      -38.301       13.492       -5.138        7.035        8.088        4.877       49.489       65.421       23.782        0.091        0.007       40.608        3.087        0.006      330.364       -2.311      878.781
01/14/2014  06:08:00      -41.379       17.792       -7.567        9.571        8.219        8.176       91.601       67.547       66.844        0.116        0.011       45.042        4.094        0.008      330.322       -2.380      878.786
01/14/2014  06:09:00      -40.439      -14.526       -5.426       12.997       14.831        9.531      168.922      219.971       90.839        0.118        0.024       42.969        8.336        0.038      330.091       -2.758      878.780
01/14/2014  06:10:00      -55.940      -26.019       -8.797       12.253       14.538        7.839      150.128      211.365       61.450        0.215        0.021       61.695        3.347        0.003      329.891       -3.085      878.782
01/14/2014  06:11:00      -63.503      -12.728       -6.051       16.900       17.207       13.771      285.600      296.083      189.630        0.250        0.039       64.766       10.571        0.027      329.764       -3.294      878.783
01/14/2014  06:12:00      -80.460      -18.957       -7.849       18.132       17.549       14.263      328.782      307.981      203.419        0.387        0.042       82.663       13.232        0.026      329.748       -3.319      878.791
01/14/2014  06:13:00      -93.499      -15.504      -14.267       23.873       15.608       12.146      569.938      243.617      147.528        0.507        0.048       94.775       11.115        0.014      329.710       -3.381      878.809
01/14/2014  06:14:00      -68.931      -22.346      -11.001       15.677       17.717       13.629      245.779      313.892      185.753        0.306        0.037       72.462        8.280        0.013      329.738       -3.336      878.822
01/14/2014  06:15:00      -76.760       -9.565       -9.628       12.621       11.089       10.546      159.293      122.966      111.224        0.323        0.020       77.354        7.877        0.010      329.748       -3.320      878.811
01/14/2014  06:16:00      -66.512      -14.310      -13.269        9.938        8.415        8.231       98.760       70.813       67.745        0.252        0.012       68.034        5.645        0.007      329.787       -3.255      878.801
01/14/2014  06:17:00      -74.203       -8.185      -10.421       12.389       11.761        9.807      153.498      138.315       96.173        0.303        0.019       74.653        5.732        0.006      329.720       -3.366      878.792
01/14/2014  06:18:00      -69.025      -17.158       -8.494        8.504       10.293        5.454       72.322      105.954       29.751        0.267        0.010       71.125        4.207        0.003      329.791       -3.250      878.789
01/14/2014  06:19:00      -62.977      -20.609      -13.054       15.108       11.736        9.423      228.257      137.733       88.800        0.251        0.023       66.263        9.024        0.019      329.798       -3.237      878.790
01/14/2014  06:20:00      -64.256      -29.050      -11.418       12.727       11.171        7.833      161.984      124.781       61.351        0.273        0.017       70.517        2.558        0.001      329.822       -3.198      878.796
01/14/2014  06:21:00      -63.679      -10.363       -2.419       17.516       12.230       13.322      306.804      149.579      177.475        0.240        0.032       64.517        9.395        0.021      329.787       -3.256      878.804
01/14/2014  06:22:00      -39.023      -19.843       -2.402       13.777       15.218        8.492      189.799      231.592       72.116        0.121        0.025       43.778        7.015        0.026      329.865       -3.128      878.822
01/14/2014  06:23:00      -44.703      -16.908       -7.723       12.250        7.836        7.317      150.072       61.409       53.535        0.130        0.013       47.793        1.910        0.002      329.909       -3.055      878.843
01/14/2014  06:24:00      -41.249      -13.758       -7.957        8.522        8.476        7.141       72.630       71.836       50.996        0.107        0.010       43.483        5.439        0.016      329.899       -3.074      878.851
01/14/2014  06:25:00      -40.923       -5.724       -6.334        9.716       10.189        6.479       94.406      103.820       41.976        0.099        0.012       41.321        5.284        0.016      329.910       -3.054      878.857
01/14/2014  06:26:00      -53.555        5.397       -6.708        8.090        7.624        7.266       65.441       58.119       52.792        0.156        0.009       53.826        3.492        0.004      329.927       -3.027      878.843
01/14/2014  06:27:00      -60.123       -6.876       -8.681        7.437        7.901        4.571       55.312       62.430       20.897        0.194        0.007       60.515        1.541        0.001      329.949       -2.991      878.829
01/14/2014  06:28:00      -50.529      -14.560       -9.491        4.336        5.735        5.353       18.799       32.886       28.650        0.147        0.004       52.585        1.544        0.001      329.973       -2.952      878.823
01/14/2014  06:29:00      -51.819       -5.323       -7.667        7.147        5.450        5.672       51.082       29.708       32.170        0.144        0.006       52.091        2.981        0.003      329.958       -2.977      878.819
01/14/2014  06:30:00      -53.125      -15.166       -7.704        9.496        8.217        6.870       90.176       67.520       47.192        0.166        0.010       55.248        5.185        0.009      329.984       -2.934      878.820
01/14/2014  06:31:00      -61.138      -21.329       -9.651       13.494        8.230        6.382      182.090       67.731       40.727        0.229        0.015       64.752        4.307        0.004      329.966       -2.964      878.821
01/14/2014  06:32:00      -66.917      -19.994       -6.259       12.549       10.274        6.467      157.471      105.565       41.827        0.261        0.015       69.840        6.555        0.009      329.999       -2.911      878.834
01/14/2014  06:33:00      -63.738      -24.943       -7.867        6.559       10.222        6.597       43.020      104.492       43.517        0.247        0.010       68.445        3.800        0.003      329.949       -2.990      878.837
01/14/2014  06:34:00      -68.823      -27.767       -9.672        8.673       10.406        6.311       75.229      108.280       39.826        0.291        0.011       74.214        4.177        0.003      329.881       -3.101      878.826
01/14/2014  06:35:00      -62.204      -12.890      -11.707       12.020        9.560        7.910      144.492       91.402       62.567        0.224        0.015       63.525        7.611        0.014      329.818       -3.203      878.824
01/14/2014  06:36:00      -52.300       -7.530       -7.868        8.878       10.714        5.706       78.823      114.786       32.564        0.154        0.011       52.839        4.134        0.006      329.836       -3.177      878.825
01/14/2014  06:37:00      -50.684       -8.439       -7.508       11.462        9.949        8.363      131.378       98.981       69.937        0.150        0.015       51.382        7.171        0.019      329.874       -3.113      878.830
01/14/2014  06:38:00      -58.708       -6.302       -5.310       17.436        6.518        7.809      304.025       42.484       60.980        0.196        0.020       59.045        6.637        0.013      329.855       -3.144      878.837
01/14/2014  06:39:00      -69.491      -14.699       -8.300       11.040       10.439       10.097      121.892      108.972      101.948        0.272        0.017       71.029        5.932        0.007      329.906       -3.060      878.845
01/14/2014  06:40:00      -69.797      -20.598       -9.681       12.428       11.270        9.893      154.467      127.020       97.878        0.288        0.019       72.773        5.664        0.006      329.841       -3.167      878.849
01/14/2014  06:41:00      -75.589       -8.336      -10.268        9.712       10.411        5.925       94.323      108.389       35.110        0.306        0.012       76.047        3.247        0.002      329.810       -3.217      878.854
01/14/2014  06:42:00      -49.048       -3.427       -6.249        6.360        5.317        4.581       40.444       28.269       20.986        0.127        0.004       49.168        3.845        0.006      329.807       -3.223      878.864
01/14/2014  06:43:00      -40.373      -11.517       -8.671        8.122        9.952        5.223       65.970       99.036       27.275        0.101        0.010       41.983        4.566        0.012      329.800       -3.234      878.878
01/14/2014  06:44:00      -20.514      -14.575       -4.554       10.225        7.260        4.394      104.547       52.710       19.304        0.042        0.009       25.164        3.987        0.025      329.905       -3.063      878.892
01/14/2014  06:45:00        8.178        8.412        0.086       10.488        8.390        4.727      109.994       70.398       22.349        0.017        0.010       11.732        3.415        0.085      330.065       -2.802      878.924
01/14/2014  06:46:00       20.934       11.415        7.896        8.745        7.901        6.962       76.483       62.428       48.469        0.041        0.009       23.844        4.626        0.038      330.093       -2.756      878.951
01/14/2014  06:47:00       24.162       15.960        4.369        8.460        7.242        6.057       71.572       52.446       36.691        0.051        0.008       28.957        4.397        0.023      330.089       -2.761      878.973
01/14/2014  06:48:00       30.186       21.929        2.067       11.375       10.205        8.898      129.379      104.149       79.167        0.085        0.016       37.311        7.429        0.040      330.081       -2.776      878.995
01/14/2014  06:49:00       25.041       34.654       -5.581       11.031       15.484        6.682      121.691      239.741       44.647        0.113        0.020       42.755        5.438        0.016      330.113       -2.722      879.002
01/14/2014  06:50:00        7.231       62.699       -9.175        9.820       12.801        5.188       96.431      163.867       26.916        0.218        0.014       63.115        3.195        0.003      330.145       -2.671      879.013
01/14/2014  06:51:00        4.760       72.342       -8.285       10.185        9.822        7.018      103.738       96.463       49.253        0.279        0.012       72.498        5.636        0.006      330.234       -2.523      879.018
01/14/2014  06:52:00       19.968       81.138      -10.521       11.064       10.386        7.432      122.417      107.864       55.232        0.369        0.014       83.559        5.117        0.004      330.261       -2.479      879.032
01/14/2014  06:53:00       26.324       78.983      -13.401       13.761       12.477        7.781      189.371      155.664       60.544        0.376        0.020       83.255        3.818        0.002      330.219       -2.546      879.038
01/14/2014  06:54:00       27.445       59.985       -8.383       13.831       21.884       11.044      191.296      478.890      121.959        0.261        0.040       65.966       10.869        0.027      330.192       -2.592      879.050
01/14/2014  06:55:00       29.152       45.157       -8.605       14.531       17.673        9.379      211.137      312.351       87.970        0.179        0.031       53.749        4.313        0.006      330.212       -2.560      879.067
01/14/2014  06:56:00       22.000       28.760       -5.005       12.166       14.337        8.808      148.002      205.538       77.577        0.088        0.022       36.210        7.862        0.047      330.191       -2.595      879.087
01/14/2014  06:57:00       23.288       36.191       -4.912       11.519       22.000       10.999      132.697      484.002      120.980        0.131        0.037       43.036       11.438        0.071      330.176       -2.618      879.103
01/14/2014  06:58:00       15.653       34.128       -5.459       10.525       14.956       11.514      110.778      223.689      132.572        0.095        0.023       37.546        8.290        0.049      330.157       -2.651      879.126
01/14/2014  06:59:00       21.450       35.420       -3.663       10.386       11.646        8.482      107.873      135.630       71.936        0.102        0.016       41.409        6.585        0.025      330.228       -2.534      879.138
01/14/2014  07:00:00        8.611       34.813       -3.207        9.728       12.493        4.933       94.641      156.083       24.334        0.079        0.014       35.863        4.450        0.015      330.278       -2.453      879.142
01/14/2014  07:01:00        8.157       43.733       -6.483        7.031        7.238        3.384       49.440       52.393       11.450        0.107        0.006       44.487        3.263        0.005      330.380       -2.285      879.136
01/14/2014  07:02:00       16.231       36.170       -6.553        5.778        6.942        4.483       33.389       48.186       20.100        0.086        0.005       39.645        1.593        0.002      330.369       -2.302      879.136
01/14/2014  07:03:00       11.773       15.350       -6.033        6.162        5.991        3.667       37.971       35.889       13.446        0.025        0.004       19.344        1.778        0.008      330.395       -2.262      879.136
01/14/2014  07:04:00       -6.758        9.437       -0.737        6.721        5.345        3.074       45.171       28.566        9.449        0.011        0.004       11.607        3.251        0.078      330.373       -2.295      879.139
01/14/2014  07:05:00      -27.411      -10.959        0.364       10.462        8.373        6.763      109.449       70.114       45.733        0.055        0.011       29.521        5.507        0.035      330.132       -2.691      879.148
01/14/2014  07:06:00      -29.134       -9.115       -3.518        5.892        6.508        4.518       34.719       42.356       20.409        0.052        0.005       30.526        2.333        0.006      329.862       -3.134      879.162
01/14/2014  07:07:00      -25.479      -19.612       -0.358       11.360       11.842        7.106      129.048      140.236       50.501        0.068        0.016       32.153        1.846        0.003      329.904       -3.065      879.165
01/14/2014  07:08:00      -26.777      -28.579       -6.987       12.002       10.296        8.145      144.041      106.003       66.336        0.095        0.016       39.163        6.016        0.024      329.871       -3.117      879.164
01/14/2014  07:09:00       -7.515      -14.882        2.535        8.761        6.560        6.879       76.761       43.037       47.314        0.023        0.008       16.672        2.893        0.030      330.235       -2.522      879.169
01/14/2014  07:10:00       -7.452       -0.487        3.444        7.594        7.265        7.351       57.668       52.785       54.036        0.012        0.008        7.468        4.932        0.436      330.128       -2.696      879.174
01/14/2014  07:11:00       -4.098        6.470       -0.865       10.131       11.552        6.244      102.632      133.442       38.989        0.017        0.014        7.658        5.280        0.475      330.259       -2.484      879.174
01/14/2014  07:12:00      -12.754       -2.531       -2.492       15.535        9.520        5.785      241.323       90.628       33.468        0.027        0.018       13.003        6.330        0.237      330.187       -2.601      879.163
01/14/2014  07:13:00      -55.458      -19.251       -9.893       12.067        7.476        5.592      145.623       55.893       31.266        0.189        0.012       58.705        3.172        0.003      329.991       -2.923      879.154
01/14/2014  07:14:00      -72.881      -10.963      -10.156       11.569        8.745       10.178      133.831       76.479      103.583        0.292        0.016       73.701        3.813        0.003      329.870       -3.120      879.142
01/14/2014  07:15:00      -49.127      -14.735      -10.603        8.995        7.673        5.096       80.918       58.875       25.964        0.145        0.008       51.290        3.980        0.006      329.895       -3.078      879.138
01/14/2014  07:16:00      -23.841       -6.029       -3.846        8.618        7.073        5.989       74.274       50.027       35.862        0.039        0.008       24.592        3.705        0.023      330.011       -2.889      879.152
01/14/2014  07:17:00        6.804        2.386       -4.957       13.757        9.552        4.386      189.266       91.236       19.234        0.019        0.015        7.210        5.865        0.662      330.316       -2.389      879.171
01/14/2014  07:18:00       21.716        6.719       -1.212        7.559        6.666        4.656       57.131       44.431       21.683        0.032        0.006       22.731        4.190        0.034      330.459       -2.154      879.188
01/14/2014  07:19:00      -15.792       -0.621        1.780       20.342        8.890        4.714      413.784       79.041       22.218        0.038        0.026       15.804        5.423        0.118      330.200       -2.580      879.192
01/14/2014  07:20:00      -31.590       -3.774       -5.853        7.584        8.176        6.131       57.512       66.851       37.588        0.060        0.008       31.814        3.916        0.015      329.878       -3.105      879.197
01/14/2014  07:21:00      -21.088       12.749       -5.159        8.776       10.615        5.259       77.017      112.685       27.661        0.043        0.011       24.642        4.924        0.040      330.006       -2.897      879.198
01/14/2014  07:22:00       11.525       17.934        3.621        6.818        5.092        6.283       46.484       25.930       39.480        0.029        0.006       21.318        3.659        0.029      330.523       -2.054      879.198
01/14/2014  07:23:00        5.172       13.303        6.848       11.180        8.812        6.116      124.992       77.650       37.406        0.025        0.012       14.273        5.920        0.172      330.370       -2.301      879.202
01/14/2014  07:24:00       11.481        8.887        7.966        7.667        8.930        8.942       58.785       79.737       79.967        0.025        0.011       14.519        6.066        0.175      330.394       -2.262      879.210
01/14/2014  07:25:00      -20.540        4.514        4.082       12.423       12.776       10.115      154.320      163.215      102.310        0.044        0.021       21.030        4.871        0.054      330.176       -2.618      879.215
01/14/2014  07:26:00      -48.099      -20.457       -5.253       13.534        8.463        8.444      183.159       71.616       71.309        0.154        0.016       52.269        3.281        0.004      329.867       -3.127      879.230
01/14/2014  07:27:00      -55.204      -11.197       -7.001       13.388        9.028        7.103      179.231       81.507       50.455        0.177        0.016       56.328        2.973        0.003      329.768       -3.288      879.254
01/14/2014  07:28:00      -59.378      -14.381      -12.160       10.374        7.340        6.836      107.625       53.869       46.737        0.204        0.010       61.095        3.624        0.004      329.899       -3.072      879.273
01/14/2014  07:29:00      -56.483       -3.034      -12.124        7.793        9.449        6.301       60.727       89.275       39.699        0.177        0.009       56.564        5.197        0.008      329.944       -2.999      879.292
01/14/2014  07:30:00      -74.914        0.529      -16.605       16.624        7.130        8.504      276.362       50.840       72.318        0.314        0.020       74.916        6.493        0.008      329.882       -3.099      879.305
01/14/2014  07:31:00      -85.658        2.387      -15.884       14.047       11.257       10.955      197.330      126.724      120.004        0.402        0.022       85.691        4.023        0.002      329.751       -3.314      879.315
01/14/2014  07:32:00      -53.433       -2.235       -6.887       20.351       11.175       13.503      414.174      124.889      182.324        0.181        0.036       53.480       13.476        0.063      329.770       -3.285      879.330
01/14/2014  07:33:00      -44.698       -9.538      -12.733       11.348        9.405        6.366      128.770       88.457       40.529        0.125        0.013       45.704        7.380        0.026      329.831       -3.184      879.342
01/14/2014  07:34:00      -23.592      -18.735      -11.047        8.281       11.317        5.123       68.573      128.066       26.250        0.063        0.011       30.127        2.156        0.005      330.080       -2.777      879.358
01/14/2014  07:35:00      -16.182       -4.581       -2.352        8.400        6.335        7.702       70.562       40.126       59.320        0.023        0.009       16.818        5.810        0.119      330.117       -2.717      879.374
01/14/2014  07:36:00      -26.128      -15.010       -6.576        7.136        5.990        5.308       50.925       35.886       28.174        0.053        0.006       30.133        1.391        0.002      329.995       -2.915      879.392
01/14/2014  07:37:00      -30.153      -18.006       -6.926       10.266        8.812        7.309      105.394       77.648       53.428        0.076        0.012       35.120        4.146        0.014      329.951       -2.987      879.409
01/14/2014  07:38:00      -21.697       -8.952       -6.705       10.724        7.953        6.633      115.005       63.258       43.993        0.041        0.011       23.471        6.101        0.068      329.904       -3.064      879.424
01/14/2014  07:39:00      -26.062       -9.604       -1.649        7.672        9.035        7.897       58.862       81.625       62.365        0.049        0.010       27.775        3.516        0.016      329.970       -2.956      879.437
01/14/2014  07:40:00      -45.929      -19.619       -3.180       16.180        5.475        5.188      261.781       29.971       26.918        0.141        0.016       49.944        6.439        0.017      329.887       -3.093      879.438
01/14/2014  07:41:00      -64.968      -17.933       -8.051        8.021        8.428        7.041       64.343       71.024       49.573        0.240        0.009       67.397        3.888        0.003      329.776       -3.276      879.447
01/14/2014  07:42:00      -77.460       -5.769      -13.168       13.485       14.558        8.799      181.837      211.937       77.417        0.334        0.024       77.675        2.257        0.001      329.717       -3.371      879.448
01/14/2014  07:43:00      -87.503       -4.509      -12.541       15.164       11.620        9.500      229.959      135.023       90.249        0.414        0.023       87.619        6.672        0.006      329.658       -3.468      879.456
01/14/2014  07:44:00      -84.328       -4.466      -12.363       25.007       11.865       13.264      625.371      140.772      175.929        0.411        0.047       84.447       13.096        0.024      329.624       -3.523      879.460
01/14/2014  07:45:00      -62.291       -7.735       -8.677       21.142       17.245        9.529      446.993      297.385       90.803        0.243        0.042       62.770        9.301        0.022      329.619       -3.531      879.462
01/14/2014  07:46:00      -35.007      -18.526       -4.895       20.411       16.440        8.763      416.610      270.288       76.782        0.118        0.038       39.607        7.102        0.032      329.720       -3.363      879.467
01/14/2014  07:47:00      -44.872      -14.615       -8.713       24.800       19.295       11.352      615.053      372.288      128.875        0.171        0.056       47.192       11.092        0.055      329.820       -3.201      879.483
01/14/2014  07:48:00      -44.246       -6.172       -6.789       21.550       16.031       10.446      464.403      256.995      109.125        0.144        0.042       44.675        9.722        0.047      329.819       -3.203      879.502
01/14/2014  07:49:00      -44.029      -16.658       -3.386       26.017       26.465       16.754      676.872      700.376      280.688        0.194        0.083       47.074       14.245        0.092      329.931       -3.021      879.510
01/14/2014  07:50:00      -49.271       -8.396        3.712       34.134       22.075       18.000     1165.130      487.318      324.002        0.224        0.099       49.982       19.914        0.159      330.011       -2.890      879.537
01/14/2014  07:51:00      -58.645       -5.558        2.478       33.568       26.597       19.570     1126.843      707.405      382.984        0.285        0.111       58.908       19.343        0.108      329.943       -3.000      879.560
01/14/2014  07:52:00      -70.910       -3.639       -8.793       28.168       22.389       15.854      793.418      501.248      251.343        0.333        0.077       71.003       13.321        0.035      329.982       -2.937      879.589
01/14/2014  07:53:00      -57.361        4.222       -5.188       26.742       19.499       15.167      715.125      380.206      230.026        0.233        0.066       57.516       12.774        0.049      330.023       -2.869      879.623
01/14/2014  07:54:00      -66.452        5.708       -6.214       38.453       24.699       19.222     1478.657      610.018      369.501        0.347        0.123       66.697       17.907        0.072      330.075       -2.784      879.642
01/14/2014  07:55:00      -47.620       -0.846       -7.106       20.668       23.607       15.112      427.158      557.279      228.365        0.177        0.061       47.628        9.686        0.041      330.132       -2.692      879.672
01/14/2014  07:56:00      -60.150      -25.893       -1.886       25.155       19.455       11.918      632.793      378.503      142.043        0.272        0.058       65.486       11.299        0.030      330.128       -2.698      879.687
01/14/2014  07:57:00      -85.027      -16.115       -5.658       32.895       20.918       15.375     1082.078      437.570      236.385        0.464        0.088       86.540       13.932        0.026      330.150       -2.661      879.685
01/14/2014  07:58:00     -130.092       -3.440       -7.804       22.419       17.270       14.476      502.623      298.239      209.544        0.900        0.051      130.137       11.942        0.008      330.115       -2.719      879.694
01/14/2014  07:59:00     -104.587      -11.083       -1.799       25.416       21.789       17.076      645.965      474.740      291.600        0.624        0.071      105.172       14.228        0.018      330.123       -2.706      879.696
01/14/2014  08:00:00      -60.126      -20.961        3.883       25.039       20.210       14.156      626.950      408.444      200.400        0.265        0.062       63.675       11.127        0.031      330.193       -2.590      879.698
01/14/2014  08:01:00      -61.023      -18.012        2.334       23.873       20.165       11.233      569.930      406.610      126.182        0.258        0.055       63.626       11.129        0.031      330.334       -2.361      879.709
01/14/2014  08:02:00      -77.488      -26.746       -1.474       22.290       27.018       10.961      496.832      729.968      120.135        0.403        0.067       81.974        9.478        0.013      330.403       -2.247      879.718
01/14/2014  08:03:00      -90.681      -34.761       -0.084       24.328       21.376       14.425      591.852      456.942      208.082        0.534        0.063       97.116       13.501        0.019      330.469       -2.139      879.715
01/14/2014  08:04:00     -109.418      -39.112       -0.834       25.470       19.907       14.533      648.698      396.308      211.212        0.738        0.063      116.199       11.837        0.010      330.522       -2.051      879.698
01/14/2014  08:05:00     -125.033      -28.423      -10.331       20.780       19.351       13.265      431.820      374.473      175.964        0.876        0.049      128.223       10.551        0.007      330.495       -2.097      879.675
01/14/2014  08:06:00     -109.136      -18.875       -8.757       23.454       20.300       15.074      550.096      412.075      227.225        0.677        0.059      110.756       12.224        0.012      330.444       -2.179      879.680
01/14/2014  08:07:00     -105.893        2.074       -6.748       33.758       21.897       18.253     1139.612      479.482      333.186        0.661        0.098      105.913       18.792        0.031      330.525       -2.045      879.688
01/14/2014  08:08:00     -110.921        2.741       -3.678       30.830       18.995       18.140      950.470      360.816      329.073        0.698        0.082      110.955       15.970        0.021      330.528       -2.041      879.700
01/14/2014  08:09:00     -104.259        2.479       -6.885       21.103       17.758       13.669      445.336      315.349      186.849        0.594        0.047      104.288        8.663        0.007      330.582       -1.954      879.700
01/14/2014  08:10:00     -102.615       14.381      -10.742       34.443       18.773       15.995     1186.317      352.427      255.836        0.632        0.090      103.618       15.364        0.022      330.659       -1.826      879.710
01/14/2014  08:11:00     -111.245        4.381      -11.708       18.422       15.077       10.088      339.359      227.310      101.774        0.660        0.033      111.331        7.802        0.005      330.700       -1.762      879.718
01/14/2014  08:12:00     -119.617       -2.878      -11.958       13.301       14.370        9.926      176.918      206.508       98.532        0.747        0.024      119.652        6.847        0.003      330.742       -1.691      879.726
01/14/2014  08:13:00     -104.007       -8.879       -7.133       23.874       17.360       16.710      569.955      301.383      279.220        0.605        0.058      104.385       14.743        0.020      330.766       -1.651      879.725
01/14/2014  08:14:00     -104.424        5.615       -8.568       23.046       14.397       10.287      531.121      207.272      105.830        0.593        0.042      104.575       11.391        0.012      330.775       -1.637      879.732
01/14/2014  08:15:00      -84.665       -9.002       -3.957       27.871       20.553       16.194      776.804      422.415      262.262        0.436        0.073       85.142       14.355        0.028      330.812       -1.575      879.741
01/14/2014  08:16:00      -82.621       -4.127       -5.686       27.863       19.869       18.684      776.349      394.770      349.107        0.420        0.076       82.724       16.298        0.039      330.845       -1.521      879.745
01/14/2014  08:17:00      -90.953       -0.202       -7.313       24.964       18.478       13.232      623.219      341.427      175.095        0.473        0.057       90.953       11.077        0.015      330.845       -1.523      879.756
01/14/2014  08:18:00      -78.050        0.812       -8.541       20.940       12.637       12.471      438.499      159.686      155.529        0.346        0.038       78.054       11.437        0.021      330.908       -1.417      879.790
01/14/2014  08:19:00      -63.446        0.120      -11.782       16.936       11.725       10.606      286.815      137.472      112.480        0.235        0.027       63.446        7.877        0.015      330.956       -1.339      879.817
01/14/2014  08:20:00      -52.550       11.783       -4.101       15.121        8.374        8.323      228.651       70.125       69.273        0.164        0.018       53.854        8.162        0.023      330.989       -1.286      879.845
01/14/2014  08:21:00      -51.844       14.487       -1.556        8.065       10.145        5.913       65.051      102.922       34.962        0.155        0.010       53.830        3.954        0.005      331.044       -1.196      879.852
01/14/2014  08:22:00      -16.877       -1.874       -1.023       11.758       10.312        8.501      138.244      106.335       72.260        0.030        0.016       16.980        6.907        0.165      331.251       -0.856      879.865
01/14/2014  08:23:00      -24.834       13.372       -2.903        9.363        8.620        8.689       87.663       74.298       75.491        0.052        0.012       28.206        4.586        0.026      331.202       -0.934      879.883
01/14/2014  08:24:00      -26.433        1.088       -1.641        7.659        6.960        8.116       58.663       48.437       65.865        0.044        0.009       26.455        2.270        0.007      331.234       -0.883      879.889
01/14/2014  08:25:00      -38.237      -17.273       -3.136       15.605       13.476        7.556      243.527      181.612       57.089        0.113        0.024       41.957        6.239        0.022      331.222       -0.902      879.890
01/14/2014  08:26:00      -40.282      -12.209       -1.055        8.777        9.060        8.199       77.044       82.082       67.216        0.100        0.011       42.091        4.803        0.013      331.239       -0.874      879.890
01/14/2014  08:27:00      -57.859      -27.031        0.339       18.980       22.584       17.825      360.236      510.039      317.725        0.263        0.059       63.862       17.153        0.072      331.218       -0.908      879.897
01/14/2014  08:28:00      -42.122       12.571       14.222       30.849       26.171       22.407      951.647      684.901      502.077        0.214        0.107       43.958       23.991        0.298      331.327       -0.728      879.906
01/14/2014  08:29:00      -21.508       -5.027       15.801       28.299       33.764       24.271      800.825     1139.974      589.074        0.163        0.126       22.088       22.696        1.056      331.516       -0.417      879.912
01/14/2014  08:30:00      -25.409      -31.354        5.176       27.044       19.850       14.947      731.385      394.035      223.428        0.150        0.067       40.357        8.935        0.049      331.327       -0.729      879.923
01/14/2014  08:31:00      -22.513      -16.448        3.105       17.432       25.183       15.563      303.871      634.166      242.220        0.098        0.059       27.881       13.912        0.249      331.567       -0.336      879.927
01/14/2014  08:32:00      -29.152      -12.572       -0.495       11.048        8.768        9.384      122.068       76.883       88.058        0.065        0.014       31.747        4.814        0.023      331.427       -0.565      879.934
01/14/2014  08:33:00      -30.077      -37.654       -5.364       18.723       19.271       10.391      350.562      371.355      107.966        0.159        0.041       48.192        8.172        0.029      331.348       -0.695      879.943
01/14/2014  08:34:00      -29.288      -26.399       -5.072       18.809       15.075        9.533      353.792      227.243       90.886        0.113        0.034       39.429        7.611        0.037      331.478       -0.479      879.956
01/14/2014  08:35:00       -2.607       -6.945       11.784        6.869       11.750       11.656       47.185      138.073      135.872        0.026        0.016        7.418        7.621        1.055      331.931        0.265      879.966
01/14/2014  08:36:00       -9.302       -5.485       -1.331        9.860        6.183        6.867       97.222       38.231       47.158        0.015        0.009       10.799        6.522        0.365      331.721       -0.082      879.984
01/14/2014  08:37:00        0.152       -0.531       17.237        6.512        5.023        6.771       42.405       25.228       45.845        0.021        0.006        0.552        2.146       15.107      332.372        0.992      879.993
01/14/2014  08:38:00       -5.269        2.898       24.032        6.431        6.530        6.375       41.359       42.644       40.637        0.037        0.006        6.014        4.796        0.636      332.598        1.364      879.991
01/14/2014  08:39:00       -8.003       15.488       32.925        6.676       14.696        8.673       44.569      215.979       75.215        0.086        0.017       17.434        6.068        0.121      332.238        0.769      879.990
01/14/2014  08:40:00       -6.574        1.133       17.088        6.597        6.034        8.131       43.525       36.411       66.121        0.024        0.007        6.671        5.411        0.658      332.438        1.102      879.989
01/14/2014  08:41:00      -10.550        7.575       19.053       10.144        9.658        9.785      102.891       93.274       95.754        0.041        0.015       12.988        7.114        0.300      332.124        0.583      879.988
01/14/2014  08:42:00      -22.539       -0.479       12.481        8.123        8.003        6.882       65.980       64.048       47.369        0.042        0.009       22.544        4.626        0.042      331.867        0.160      879.985
01/14/2014  08:43:00      -13.644       -4.786        8.045       12.696       14.683       14.891      161.187      215.604      221.745        0.044        0.030       14.458       10.376        0.515      332.030        0.428      879.982
01/14/2014  08:44:00       -1.858       14.533       31.432       21.922       23.492       18.309      480.580      551.875      335.216        0.128        0.068       14.651       12.813        0.765      332.273        0.829      879.990
01/14/2014  08:45:00       60.097       26.084       15.206       28.385       21.740       18.926      805.732      472.639      358.209        0.308        0.082       65.514       15.791        0.058      331.897        0.208      880.004
01/14/2014  08:46:00       58.502       31.815        2.349       23.204       17.263       20.532      538.429      298.000      421.548        0.285        0.063       66.593       13.651        0.042      331.741       -0.049      880.016
01/14/2014  08:47:00       68.365       44.964       -1.352       18.347       21.849       15.991      336.608      477.389      255.697        0.388        0.053       81.827        7.358        0.008      331.625       -0.239      880.031
01/14/2014  08:48:00       51.495       27.856       -0.024       25.313       25.416       19.617      640.770      645.983      384.837        0.255        0.084       58.547        8.322        0.020      331.687       -0.138      880.042
01/14/2014  08:49:00       44.261       50.565       39.804       33.405       28.157       28.906     1115.900      792.838      835.584        0.442        0.137       67.200       20.103        0.089      331.969        0.327      880.038
01/14/2014  08:50:00       61.166       60.978       57.349       34.097       24.421       33.325     1162.574      596.383     1110.549        0.681        0.143       86.369       20.838        0.058      331.739       -0.050      880.045
01/14/2014  08:51:00       87.760       34.369        4.578       25.170       20.416       18.953      633.527      416.824      359.210        0.516        0.070       94.250        8.232        0.008      331.623       -0.241      880.035
01/14/2014  08:52:00       40.815       27.875       14.684       22.239       25.963       17.702      494.590      674.083      313.368        0.207        0.074       49.425        7.239        0.021      331.891        0.198      880.030
01/14/2014  08:53:00       44.631       59.671       12.810       24.627       23.930       20.503      606.491      572.646      420.388        0.366        0.080       74.515       13.185        0.031      332.019        0.411      880.032
01/14/2014  08:54:00       -2.193       -3.386       42.948       17.353       30.474       20.324      301.136      928.637      413.047        0.175        0.082        4.034       10.423        6.677      332.488        1.183      880.051
01/14/2014  08:55:00       -5.387       41.524       73.313       20.980       34.212       19.234      440.144     1170.443      369.961        0.455        0.099       41.872       21.374        0.261      332.272        0.826      880.069
01/14/2014  08:56:00        3.795       38.009       59.479       21.074       22.274       13.455      444.104      496.145      181.042        0.306        0.056       38.198       13.930        0.133      332.166        0.652      880.087
01/14/2014  08:57:00       20.279       45.349       56.582       19.148       27.647       14.746      366.651      764.349      217.443        0.351        0.067       49.677       16.239        0.107      332.084        0.518      880.101
01/14/2014  08:58:00        1.771       29.086       50.472       17.949       35.016       26.975      322.168     1226.085      727.631        0.284        0.114       29.139       22.743        0.609      332.329        0.921      880.096
01/14/2014  08:59:00       38.230       59.940       55.799       27.525       30.529       22.273      757.600      932.006      496.085        0.518        0.109       71.094       17.206        0.059      332.044        0.451      880.096
01/14/2014  09:00:00       25.560       46.344       60.661       37.013       38.775       28.830     1369.955     1503.464      831.164        0.509        0.185       52.925       24.310        0.211      332.251        0.791      880.092
01/14/2014  09:01:00       45.617       55.085       55.180       32.206       33.894       24.447     1037.204     1148.810      597.669        0.547        0.139       71.522       21.755        0.093      332.056        0.472      880.098
01/14/2014  09:02:00       21.305       49.766       62.255       27.669       30.536       19.450      765.552      932.435      378.295        0.444        0.104       54.134       15.307        0.080      332.244        0.781      880.106
01/14/2014  09:03:00       37.032       80.572       68.498       45.261       29.846       32.207     2048.563      890.787     1037.310        0.827        0.199       88.675       33.853        0.146      332.107        0.555      880.120
01/14/2014  09:04:00        3.705       23.927       46.997       34.991       48.354       39.031     1224.337     2338.136     1523.380        0.394        0.254       24.213       39.826        2.705      332.374        0.995      880.123
01/14/2014  09:05:00       16.933       34.719       49.182       38.319       34.237       33.111     1468.371     1172.192     1096.363        0.382        0.187       38.628       29.476        0.582      332.366        0.982      880.127
01/14/2014  09:06:00       66.979       72.850       63.149       41.187       31.911       31.625     1696.409     1018.309     1000.149        0.875        0.186       98.961       24.235        0.060      332.183        0.680      880.122
01/14/2014  09:07:00       65.288       47.463       64.367       27.062       40.009       28.191      732.342     1600.751      794.719        0.689        0.156       80.717       27.199        0.114      332.219        0.739      880.122
01/14/2014  09:08:00       19.607       77.320       85.727       40.659       44.311       36.099     1653.185     1963.426     1303.123        0.931        0.246       79.767       36.936        0.214      332.426        1.081      880.116
01/14/2014  09:09:00       23.821       72.540       82.716       33.542       37.111       23.908     1125.081     1377.222      571.609        0.787        0.154       76.351       24.552        0.103      332.439        1.102      880.110
01/14/2014  09:10:00       22.147        2.038       56.541       30.325       35.502       30.704      919.604     1260.410      942.726        0.341        0.156       22.240       17.231        0.600      332.708        1.547      880.118
01/14/2014  09:11:00       46.358       77.208       92.434       44.155       44.902       21.572     1949.622     2016.223      465.360        1.054        0.222       90.057       19.100        0.045      332.516        1.231      880.130
01/14/2014  09:12:00       95.890       63.077       38.815       42.007       39.035       39.268     1764.591     1523.714     1541.998        0.975        0.242      114.776       24.788        0.047      332.194        0.699      880.137
01/14/2014  09:13:00       96.894       87.092       55.599       46.110       31.006       41.487     2126.170      961.360     1721.192        1.244        0.240      130.282       35.274        0.073      332.375        0.997      880.140
01/14/2014  09:14:00       22.529       70.065       79.747       38.280       40.709       40.972     1465.390     1657.194     1678.702        0.829        0.240       73.598       39.125        0.283      332.446        1.112      880.141
01/14/2014  09:15:00       52.619       82.398       81.609       54.674       45.721       34.504     2989.221     2090.455     1190.547        1.124        0.314       97.766       24.089        0.061      332.387        1.016      880.137
01/14/2014  09:16:00        7.387       54.732       71.996       29.139       49.098       22.991      849.076     2410.628      528.571        0.601        0.189       55.228       24.317        0.194      332.654        1.458      880.135
01/14/2014  09:17:00        2.931       73.836       89.131       23.595       33.464       21.029      556.720     1119.816      442.203        0.776        0.106       73.894       19.927        0.073      332.669        1.482      880.136
01/14/2014  09:18:00      109.353       77.403       23.298       28.237       19.386       30.003      797.349      375.825      900.202        1.028        0.104      133.975        9.859        0.005      332.378        1.002      880.152
01/14/2014  09:19:00       62.626       73.028       40.351       53.793       35.778       45.772     2893.673     1280.063     2095.054        0.857        0.313       96.203       37.643        0.153      332.737        1.595      880.158
01/14/2014  09:20:00       64.218       83.904       36.260       70.181       56.333       36.001     4925.392     3173.455     1296.037        1.093        0.470      105.659       39.929        0.143      332.701        1.535      880.168
01/14/2014  09:21:00       -0.183       32.396       52.646       43.434       37.099       26.071     1886.536     1376.323      679.717        0.388        0.197       32.396       20.644        0.406      333.099        2.192      880.180
01/14/2014  09:22:00       47.053       39.150       25.282       42.113       38.357       38.328     1773.486     1471.245     1469.039        0.455        0.236       61.211       23.008        0.141      332.858        1.794      880.188
01/14/2014  09:23:00       71.810       78.666       11.368       55.867       30.653       35.693     3121.131      939.587     1273.972        0.840        0.267      106.513       17.331        0.026      332.681        1.503      880.181
01/14/2014  09:24:00      124.088       80.527        2.953       33.524       26.483       30.203     1123.890      701.361      912.199        1.231        0.137      147.928       11.127        0.006      332.233        0.761      880.179
01/14/2014  09:25:00       82.004       69.009       37.382       36.892       30.084       31.006     1361.047      905.064      961.394        0.806        0.161      107.177       19.658        0.034      332.488        1.184      880.169
01/14/2014  09:26:00       97.057       82.888       -1.603       33.516       34.082       25.322     1123.345     1161.550      641.224        0.961        0.146      127.634       13.686        0.011      332.462        1.139      880.164
01/14/2014  09:27:00      101.414       98.876        7.322       27.453       30.549       27.410      753.641      933.257      751.306        1.128        0.122      141.638       12.010        0.007      332.326        0.917      880.149
01/14/2014  09:28:00       19.313       45.759       72.521       29.101       35.286       23.556      846.885     1245.089      554.862        0.519        0.132       49.668       13.257        0.071      333.018        2.058      880.151
01/14/2014  09:29:00        8.344       75.836       78.910       36.676       32.944       38.282     1345.160     1085.301     1465.491        0.797        0.195       76.294       29.779        0.152      332.923        1.901      880.151
01/14/2014  09:30:00       41.254       52.000       54.557       55.870       38.450       27.772     3121.510     1478.374      771.257        0.638        0.269       66.376       18.286        0.076      332.926        1.907      880.164
01/14/2014  09:31:00       18.137       45.013       45.830       30.007       39.761       35.234      900.418     1580.939     1241.415        0.409        0.186       48.529       25.702        0.280      332.979        1.993      880.164
01/14/2014  09:32:00       27.270       98.627      100.200       38.491       31.688       22.339     1481.588     1004.123      499.037        1.175        0.149      102.327       18.303        0.032      332.619        1.399      880.161
01/14/2014  09:33:00       92.456      105.393       75.656       41.395       26.713       45.729     1713.587      713.565     2091.165        1.495        0.226      140.199       32.810        0.055      332.477        1.164      880.168
01/14/2014  09:34:00      112.444       68.184       24.567       22.046       22.958       32.236      486.046      527.062     1039.180        0.997        0.103      131.502       16.894        0.017      332.380        1.006      880.175
01/14/2014  09:35:00       24.466       89.676       82.504       42.367       42.425       40.148     1794.949     1799.875     1611.901        1.033        0.260       92.954       38.774        0.174      332.659        1.464      880.178
01/14/2014  09:36:00       87.459       92.852       63.648       33.400       25.136       35.864     1115.572      631.823     1286.200        1.168        0.152      127.556       18.534        0.021      332.514        1.226      880.179
01/14/2014  09:37:00       60.298       69.263       62.602       32.095       29.730       26.718     1030.089      883.880      713.848        0.749        0.131       91.833        8.188        0.008      332.594        1.358      880.173
01/14/2014  09:38:00       70.908       82.684       63.422       59.443       37.081       39.133     3533.419     1375.027     1531.413        1.116        0.322      108.924       36.176        0.110      332.756        1.626      880.162
01/14/2014  09:39:00       24.673      -15.568       50.646       34.991       53.324       33.334     1224.346     2843.443     1111.140        0.430        0.259       29.174       26.479        0.824      332.977        1.991      880.167
01/14/2014  09:40:00       29.777       -1.260       53.032       31.271       68.048       36.172      977.878     4630.580     1308.413        0.531        0.346       29.803       37.023        1.543      333.111        2.213      880.164
01/14/2014  09:41:00       85.394       73.584       31.400       30.927       32.074       35.843      956.475     1028.765     1284.754        0.848        0.163      112.724       22.079        0.038      332.632        1.421      880.166
01/14/2014  09:42:00       54.895       81.882       70.438       59.900       37.289       33.715     3587.977     1390.475     1136.684        1.040        0.306       98.581       36.609        0.138      332.738        1.597      880.169
01/14/2014  09:43:00       58.085       53.987       39.780       36.400       36.933       24.787     1324.990     1364.014      614.374        0.559        0.165       79.300       17.775        0.050      332.673        1.488      880.177
01/14/2014  09:44:00      100.968       60.999       41.549       33.461       25.184       43.808     1119.610      634.238     1919.131        0.966        0.184      117.963       24.551        0.043      332.740        1.600      880.183
01/14/2014  09:45:00       66.832       60.577       31.504       38.131       28.295       35.422     1453.998      800.622     1254.733        0.632        0.175       90.200       22.559        0.063      332.863        1.803      880.179
01/14/2014  09:46:00       59.392       63.462       41.425       34.187       24.692       20.653     1168.750      609.677      426.563        0.574        0.110       86.918       12.252        0.020      332.919        1.896      880.184
01/14/2014  09:47:00       53.040       69.872        4.463       25.515       25.971       23.161      650.993      674.511      536.416        0.479        0.093       87.723       17.207        0.038      332.812        1.719      880.171
01/14/2014  09:48:00       53.898       40.770       20.120       36.614       24.481       27.106     1340.569      599.318      734.750        0.382        0.134       67.581       21.754        0.104      333.180        2.326      880.152
01/14/2014  09:49:00       16.143       33.856       13.259       27.851       21.402       20.089      775.668      458.026      403.568        0.161        0.082       37.507       12.582        0.113      333.383        2.662      880.151
01/14/2014  09:50:00       -5.285       23.225       23.903       16.845       26.071       27.947      283.742      679.701      781.011        0.144        0.087       23.819        9.482        0.158      333.692        3.172      880.147
01/14/2014  09:51:00        5.174       10.403       50.589       19.250       33.232       23.965      370.581     1104.376      574.340        0.237        0.102       11.618       20.088        2.989      333.707        3.198      880.147
01/14/2014  09:52:00       52.014       14.822       36.388       42.382       46.960       40.896     1796.257     2205.224     1672.449        0.496        0.284       54.085       41.796        0.597      333.146        2.271      880.156
01/14/2014  09:53:00       51.681       72.349       59.640       43.508       38.297       34.847     1892.911     1466.659     1214.328        0.802        0.229       88.911       23.578        0.070      333.190        2.344      880.171
01/14/2014  09:54:00       54.033       -5.368       30.631       37.683       53.331       37.330     1420.005     2844.195     1393.549        0.477        0.283       54.299       34.126        0.395      333.313        2.545      880.195
01/14/2014  09:55:00       69.450      -41.218        6.261       43.370       39.007       25.124     1880.964     1521.539      631.195        0.530        0.202       80.760       18.736        0.054      333.184        2.333      880.207
01/14/2014  09:56:00       24.505       18.899       31.850       38.979       55.302       20.467     1519.346     3058.334      418.885        0.348        0.250       30.946       24.390        0.621      333.402        2.693      880.210
01/14/2014  09:57:00       42.399       81.005       63.488       41.301       31.789       28.785     1705.759     1010.515      828.579        0.797        0.177       91.430       15.020        0.027      333.461        2.792      880.216
01/14/2014  09:58:00       62.048       93.264       68.293       59.225       43.168       51.387     3507.626     1863.450     2640.672        1.261        0.401      112.018       48.443        0.187      333.264        2.463      880.231
01/14/2014  09:59:00      105.540       90.261       50.803       34.846       25.464       37.733     1214.219      648.424     1423.776        1.258        0.164      138.873       16.671        0.014      333.163        2.299      880.227
01/14/2014  10:00:00       58.898       65.875       43.412       54.560       38.057       30.730     2976.805     1448.355      944.355        0.753        0.268       88.366       15.973        0.033      333.358        2.620      880.230
01/14/2014  10:01:00       15.932       59.413       62.155       33.730       51.753       33.393     1137.679     2678.366     1115.104        0.629        0.247       61.512       31.622        0.264      333.732        3.240      880.226
01/14/2014  10:02:00       30.557       83.997       80.042       32.261       40.428       31.997     1040.753     1634.420     1023.800        0.905        0.185       89.382       21.412        0.057      333.259        2.456      880.211
01/14/2014  10:03:00       30.166       67.614       66.632       36.696       31.787       28.535     1346.629     1010.397      814.228        0.655        0.159       74.038       22.561        0.093      333.432        2.744      880.194
01/14/2014  10:04:00       22.779       72.466       84.532       44.500       46.243       26.799     1980.225     2138.416      718.210        0.888        0.242       75.962       24.928        0.108      333.678        3.151      880.177
01/14/2014  10:05:00       27.450       39.456       67.996       34.761       51.576       21.627     1208.331     2660.135      467.745        0.563        0.217       48.066       23.878        0.247      333.633        3.077      880.173
01/14/2014  10:06:00       42.978       51.247       41.432       46.034       30.397       41.366     2119.113      924.005     1711.157        0.547        0.238       66.883       35.034        0.274      333.335        2.582      880.161
01/14/2014  10:07:00       14.686       57.303       67.419       31.590       24.573       23.865      997.918      603.835      569.555        0.511        0.109       59.155       12.966        0.048      333.796        3.347      880.157
01/14/2014  10:08:00       17.968       13.739       62.193       27.565       62.157       25.760      759.846     3863.463      663.556        0.483        0.264       22.619       30.914        1.868      333.794        3.344      880.144
01/14/2014  10:09:00       95.089       75.248       43.596       55.140       40.304       39.701     3040.392     1624.397     1576.194        1.142        0.312      121.261       40.500        0.112      333.324        2.565      880.144
01/14/2014  10:10:00       81.672       98.028       28.907       46.149       35.600       40.638     2129.714     1267.379     1651.457        1.108        0.252      127.592       14.759        0.013      333.512        2.875      880.138
01/14/2014  10:11:00        8.914       51.932       62.445       32.488       65.161       62.672     1055.469     4245.892     3927.778        0.795        0.461       52.691       48.985        0.864      333.854        3.442      880.134
01/14/2014  10:12:00       84.740       91.301       54.561       38.886       30.371       37.687     1512.102      922.382     1420.329        1.117        0.193      124.566       28.690        0.053      333.399        2.687      880.139
01/14/2014  10:13:00       80.172       57.962       15.847       24.560       25.260       25.786      603.207      638.089      664.897        0.597        0.095       98.930       13.381        0.018      333.309        2.539      880.122
01/14/2014  10:14:00       90.885       85.258       16.036       24.853       24.616       26.845      617.695      605.934      720.663        0.886        0.097      124.615       16.252        0.017      333.452        2.777      880.106
01/14/2014  10:15:00       80.042       55.239        1.948       42.755       32.107       31.740     1827.966     1030.877     1007.446        0.666        0.193       97.253       17.310        0.032      333.765        3.293      880.099
01/14/2014  10:16:00       73.547       57.976        0.024       49.170       23.917       32.854     2417.669      572.020     1079.366        0.642        0.203       93.651       14.967        0.026      333.862        3.455      880.098
01/14/2014  10:17:00      102.696       63.504       15.379       32.789       31.135       28.560     1075.101      969.374      815.656        0.884        0.143      120.744        9.900        0.007      333.515        2.880      880.099
01/14/2014  10:18:00       38.186       63.727       10.344       47.215       27.101       21.154     2229.238      734.486      447.502        0.452        0.171       74.292       16.086        0.047      333.663        3.125      880.087
01/14/2014  10:19:00       32.646       32.065       15.278       44.378       47.265       27.165     1969.364     2233.976      737.923        0.363        0.247       45.759       19.543        0.182      334.091        3.835      880.073
01/14/2014  10:20:00       -7.730       18.433       17.990       25.490       25.732       22.742      649.715      662.154      517.201        0.128        0.091       19.988       16.411        0.674      334.253        4.103      880.062
01/14/2014  10:21:00       15.186       15.537       43.931       28.039       23.431       19.363      786.180      549.023      374.908        0.206        0.086       21.726       12.806        0.347      334.229        4.064      880.033
01/14/2014  10:22:00       39.921       41.835       10.699       32.889       38.859       26.852     1081.666     1510.044      721.028        0.338        0.166       57.826       22.694        0.154      334.113        3.872      880.014
01/14/2014  10:23:00       97.130       49.203        2.166       33.883       26.589       24.445     1148.042      706.978      597.544        0.716        0.123      108.881       14.024        0.017      333.698        3.183      880.010
01/14/2014  10:24:00       53.925       37.956       -6.105       33.482       19.181       26.910     1121.041      367.925      724.162        0.330        0.111       65.944       20.304        0.095      333.719        3.218      880.004
01/14/2014  10:25:00       20.998       49.518       19.411       30.763       38.753       29.378      946.333     1501.816      863.045        0.329        0.166       53.786       29.215        0.295      334.227        4.060      879.987
01/14/2014  10:26:00        7.892       42.289       12.448       20.849       25.302       24.566      434.692      640.202      603.470        0.184        0.084       43.019       21.832        0.258      334.250        4.099      879.986
01/14/2014  10:27:00      -11.990       53.690        0.448       16.055       35.816       31.141      257.779     1282.751      969.771        0.277        0.126       55.012       26.236        0.227      334.110        3.866      879.985
01/14/2014  10:28:00       23.397       26.008       21.939       20.095       17.452       21.550      403.808      304.583      464.389        0.144        0.059       34.984       16.447        0.221      334.166        3.960      879.983
01/14/2014  10:29:00       13.794       15.736       17.324       24.513       15.860       23.082      600.884      251.552      532.795        0.106        0.069       20.926       10.958        0.274      334.563        4.619      879.983
01/14/2014  10:30:00       48.230       52.066       16.249       37.289       25.923       26.315     1390.454      672.003      692.502        0.403        0.138       70.971       15.863        0.050      334.299        4.181      879.975
01/14/2014  10:31:00       11.797       44.834        6.805       37.807       43.889       29.690     1429.345     1926.237      881.474        0.322        0.212       46.360       22.120        0.228      334.597        4.674      879.966
01/14/2014  10:32:00       67.634       42.558       25.994       36.254       39.898       32.393     1314.334     1591.888     1049.310        0.551        0.198       79.910       23.799        0.089      334.510        4.529      879.952
01/14/2014  10:33:00        3.951       20.915       24.781       30.783       27.502       23.859      947.568      756.351      569.241        0.167        0.114       21.285       21.947        1.063      334.640        4.746      879.939
01/14/2014  10:34:00       89.085       80.245       25.832       59.390       37.657       41.501     3527.182     1418.023     1722.327        1.085        0.333      119.898       41.978        0.123      334.095        3.841      879.929
01/14/2014  10:35:00       66.165       45.298       10.486       37.414       39.809       33.627     1399.812     1584.732     1130.761        0.533        0.206       80.186       24.226        0.091      334.273        4.138      879.925
01/14/2014  10:36:00        5.889       33.395       25.644       31.117       37.014       27.825      968.262     1370.059      774.244        0.246        0.156       33.910       13.425        0.157      334.558        4.609      879.928
01/14/2014  10:37:00        0.118       41.286       76.785       26.152       37.929       23.593      683.928     1438.603      556.613        0.514        0.134       41.287       22.253        0.291      334.911        5.195      879.917
01/14/2014  10:38:00       61.048       66.907       34.155       55.111       42.485       43.982     3037.204     1804.953     1934.388        0.807        0.339       90.572       40.853        0.203      334.658        4.775      879.927
01/14/2014  10:39:00       52.554       51.938        0.004       28.598       34.039       32.706      817.829     1158.650     1069.676        0.425        0.152       73.888       20.219        0.075      334.418        4.379      879.935
01/14/2014  10:40:00       75.978       38.585      -12.107       31.093       33.871       27.531      966.746     1147.216      757.958        0.514        0.144       85.214       17.390        0.042      334.459        4.446      879.936
01/14/2014  10:41:00       67.884       50.804       19.329       43.302       42.095       28.762     1875.055     1772.029      827.258        0.602        0.224       84.789       22.943        0.073      334.580        4.647      879.929
01/14/2014  10:42:00       63.888       60.810       25.072       57.374       46.932       36.258     3291.727     2202.656     1314.613        0.761        0.340       88.202       38.080        0.186      334.525        4.555      879.924
01/14/2014  10:43:00       21.307       46.403       52.713       59.426       43.250       33.621     3531.440     1870.591     1130.397        0.596        0.327       51.062       25.713        0.254      335.042        5.414      879.905
01/14/2014  10:44:00       22.657       42.583       49.373       36.300       43.098       32.871     1317.708     1857.480     1080.495        0.451        0.213       48.235       29.695        0.379      334.769        4.961      879.890
01/14/2014  10:45:00       28.152       55.205       78.408       39.797       52.659       31.522     1583.801     2772.956      993.645        0.767        0.268       61.968       33.178        0.287      334.589        4.660      879.883
01/14/2014  10:46:00       48.585       37.813       31.148       40.720       34.161       26.926     1658.122     1166.995      724.986        0.415        0.178       61.566       10.776        0.031      334.714        4.869      879.882
01/14/2014  10:47:00       28.175       44.311       51.596       37.827       36.743       25.089     1430.878     1350.042      629.462        0.441        0.171       52.510       14.912        0.081      335.167        5.621      879.883
01/14/2014  10:48:00       19.251       34.520       17.797       37.029       51.244       35.991     1371.155     2625.944     1295.321        0.358        0.265       39.525       16.922        0.183      334.780        4.979      879.887
01/14/2014  10:49:00       33.722       69.341       27.059       39.525       44.646       36.914     1562.229     1993.303     1362.637        0.580        0.246       77.106       10.997        0.020      334.836        5.071      879.886
01/14/2014  10:50:00       25.997       62.226       77.901       37.572       48.622       29.161     1411.633     2364.121      850.384        0.762        0.231       67.438       29.099        0.186      334.763        4.951      879.882
01/14/2014  10:51:00       33.988       83.686       81.399       28.815       38.447       23.777      830.302     1478.207      565.335        0.883        0.144       90.325       20.719        0.053      334.558        4.608      879.881
01/14/2014  10:52:00       17.738       41.877       61.822       30.426       28.949       26.777      925.728      838.068      716.993        0.419        0.124       45.479       16.100        0.125      334.863        5.116      879.869
01/14/2014  10:53:00       25.085       56.662       73.812       37.029       35.936       28.208     1371.167     1291.397      795.686        0.637        0.173       61.966       22.101        0.127      334.909        5.191      879.861
01/14/2014  10:54:00       66.506       93.362       81.549       59.772       46.288       41.397     3572.684     2142.588     1713.736        1.361        0.371      114.628       26.529        0.054      334.817        5.041      879.836
01/14/2014  10:55:00       66.736       57.722       62.654       54.023       59.854       44.866     2918.460     3582.506     2012.962        1.011        0.426       88.236       35.750        0.164      334.709        4.861      879.805
01/14/2014  10:56:00       67.844       74.544       85.449       80.560       52.891       41.382     6489.863     2797.504     1712.468        1.423        0.550      100.794       38.067        0.143      334.835        5.070      879.787
01/14/2014  10:57:00      118.950       74.194       43.244       40.457       33.718       37.125     1636.737     1136.904     1378.271        1.284        0.208      140.192       20.222        0.021      334.487        4.491      879.772
01/14/2014  10:58:00       61.744        7.429       39.150       35.960       40.955       26.153     1293.115     1677.282      683.967        0.453        0.183       62.189       19.768        0.101      334.627        4.726      879.763
01/14/2014  10:59:00       50.502       41.329       54.958       60.102       63.241       41.936     3612.256     3999.465     1758.620        0.832        0.469       65.258       39.245        0.362      334.894        5.168      879.740
01/14/2014  11:00:00       82.857       68.021       67.233       51.964       44.418       39.116     2700.275     1972.947     1530.098        1.111        0.310      107.202       24.931        0.054      334.814        5.034      879.708
01/14/2014  11:01:00       74.074       83.118       49.242       47.044       36.239       46.511     2213.101     1313.286     2163.269        1.025        0.284      111.335       29.520        0.070      334.730        4.897      879.691
01/14/2014  11:02:00      104.494       79.831       52.702       45.086       36.453       43.570     2032.718     1328.816     1898.366        1.266        0.263      131.499       28.835        0.048      334.585        4.654      879.666
01/14/2014  11:03:00       56.918       31.106       57.722       34.709       41.917       30.579     1204.731     1757.011      935.106        0.572        0.195       64.863       29.982        0.214      334.857        5.107      879.643
01/14/2014  11:04:00       59.208        9.186       25.676       32.837       41.489       33.233     1078.282     1721.296     1104.411        0.408        0.195       59.916       24.399        0.166      334.778        4.975      879.612
01/14/2014  11:05:00       59.918       48.122       52.047       66.425       36.648       30.264     4412.223     1343.053      915.886        0.764        0.334       76.850       19.700        0.066      335.093        5.499      879.585
01/14/2014  11:06:00       98.693       45.393       20.739       44.603       38.815       34.883     1989.418     1506.633     1216.800        0.847        0.236      108.632       27.697        0.065      334.658        4.777      879.574
01/14/2014  11:07:00       77.326       77.362        3.604       34.260       41.226       34.142     1173.746     1699.576     1165.644        0.801        0.202      109.381       30.432        0.077      334.709        4.861      879.569
01/14/2014  11:08:00       76.309       95.517      -10.442       24.645       35.046       28.731      607.390     1228.252      825.468        0.886        0.133      122.256       22.794        0.035      334.751        4.931      879.558
01/14/2014  11:09:00        9.705       87.712       -8.016       17.860       21.459       22.667      318.979      460.496      513.795        0.457        0.065       88.247       13.652        0.024      334.783        4.983      879.559
01/14/2014  11:10:00       19.355       58.747       30.537       46.279       35.329       44.573     2141.766     1248.125     1986.712        0.507        0.269       61.853       31.315        0.256      335.200        5.675      879.541
01/14/2014  11:11:00        5.467       13.430       18.982       17.112       30.186       34.288      292.805      911.188     1175.643        0.147        0.119       14.500       23.749        2.683      335.217        5.706      879.537
01/14/2014  11:12:00       73.888       62.404       43.552       29.422       26.463       23.592      865.656      700.298      556.560        0.669        0.106       96.714        3.160        0.001      335.032        5.396      879.505
01/14/2014  11:13:00       58.193       65.774        6.281       31.819       19.870       18.675     1012.467      394.834      348.750        0.475        0.088       87.821       14.329        0.027      334.834        5.069      879.497
01/14/2014  11:14:00        9.629        7.075       52.487       32.119       59.393       34.123     1031.639     3527.576     1164.351        0.431        0.286       11.949       37.807       10.011      335.521        6.210      879.465
01/14/2014  11:15:00        3.632      -14.520       34.245       37.650       59.711       43.459     1417.533     3565.434     1888.726        0.413        0.344       14.967       39.588        6.996      335.548        6.254      879.461
01/14/2014  11:16:00       55.799       13.673       69.629       43.604       42.832       46.856     1901.320     1834.616     2195.495        0.704        0.297       57.450       35.050        0.372      335.440        6.076      879.442
01/14/2014  11:17:00       40.981       20.307       31.982       56.552       55.645       43.705     3198.105     3096.341     1910.085        0.566        0.410       45.736       24.407        0.285      335.464        6.114      879.431
01/14/2014  11:18:00       -9.964       24.489       45.648       21.092       45.512       28.423      444.875     2071.361      807.893        0.305        0.166       26.439       26.973        1.041      335.768        6.623      879.414
01/14/2014  11:19:00      -13.725      -27.563       24.390       40.911       43.306       24.420     1673.694     1875.415      596.339        0.284        0.207       30.791        9.268        0.091      335.667        6.453      879.406
01/14/2014  11:20:00       62.283      -27.541       18.473       41.520       59.663       42.426     1723.949     3559.676     1799.989        0.603        0.354       68.100       45.401        0.444      335.434        6.065      879.394
01/14/2014  11:21:00       27.549       18.104       48.723       26.741       26.300       28.865      715.058      691.679      833.181        0.285        0.112       32.965       21.952        0.443      335.451        6.094      879.384
01/14/2014  11:22:00       48.187       56.116       57.594       38.674       46.861       42.796     1495.645     2195.985     1831.534        0.715        0.276       73.966       37.060        0.251      335.291        5.828      879.374
01/14/2014  11:23:00       67.754       59.993       40.355       72.796       36.950       34.356     5299.294     1365.314     1180.359        0.883        0.392       90.498       27.728        0.094      335.374        5.965      879.353
01/14/2014  11:24:00        3.052       28.705       58.540       23.171       50.796       33.046      536.883     2580.231     1092.020        0.423        0.210       28.867       32.169        1.242      335.685        6.484      879.349
01/14/2014  11:25:00       15.543      -18.851       45.162       30.475       54.769       28.506      928.719     2999.598      812.592        0.369        0.237       24.432       29.137        1.422      335.562        6.279      879.337
01/14/2014  11:26:00        1.812       32.505       62.338       21.081       33.156       16.967      444.392     1099.321      287.868        0.339        0.092       32.556       15.525        0.227      335.994        6.998      879.329
01/14/2014  11:27:00       33.337       31.681       27.630       47.391       35.309       29.261     2245.911     1246.714      856.233        0.361        0.217       45.990       27.768        0.365      335.852        6.762      879.317
01/14/2014  11:28:00       63.276       62.225        9.711       51.574       38.177       33.000     2659.895     1457.468     1088.978        0.659        0.260       88.746       22.126        0.062      335.562        6.279      879.300
01/14/2014  11:29:00       26.534       72.991       32.509       43.494       50.936       40.105     1891.765     2594.514     1608.401        0.659        0.305       77.664       36.810        0.225      335.833        6.729      879.286
01/14/2014  11:30:00        5.709      -34.135       46.155       33.601       51.551       34.571     1129.054     2657.552     1195.158        0.415        0.249       34.609       32.200        0.866      335.718        6.538      879.257
01/14/2014  11:31:00       43.596       62.685       70.671       34.071       30.831       24.794     1160.810      950.520      614.758        0.677        0.136       76.355       18.588        0.059      335.727        6.552      879.244
01/14/2014  11:32:00       17.408        4.822       44.616       28.000       33.772       29.777      784.002     1140.575      886.685        0.256        0.141       18.064       26.702        2.185      335.878        6.805      879.211
01/14/2014  11:33:00       42.852       57.559       38.640       47.999       26.005       37.120     2303.911      676.247     1377.872        0.550        0.218       71.759       36.709        0.262      335.696        6.503      879.182
01/14/2014  11:34:00       21.644       35.424       -3.291       28.153       26.191       16.893      792.607      685.963      285.389        0.175        0.088       41.513        5.114        0.015      335.553        6.265      879.160
01/14/2014  11:35:00       31.500       68.870        6.334       29.146       44.718       32.775      849.490     1999.690     1074.219        0.485        0.196       75.732       33.056        0.191      335.579        6.307      879.124
01/14/2014  11:36:00       69.937       52.841        7.506       22.448       20.468       26.852      503.913      418.936      721.015        0.469        0.082       87.655       18.299        0.044      335.585        6.316      879.113
01/14/2014  11:37:00       44.410       55.122       15.765       27.034       23.537       30.307      730.811      553.985      918.533        0.373        0.110       70.787       21.164        0.089      335.697        6.503      879.088
01/14/2014  11:38:00        2.578       -4.783      -14.137       53.885       41.077       27.785     2903.548     1687.300      771.997        0.280        0.268        5.433       25.352       21.772      335.539        6.240      879.088
01/14/2014  11:39:00       10.653       49.644       67.841       37.413       37.948       28.191     1399.765     1440.074      794.754        0.541        0.182       50.774       21.024        0.171      336.118        7.205      879.073
01/14/2014  11:40:00       43.928      -29.868       16.217       29.981       35.208       28.895      898.889     1239.594      834.895        0.303        0.149       53.120       20.509        0.149      335.731        6.560      879.077
01/14/2014  11:41:00       45.952      -50.996       23.408       40.444       35.368       29.716     1635.723     1250.893      883.022        0.451        0.188       68.645       23.764        0.120      335.875        6.801      879.062
01/14/2014  11:42:00       27.417      -53.191        8.096       29.510       47.876       27.943      870.813     2292.142      780.833        0.379        0.197       59.841       29.486        0.243      335.749        6.589      879.055
01/14/2014  11:43:00        2.971        9.778       42.869       21.493       58.301       24.449      461.953     3398.995      597.732        0.320        0.223       10.220       25.735        6.341      336.242        7.412      879.042
01/14/2014  11:44:00        7.569       58.300       81.077       26.772       45.796       25.965      716.759     2097.305      674.200        0.676        0.174       58.789       26.309        0.200      336.097        7.171      879.029
01/14/2014  11:45:00       31.346       75.981       90.297       44.126       46.437       28.635     1947.113     2156.429      819.974        0.992        0.246       82.194       27.937        0.116      336.041        7.077      879.014
01/14/2014  11:46:00       94.787      104.797       70.627       40.342       22.688       38.559     1627.464      514.723     1486.764        1.429        0.181      141.305       24.267        0.029      335.560        6.276      878.999
01/14/2014  11:47:00       58.679       47.595       40.554       32.998       35.443       22.181     1088.893     1256.189      491.995        0.509        0.142       75.555       16.294        0.047      335.793        6.663      878.983
01/14/2014  11:48:00       78.048      -55.738        5.478       33.959       51.573       34.252     1153.242     2659.792     1173.202        0.711        0.249       95.907       34.147        0.127      335.783        6.646      878.960
01/14/2014  11:49:00       27.848      -36.990       29.914       35.352       59.229       30.099     1249.777     3508.074      905.940        0.435        0.283       46.301       33.783        0.532      336.060        7.108      878.927
01/14/2014  11:50:00      102.065       86.721       57.310       73.565       37.022       42.742     5411.864     1370.640     1826.874        1.491        0.430      133.932       40.439        0.091      335.940        6.910      878.896
01/14/2014  11:51:00       72.390       97.724       87.850       79.727       44.338       61.543     6356.430     1965.852     3787.530        1.731        0.605      121.615       62.071        0.260      335.896        6.834      878.878
01/14/2014  11:52:00      136.398       75.798       63.255       60.479       65.742       57.325     3657.655     4321.958     3286.115        1.981        0.563      156.044       49.906        0.102      335.894        6.830      878.856
01/14/2014  11:53:00       73.906      117.854      118.349       63.947       42.557       28.727     4089.161     1811.116      825.224        2.004        0.336      139.110       21.477        0.024      335.995        6.999      878.846
01/14/2014  11:54:00        7.815       37.649       70.349       38.350       41.585       33.670     1470.733     1729.299     1133.692        0.538        0.217       38.451       26.908        0.490      336.316        7.536      878.818
01/14/2014  11:55:00      -18.821       39.154       68.645       25.126       40.395       28.929      631.307     1631.735      836.907        0.485        0.155       43.443       28.856        0.441      336.675        8.137      878.799
01/14/2014  11:56:00      -21.883       -4.083       25.737       26.307       21.060       19.411      692.032      443.543      376.792        0.133        0.076       22.260       18.425        0.685      336.756        8.273      878.785
01/14/2014  11:57:00       13.467       28.170       71.603       35.808       25.824       21.152     1282.215      666.866      447.410        0.425        0.120       31.223       11.451        0.135      336.647        8.089      878.759
01/14/2014  11:58:00       22.885       51.934       60.875       36.739       30.103       23.809     1349.752      906.163      566.851        0.487        0.141       56.753       18.019        0.101      336.427        7.721      878.723
01/14/2014  11:59:00       34.303       37.638       39.743       49.164       54.343       51.257     2417.094     2953.203     2627.293        0.608        0.400       50.924       42.351        0.692      336.436        7.737      878.684
01/14/2014  12:00:00       71.604      -75.013        8.653       56.560       80.147       47.002     3199.039     6423.513     2209.152        1.133        0.592      103.702       41.723        0.162      336.320        7.542      878.651
01/14/2014  12:01:00       68.448      -67.285       14.116       58.662       78.026       49.106     3441.195     6088.103     2411.358        1.067        0.597       95.982       48.442        0.255      336.324        7.549      878.610
01/14/2014  12:02:00       92.279      -37.859       46.235       60.079      111.886       54.422     3609.505    12518.547     2961.805        1.558        0.954       99.743       73.504        0.543      336.204        7.348      878.597
01/14/2014  12:03:00       37.485       46.601       31.875       26.076       31.296       22.619      679.949      979.458      511.627        0.338        0.109       59.806       15.424        0.067      336.277        7.471      878.591
01/14/2014  12:04:00       59.443      -33.408       32.123       58.221       73.202       37.538     3389.650     5358.465     1409.099        0.792        0.508       68.188       43.604        0.409      336.256        7.437      878.566
01/14/2014  12:05:00       23.047        8.859       11.539       32.482       76.805       34.486     1055.086     5898.977     1189.262        0.444        0.407       24.691       26.668        1.167      336.220        7.376      878.550
01/14/2014  12:06:00        5.150        1.984        7.613       24.394       28.150       19.894      595.047      792.396      395.784        0.094        0.089        5.519        7.936        2.068      336.643        8.082      878.539
01/14/2014  12:07:00       14.787       72.268        4.098       29.257       60.491       29.269      855.995     3659.149      856.688        0.541        0.269       73.765       29.759        0.163      336.339        7.574      878.526
01/14/2014  12:08:00      -13.654       20.330       67.281       43.565       71.038       43.025     1897.869     5046.327     1851.177        0.696        0.440       24.489       43.259        3.120      336.712        8.198      878.520
01/14/2014  12:09:00       51.898       49.800       55.844       65.716       57.448       49.784     4318.538     3300.290     2478.399        0.919        0.505       71.927       51.607        0.515      336.478        7.805      878.506
01/14/2014  12:10:00       10.682       84.854      100.106       51.066       53.024       43.228     2607.691     2811.528     1868.659        1.231        0.364       85.524       36.225        0.179      336.557        7.939      878.498
01/14/2014  12:11:00       78.849       61.961       36.932       47.282       40.959       41.207     2235.571     1677.678     1698.027        0.851        0.281      100.281       26.222        0.068      336.224        7.382      878.483
01/14/2014  12:12:00      149.930      113.170       26.809       48.468       36.369       41.921     2349.152     1322.704     1757.386        2.072        0.271      187.847       12.183        0.004      336.083        7.145      878.453
01/14/2014  12:13:00      160.414      106.677       19.641       42.580       46.227       37.479     1813.083     2136.947     1404.646        2.143        0.268      192.646       22.911        0.014      336.269        7.456      878.434
01/14/2014  12:14:00      152.511       91.826        8.927       49.118       36.750       38.457     2412.624     1350.594     1478.918        1.851        0.262      178.022       19.997        0.013      336.098        7.170      878.421
01/14/2014  12:15:00      133.168       74.319      -11.136       41.771       36.866       27.041     1744.826     1359.101      731.231        1.361        0.192      152.502       14.316        0.009      335.973        6.963      878.404
01/14/2014  12:16:00       50.128       74.683        3.408       39.041       44.190       30.619     1524.175     1952.751      937.521        0.626        0.221       89.947       26.113        0.084      336.233        7.397      878.385
01/14/2014  12:17:00       39.829       57.486       43.200       39.457       45.985       40.857     1556.877     2114.590     1669.259        0.605        0.267       69.936       30.327        0.188      336.519        7.877      878.363
01/14/2014  12:18:00      -12.998      -10.468        3.294       26.805       56.030       18.761      718.505     3139.358      351.991        0.225        0.210       16.690       23.439        1.972      336.588        7.989      878.324
01/14/2014  12:19:00       39.281       59.943       -5.767       32.722       27.855       22.167     1070.752      775.883      491.354        0.375        0.117       71.667       13.049        0.033      336.735        8.236      878.307
01/14/2014  12:20:00       18.654       22.821        7.696       16.376       22.018       16.820      268.161      484.807      282.901        0.098        0.052       29.475       10.353        0.123      336.705        8.186      878.283
01/14/2014  12:21:00       90.618       66.484       53.761       82.490       47.178       49.560     6804.663     2225.776     2456.176        1.350        0.574      112.392       46.469        0.171      336.566        7.955      878.247
01/14/2014  12:22:00       84.187       34.008       40.252       75.489       41.965       46.868     5698.637     1761.099     2196.621        0.976        0.483       90.797       29.440        0.105      336.588        7.991      878.230
01/14/2014  12:23:00       24.891      -17.551       23.354       39.934       68.552       44.157     1594.706     4699.412     1949.877        0.486        0.412       30.456       46.007        2.282      336.956        8.605      878.219
01/14/2014  12:24:00       46.446      -43.813       21.259       46.104       91.312       55.705     2125.559     8337.908     3103.024        0.904        0.678       63.850       60.506        0.898      336.733        8.234      878.198
01/14/2014  12:25:00       64.124      -15.697       47.698       49.016       77.470       62.074     2402.594     6001.617     3853.169        0.944        0.613       66.017       68.179        1.067      336.617        8.038      878.181
01/14/2014  12:26:00       39.639       74.928       76.862       46.483       47.699       27.690     2160.633     2275.240      766.754        0.915        0.260       84.767       17.242        0.041      336.759        8.277      878.156
01/14/2014  12:27:00       46.080       38.079       68.833       55.327       31.691       34.930     3061.060     1004.312     1220.075        0.680        0.264       59.778       26.392        0.195      336.753        8.265      878.131
01/14/2014  12:28:00       75.439       68.185        5.813       31.742       31.426       31.359     1007.530      987.567      983.413        0.668        0.149      101.687       10.012        0.010      336.510        7.861      878.119
01/14/2014  12:29:00      133.357       76.247       26.060       73.679       50.497       44.497     5428.628     2549.931     1979.957        1.712        0.498      153.615       29.733        0.037      336.548        7.923      878.098
01/14/2014  12:30:00      117.734       85.331       11.705       47.109       54.394       36.080     2219.235     2958.718     1301.754        1.388        0.324      145.406       11.287        0.006      336.583        7.983      878.084
01/14/2014  12:31:00       26.782       45.456       61.198       46.219       43.472       35.334     2136.229     1889.833     1248.488        0.590        0.264       52.759       31.279        0.351      337.082        8.815      878.086
01/14/2014  12:32:00       71.823       62.395        8.055       34.541       35.427       39.431     1193.087     1255.094     1554.832        0.656        0.200       95.141       19.601        0.042      336.885        8.488      878.087
01/14/2014  12:33:00       96.800       87.840       58.455       72.806       45.803       27.803     5300.691     2097.910      773.016        1.434        0.409      130.713       23.959        0.034      336.712        8.196      878.069
01/14/2014  12:34:00       85.950       54.457       45.274       48.592       31.220       39.259     2361.160      974.679     1541.238        0.864        0.244      101.750       20.138        0.039      336.536        7.904      878.074
01/14/2014  12:35:00       75.599        7.858        1.883       37.334       55.544       28.133     1393.856     3085.180      791.454        0.552        0.264       76.006       12.912        0.029      336.787        8.324      878.062
01/14/2014  12:36:00       21.149      -50.268       22.285       34.846       50.620       31.992     1214.249     2562.347     1023.508        0.413        0.240       54.535       10.683        0.038      336.973        8.635      878.039
01/14/2014  12:37:00       46.623       53.442       40.101       53.182       27.113       24.883     2828.292      735.118      619.167        0.541        0.209       70.921       26.076        0.135      336.942        8.582      878.028
01/14/2014  12:38:00       82.169       47.829       15.455       47.045       44.015       39.760     2213.237     1937.354     1580.861        0.750        0.287       95.076       21.681        0.052      336.706        8.187      878.016
01/14/2014  12:39:00      124.069       69.913       22.183       58.614       39.191       49.310     3435.581     1535.951     2431.467        1.409        0.370      142.411       14.645        0.011      336.726        8.222      877.988
01/14/2014  12:40:00      142.471       97.845       20.792       45.837       37.116       41.817     2101.024     1377.590     1748.620        1.776        0.261      172.834       21.153        0.015      336.590        7.994      877.981
01/14/2014  12:41:00       88.547       67.332        3.966       47.979       28.627       33.601     2301.958      819.502     1129.002        0.832        0.213      111.239       20.704        0.035      336.733        8.234      877.965
01/14/2014  12:42:00       77.012       57.990       11.019       27.775       22.618       24.748      771.458      511.560      612.474        0.565        0.095       96.404       14.015        0.021      336.659        8.109      877.933
01/14/2014  12:43:00        7.961       82.549       -0.545       25.444       59.958       29.040      647.404     3594.923      843.344        0.598        0.254       82.932       29.501        0.127      336.936        8.572      877.910
01/14/2014  12:44:00       92.895       43.079       20.513       57.898       77.640       44.668     3352.138     6027.998     1995.254        1.114        0.569      102.398       27.367        0.071      336.985        8.653      877.882
01/14/2014  12:45:00      108.163       25.256       31.963       77.817       44.304       38.907     6055.542     1962.854     1513.744        1.144        0.477      111.073       33.864        0.093      337.121        8.882      877.851
01/14/2014  12:46:00       18.183       58.000       62.934       42.785       35.798       36.491     1830.536     1281.522     1331.613        0.605        0.222       60.783       28.051        0.213      337.287        9.160      877.839
01/14/2014  12:47:00      104.151       60.248       29.277       43.002       50.005       36.956     1849.185     2500.512     1365.737        1.052        0.286      120.322       23.914        0.040      336.941        8.581      877.827
01/14/2014  12:48:00       80.644       72.697       31.203       61.079       38.614       41.938     3730.702     1491.010     1758.800        0.987        0.349      108.574       38.052        0.123      337.095        8.837      877.805
01/14/2014  12:49:00       77.765       66.496       42.325       52.153       45.732       49.859     2719.946     2091.410     2485.870        0.978        0.365      102.319       37.096        0.131      336.886        8.489      877.783
01/14/2014  12:50:00       24.399        5.363        7.141       26.031       25.412       16.681      677.617      645.793      278.271        0.114        0.080       24.981       12.468        0.249      337.144        8.920      877.755
01/14/2014  12:51:00       32.674       60.176       52.132       48.071       43.861       48.333     2310.797     1923.759     2336.090        0.699        0.329       68.475       35.296        0.266      337.281        9.148      877.734
01/14/2014  12:52:00       32.659       94.884       99.445       46.372       53.531       38.552     2150.402     2865.595     1486.228        1.323        0.325      100.348       35.518        0.125      336.981        8.645      877.719
01/14/2014  12:53:00       76.097       76.882       48.720       57.167       39.085       39.739     3268.012     1527.601     1579.187        1.022        0.319      108.174       29.555        0.075      336.944        8.585      877.728
01/14/2014  12:54:00       46.487       64.516       62.590       55.060       35.484       34.254     3031.599     1259.138     1173.331        0.785        0.273       79.519       32.895        0.171      337.184        8.987      877.711
01/14/2014  12:55:00       65.729       12.601       11.534       46.766       32.929       32.686     2187.015     1084.343     1068.368        0.448        0.217       66.926       29.041        0.188      337.087        8.823      877.713
01/14/2014  12:56:00       54.277       66.908       74.416       54.317       41.097       39.008     2950.292     1688.995     1521.616        0.956        0.308       86.155       32.233        0.140      337.129        8.895      877.697
01/14/2014  12:57:00       23.471       72.271       78.974       46.047       46.830       46.656     2120.328     2193.009     2176.805        0.925        0.325       75.987       37.990        0.250      337.258        9.111      877.677
01/14/2014  12:58:00       50.513       86.945       77.654       45.890       56.560       56.373     2105.883     3199.012     3177.920        1.231        0.424      100.553       40.071        0.159      337.173        8.967      877.657
01/14/2014  12:59:00       41.522       -1.177       38.213       54.530       46.090       43.423     2973.572     2124.302     1885.527        0.508        0.349       41.538       37.241        0.804      337.234        9.070      877.652
01/14/2014  13:00:00       24.502      -98.370        6.225       41.247       34.720       30.529     1701.300     1205.506      932.002        0.708        0.192      101.376       22.184        0.048      337.357        9.276      877.639
01/14/2014  13:01:00       77.960       41.719       32.767       38.474       26.568       27.599     1480.228      705.844      761.728        0.592        0.147       88.421       25.432        0.083      337.323        9.219      877.627
01/14/2014  13:02:00        6.132       40.759       52.659       39.059       31.279       34.230     1525.628      978.383     1171.674        0.407        0.184       41.217       30.766        0.557      337.755        9.944      877.617
01/14/2014  13:03:00        7.939       -3.831       39.432       28.158       42.175       32.677      792.880     1778.716     1067.803        0.264        0.182        8.815       24.066        7.454      337.843       10.091      877.594
01/14/2014  13:04:00        5.976       32.743       20.934       43.728       31.214       29.098     1912.115      974.288      846.684        0.264        0.187       33.284       27.378        0.677      337.914       10.210      877.572
01/14/2014  13:05:00        0.875        9.858       -2.204       35.452       67.608       34.233     1256.823     4570.869     1171.915        0.355        0.350        9.897       26.880        7.377      337.692        9.838      877.576
01/14/2014  13:06:00       11.433      -42.984        9.362       42.809       45.460       30.665     1832.620     2066.614      940.346        0.345        0.242       44.479       28.230        0.403      337.576        9.643      877.574
01/14/2014  13:07:00       53.136      -94.765      -12.125       36.998       40.569       25.398     1368.861     1645.822      645.076        0.780        0.183      108.645       19.810        0.033      337.317        9.209      877.561
01/14/2014  13:08:00       46.669      -25.644       22.954       46.995       43.383       21.819     2208.504     1882.063      476.052        0.396        0.228       53.250       20.134        0.143      337.503        9.520      877.553
01/14/2014  13:09:00       13.880       40.147       56.766       30.812       36.980       28.134      949.376     1367.496      791.533        0.407        0.155       42.478       21.872        0.265      337.810       10.035      877.552
01/14/2014  13:10:00       20.714       71.209       70.569       35.801       42.703       24.899     1281.712     1823.588      619.968        0.710        0.186       74.161       18.476        0.062      337.548        9.597      877.536
01/14/2014  13:11:00       21.458       27.386       47.428       27.022       45.382       25.074      730.213     2059.524      628.699        0.344        0.171       34.791       29.887        0.738      337.657        9.778      877.525
01/14/2014  13:12:00      -13.832       10.468       -5.829       15.009       17.835       10.427      225.261      318.072      108.726        0.049        0.033       17.346        5.092        0.086      337.562        9.620      877.511
01/14/2014  13:13:00       25.118       57.583       -9.510       33.739       22.923       15.356     1138.313      525.446      235.801        0.297        0.095       62.823        5.672        0.008      337.455        9.441      877.495
01/14/2014  13:14:00       12.664       26.925       -7.630       33.481       23.057       21.275     1120.963      531.640      452.627        0.152        0.105       29.754       18.747        0.397      337.457        9.444      877.481
01/14/2014  13:15:00      -14.495       25.092       -7.490       15.660       14.295       12.976      245.242      204.340      168.375        0.076        0.031       28.977        7.296        0.063      337.590        9.667      877.469
01/14/2014  13:16:00      -34.146       32.879      -21.265       15.897       16.773       12.960      252.723      281.347      167.970        0.170        0.035       47.402        5.759        0.015      337.463        9.454      877.453
01/14/2014  13:17:00      -22.376       18.538      -19.897       15.422       20.684       18.787      237.848      427.819      352.958        0.113        0.051       29.058       11.128        0.147      337.752        9.939      877.425
01/14/2014  13:18:00      -33.272       21.169       -3.550       22.764       15.309       26.114      518.190      234.362      681.916        0.150        0.072       39.436       18.080        0.210      337.972       10.307      877.401
01/14/2014  13:19:00       22.750        9.796       29.814       25.852       14.470       13.125      668.329      209.374      172.254        0.128        0.052       24.769        8.881        0.129      338.160       10.623      877.387
01/14/2014  13:20:00       87.094       52.215       10.297       35.467       32.764       28.487     1257.891     1073.483      811.494        0.678        0.157      101.547       15.379        0.023      337.649        9.765      877.364
01/14/2014  13:21:00       27.254       44.385       60.662       41.032       35.811       31.395     1683.604     1282.442      985.665        0.517        0.198       52.084       30.913        0.352      338.024       10.394      877.348
01/14/2014  13:22:00       57.908       48.819       40.929       25.115       36.408       35.886      630.739     1325.563     1287.840        0.533        0.162       75.740       29.630        0.153      337.749        9.933      877.342
01/14/2014  13:23:00       52.079       57.953       64.428       53.929       45.947       43.360     2908.328     2111.165     1880.106        0.856        0.345       77.916       43.017        0.305      337.764        9.958      877.327
01/14/2014  13:24:00       83.928       44.683       58.856       53.033       43.451       37.137     2812.456     1888.001     1379.186        0.929        0.304       95.081       37.439        0.155      337.714        9.875      877.326
01/14/2014  13:25:00       67.012       24.906       10.997       30.948       21.964       29.493      957.774      482.423      869.839        0.377        0.116       71.491       16.972        0.056      337.694        9.840      877.329
01/14/2014  13:26:00       21.345        1.412       10.194       33.786       25.527       23.218     1141.480      651.645      539.086        0.145        0.117       21.391       18.963        0.786      338.065       10.464      877.306
01/14/2014  13:27:00       15.429       15.524       33.843       27.401       15.655       25.411      750.824      245.065      645.733        0.163        0.082       21.887       12.520        0.327      338.333       10.912      877.287
01/14/2014  13:28:00       74.967       59.963       23.625       63.643       34.931       39.834     4050.414     1220.189     1586.709        0.831        0.343       95.998       31.107        0.105      338.162       10.626      877.276
01/14/2014  13:29:00      110.845       92.430       17.245       39.731       31.995       29.584     1578.568     1023.683      875.231        1.230        0.174      144.326       15.144        0.011      337.833       10.074      877.255
01/14/2014  13:30:00       85.267       76.488       26.076       34.562       26.331       40.089     1194.551      693.309     1607.129        0.865        0.175      114.547       17.150        0.022      337.838       10.081      877.250
01/14/2014  13:31:00       19.633       46.955       12.507       42.985       31.802       27.775     1847.680     1011.357      771.454        0.319        0.182       50.894       25.464        0.250      338.057       10.451      877.242
01/14/2014  13:32:00       74.484       23.689        6.386       18.715       39.788       29.297      350.235     1583.088      858.340        0.447        0.140       78.161       22.896        0.086      337.894       10.176      877.223
01/14/2014  13:33:00       47.834       10.126       -4.137       35.616       46.418       19.826     1268.498     2154.664      393.060        0.311        0.191       48.894       13.930        0.081      337.917       10.215      877.219
01/14/2014  13:34:00      -12.049       51.860       -5.868       23.757       25.665       24.084      564.381      658.680      580.025        0.234        0.090       53.241       17.309        0.106      337.947       10.266      877.222
01/14/2014  13:35:00      -46.658       17.464       -1.874       23.006       24.688       16.238      529.291      609.497      263.679        0.194        0.070       49.820        8.800        0.031      338.044       10.429      877.218
01/14/2014  13:36:00       -1.412        0.879        4.014       18.796       23.892       20.187      353.277      570.848      407.510        0.067        0.067        1.663       17.383      109.217      338.481       11.162      877.216
01/14/2014  13:37:00        1.086       -7.186        6.523       21.553       25.022       18.400      464.541      626.122      338.543        0.076        0.071        7.267       13.803        3.607      338.344       10.932      877.216
01/14/2014  13:38:00       22.011        8.388       34.639       32.900       33.864       23.155     1082.391     1146.802      536.149        0.226        0.138       23.555       17.673        0.563      338.364       10.964      877.199
01/14/2014  13:39:00       55.687      -51.005       -5.681       26.227       30.928       16.040      687.839      956.527      257.288        0.382        0.095       75.516       14.176        0.035      337.780        9.987      877.193
01/14/2014  13:40:00       39.375        6.480       13.156       26.038       29.509       19.333      677.977      870.783      373.755        0.184        0.096       39.904       19.899        0.249      338.099       10.520      877.184
01/14/2014  13:41:00       38.040       51.051        3.279       31.653       26.065       26.076     1001.901      679.361      679.950        0.321        0.118       63.665       12.306        0.037      338.038       10.417      877.149
01/14/2014  13:42:00       25.890       99.406      101.399       41.184       53.972       39.546     1696.101     2912.942     1563.907        1.350        0.309      102.722       37.961        0.137      338.209       10.704      877.125
01/14/2014  13:43:00      108.255       62.200       29.814       58.133       38.233       46.846     3379.495     1461.774     2194.504        1.175        0.352      124.852       43.017        0.119      338.041       10.424      877.114
01/14/2014  13:44:00       38.022        2.600      -10.665       37.901       38.649       16.879     1436.477     1493.779      284.900        0.239        0.161       38.111       17.346        0.207      338.092       10.509      877.090
01/14/2014  13:45:00        2.289      -40.714       -3.172       23.271       29.482       20.546      541.537      869.203      422.155        0.175        0.092       40.778       20.938        0.264      338.506       11.205      877.071
01/14/2014  13:46:00       -7.206      -14.716       16.079       25.351       39.412       23.259      642.692     1553.337      540.977        0.163        0.137       16.386       24.294        2.198      338.678       11.493      877.043
01/14/2014  13:47:00       45.795       42.387       56.820       59.826       49.804       42.250     3579.106     2480.487     1785.083        0.748        0.392       62.400       35.290        0.320      338.362       10.963      877.021
01/14/2014  13:48:00       85.593       68.997       55.384       40.422       45.320       48.165     1633.926     2053.914     2319.830        1.058        0.300      109.940       37.709        0.118      338.166       10.632      877.018
01/14/2014  13:49:00       57.770       99.985       77.387       47.269       39.708       31.185     2234.330     1576.747      972.476        1.205        0.239      115.475       22.271        0.037      338.224       10.731      877.003
01/14/2014  13:50:00       27.312        9.513       44.339       31.456       41.267       37.601      989.462     1702.981     1413.798        0.345        0.205       28.922       36.211        1.568      338.318       10.888      877.015
01/14/2014  13:51:00       -0.608       41.277       -7.722       39.104       31.510       17.049     1529.156      992.900      290.667        0.229        0.141       41.281        9.251        0.050      338.244       10.764      877.019
01/14/2014  13:52:00      -62.145       21.266      -11.701       25.470       26.376       22.144      648.700      695.702      490.339        0.314        0.092       65.683       16.644        0.064      338.385       11.001      877.005
01/14/2014  13:53:00      -11.079       54.349        3.664       34.906       43.437       22.180     1218.450     1886.732      491.941        0.334        0.180       55.467       21.208        0.146      338.593       11.350      876.996
01/14/2014  13:54:00       16.085       35.733       42.502       29.808       39.898       42.210      888.517     1591.854     1781.675        0.380        0.213       39.186       38.667        0.974      338.496       11.186      877.000
01/14/2014  13:55:00       19.574       14.833       54.894       36.330       54.993       36.549     1319.851     3024.175     1335.836        0.465        0.284       24.560       37.031        2.273      338.527       11.238      876.999
01/14/2014  13:56:00       47.187       21.503       25.254       26.561       47.579       17.985      705.461     2263.762      323.454        0.331        0.165       51.855       12.842        0.061      338.521       11.228      877.003
01/14/2014  13:57:00       14.144       36.510       29.508       27.614       25.576       27.854      762.527      654.133      775.838        0.230        0.110       39.154       16.777        0.184      338.687       11.506      877.011
01/14/2014  13:58:00       10.072       12.195       21.625       37.457       32.509       25.651     1403.027     1056.809      657.979        0.192        0.156       15.816       14.838        0.880      338.873       11.821      877.013
01/14/2014  13:59:00       70.689       72.239       66.330       42.343       39.580       42.223     1792.968     1566.581     1782.803        0.988        0.257      101.071       23.360        0.053      338.395       11.017      877.012
01/14/2014  14:00:00       42.896       32.253       16.245       28.328       29.076       22.385      802.453      845.399      501.099        0.265        0.107       53.669       13.653        0.065      338.477       11.154      877.032
01/14/2014  14:01:00       20.749      -19.478      -11.994       14.525       32.035       13.958      210.973     1026.232      194.840        0.119        0.072       28.459       11.755        0.171      338.324       10.898      877.049
01/14/2014  14:02:00       15.101       14.006       12.373       18.823       15.787       16.124      354.309      249.219      259.973        0.072        0.043       20.596       10.806        0.275      338.682       11.500      877.065
01/14/2014  14:03:00        7.524       23.514        8.149       16.216       35.624       14.245      262.956     1269.070      202.909        0.121        0.087       24.688       11.839        0.230      338.767       11.642      877.079
01/14/2014  14:04:00        4.238       47.165       -3.426       15.848       22.815       16.720      251.171      520.524      279.574        0.165        0.053       47.355       11.128        0.055      338.697       11.525      877.095
01/14/2014  14:05:00       18.829      -19.871        2.040       16.477       23.115       21.943      271.475      534.290      481.499        0.102        0.064       27.375       17.902        0.428      338.804       11.704      877.097
01/14/2014  14:06:00      109.869      -18.277       31.611       47.312       68.284       35.215     2238.442     4662.642     1240.073        1.077        0.407      111.379       39.011        0.123      338.498       11.190      877.093
01/14/2014  14:07:00       33.848       71.736       88.311       45.892       61.747       45.554     2106.070     3812.744     2075.203        1.104        0.400       79.321       44.529        0.315      338.677       11.492      877.088
01/14/2014  14:08:00       76.307       73.476       62.031       50.759       46.915       33.091     2576.490     2201.023     1095.037        1.047        0.294      105.931       22.506        0.045      338.462       11.130      877.088
01/14/2014  14:09:00       13.113       27.551       46.570       32.982       46.900       32.768     1087.785     2199.566     1073.714        0.373        0.218       30.513       32.871        1.161      338.656       11.456      877.066
01/14/2014  14:10:00       18.923       80.738       82.079       68.999       57.813       48.364     4760.831     3342.362     2339.071        1.203        0.522       82.926       34.804        0.176      338.745       11.605      877.050
01/14/2014  14:11:00       49.578       66.209       43.285       59.965       40.275       34.139     3595.819     1622.041     1165.461        0.755        0.319       82.714       29.906        0.131      338.611       11.380      877.051
01/14/2014  14:12:00       -0.627       50.156       69.301       15.660       27.980       13.328      245.229      782.862      177.637        0.426        0.060       50.160       13.364        0.071      338.771       11.648      877.036
01/14/2014  14:13:00       19.425       76.529       76.959       32.250       28.823       29.997     1040.035      830.788      899.826        0.746        0.139       78.956       20.808        0.069      338.703       11.536      877.023
01/14/2014  14:14:00       41.913       56.722       53.451       40.179       35.962       31.409     1614.318     1293.296      986.539        0.586        0.195       70.527       20.596        0.085      338.856       11.792      877.022
01/14/2014  14:15:00       22.081       37.278       45.099       31.463       41.528       26.298      989.941     1724.588      691.606        0.366        0.170       43.327       25.646        0.350      339.007       12.044      877.022
01/14/2014  14:16:00       10.659       70.928       98.067       44.591       56.022       42.827     1988.400     3138.438     1834.120        1.086        0.348       71.724       40.628        0.321      339.015       12.059      877.015
01/14/2014  14:17:00       17.367       11.818       54.879       43.808       48.982       40.278     1919.148     2399.238     1622.342        0.470        0.297       21.007       36.402        3.003      339.015       12.060      877.036
01/14/2014  14:18:00       39.597       39.363       59.600       40.528       32.415       26.688     1642.533     1050.755      712.269        0.504        0.170       55.834       10.402        0.035      338.965       11.975      877.064
01/14/2014  14:19:00       26.327       36.253       31.561       49.322       37.720       27.737     2432.632     1422.795      769.364        0.381        0.231       44.804       24.226        0.292      338.891       11.851      877.079
01/14/2014  14:20:00       37.879       16.525       33.114       51.806       59.022       29.939     2683.842     3483.626      896.322        0.493        0.353       41.327       29.727        0.517      338.884       11.838      877.075
01/14/2014  14:21:00       -1.957       28.087       44.452       29.236       37.297       36.659      854.752     1391.041     1343.915        0.318        0.179       28.156       31.362        1.241      339.078       12.167      877.076
01/14/2014  14:22:00       56.189       45.995       63.119       49.614       48.954       36.950     2461.513     2396.534     1365.280        0.774        0.311       72.614       38.753        0.285      338.676       11.489      877.087
01/14/2014  14:23:00       75.843       68.270       33.511       36.300       28.633       34.310     1317.666      819.865     1177.170        0.742        0.166      102.043       19.568        0.037      338.571       11.312      877.073
01/14/2014  14:24:00       95.243       97.131       77.866       56.405       38.111       48.688     3181.541     1452.460     2370.542        1.579        0.350      136.036       41.651        0.094      338.734       11.587      877.053
01/14/2014  14:25:00      105.617      111.610       80.150       56.838       55.707       44.747     3230.544     3103.268     2002.252        1.918        0.417      153.661       34.857        0.051      338.865       11.804      877.039
01/14/2014  14:26:00       65.393       49.672       64.629       35.072       40.629       29.651     1230.024     1650.750      879.201        0.734        0.188       82.119       12.612        0.024      338.792       11.683      877.045
01/14/2014  14:27:00       48.019      -45.851       12.825       41.893       34.456       34.373     1755.012     1187.241     1181.534        0.435        0.206       66.394       22.947        0.119      338.723       11.569      877.052
01/14/2014  14:28:00       23.918       39.925       62.134       34.740       39.356       37.706     1206.857     1548.878     1421.745        0.510        0.209       46.541       37.359        0.644      338.950       11.950      877.050
01/14/2014  14:29:00      118.307       80.291       54.036       56.612       34.448       41.213     3204.916     1186.631     1698.479        1.473        0.305      142.980       33.447        0.055      338.804       11.704      877.052
01/14/2014  14:30:00       89.980       -9.442       27.397       31.398       30.435       28.414      985.825      926.260      807.364        0.583        0.136       90.474       18.405        0.041      338.766       11.639      877.054
01/14/2014  14:31:00       54.446       45.668       42.573       45.656       36.036       41.437     2084.492     1298.621     1717.038        0.598        0.255       71.063       35.483        0.249      339.059       12.134      877.039
01/14/2014  14:32:00       -1.368       78.067      101.965       60.641       56.252       35.173     3677.366     3164.333     1237.143        1.228        0.404       78.079       28.703        0.135      339.281       12.507      877.038
01/14/2014  14:33:00      104.802       33.731        7.890       45.535       39.322       25.164     2073.422     1546.214      633.222        0.822        0.213      110.096       15.394        0.020      338.804       11.704      877.062
01/14/2014  14:34:00       32.963       42.596        8.042       29.385       40.397       24.104      863.461     1631.944      581.004        0.302        0.154       53.861       22.869        0.180      338.899       11.864      877.054
01/14/2014  14:35:00       74.124       58.707        8.341       41.595       25.175       31.220     1730.146      633.791      974.668        0.617        0.167       94.556       17.179        0.033      338.871       11.817      877.054
01/14/2014  14:36:00      114.366       85.001       26.008       52.077       34.491       26.871     2712.059     1189.638      722.053        1.280        0.231      142.495        9.200        0.004      338.814       11.721      877.055
01/14/2014  14:37:00      100.405       96.512       10.533       34.978       26.442       28.834     1223.450      699.200      831.398        1.113        0.138      139.268       12.801        0.008      338.786       11.674      877.055
01/14/2014  14:38:00       80.868       62.831       13.781       38.480       36.109       31.793     1480.701     1303.883     1010.789        0.724        0.190      102.408       23.424        0.052      338.815       11.722      877.060
01/14/2014  14:39:00      105.902       50.811       19.251       35.334       47.618       32.988     1248.504     2267.504     1088.220        0.938        0.230      117.460       18.859        0.026      338.828       11.746      877.071
01/14/2014  14:40:00       78.621       27.078        8.078       31.602       29.012       21.552      998.659      841.680      464.488        0.464        0.115       83.153       17.485        0.044      338.929       11.913      877.069
01/14/2014  14:41:00       31.537       36.951       -0.402       27.946       23.441       16.367      780.958      549.492      267.891        0.198        0.080       48.580       10.546        0.047      338.895       11.858      877.056
01/14/2014  14:42:00       35.282        0.860        5.482       43.352       39.844       23.116     1879.425     1587.583      534.350        0.264        0.200       35.292       15.387        0.190      338.967       11.978      877.051
01/14/2014  14:43:00       19.834        7.062        8.687       20.354       39.111       24.580      414.266     1529.693      604.180        0.153        0.127       21.054       12.921        0.377      339.154       12.293      877.047
01/14/2014  14:44:00       41.592      -52.357       11.022       22.711       32.549       21.785      515.802     1059.459      474.589        0.332        0.102       66.867       17.647        0.070      339.090       12.185      877.044
01/14/2014  14:45:00       45.752        1.693       30.408       41.517       58.291       42.514     1723.627     3397.878     1807.402        0.497        0.346       45.783       49.261        1.158      339.131       12.253      877.046
01/14/2014  14:46:00       31.837       29.002       37.213       49.977       50.186       33.887     2497.679     2518.621     1148.305        0.470        0.308       43.067       33.078        0.590      339.249       12.452      877.045
01/14/2014  14:47:00       32.219      -59.235        1.131       56.335       55.078       33.075     3173.636     3033.604     1093.982        0.592        0.365       67.430       34.921        0.268      339.340       12.606      877.040
01/14/2014  14:48:00       65.995      -99.152      -11.278       37.150       33.213       24.210     1380.119     1103.109      586.122        0.869        0.153      119.107       15.259        0.016      339.090       12.185      877.038
01/14/2014  14:49:00       29.997      -32.133        8.876       42.382       41.711       35.310     1796.225     1739.847     1246.826        0.340        0.239       43.958       20.109        0.209      339.401       12.708      877.033
01/14/2014  14:50:00       30.355      -20.495        0.085       57.506       52.792       31.717     3306.920     2786.977     1005.967        0.422        0.355       36.626       25.557        0.487      339.268       12.484      877.041
01/14/2014  14:51:00       78.964       34.846       35.178       55.203       38.145       33.048     3047.405     1455.011     1092.167        0.714        0.280       86.310       31.290        0.131      339.042       12.105      877.030
01/14/2014  14:52:00       50.329       19.804       36.772       40.901       29.190       29.257     1672.910      852.085      855.976        0.383        0.169       54.085       22.699        0.176      339.153       12.292      877.016
01/14/2014  14:53:00       59.021       55.928       42.520       49.358       30.494       36.362     2436.249      929.902     1322.220        0.655        0.234       81.311       29.934        0.136      339.315       12.565      877.005
01/14/2014  14:54:00       40.614       37.105       43.196       31.080       30.844       34.141      965.991      951.328     1165.613        0.399        0.154       55.012       30.415        0.306      339.187       12.348      877.012
01/14/2014  14:55:00       57.908        2.673        8.986       28.255       31.067       16.682      798.366      965.150      278.273        0.274        0.102       57.970        9.034        0.024      339.183       12.342      877.008
01/14/2014  14:56:00       23.196        9.224       15.896       24.433       21.746       16.241      596.968      472.887      263.779        0.110        0.067       24.962        9.698        0.151      339.408       12.721      876.998
01/14/2014  14:57:00       55.254       -6.022       14.588       30.392       29.613       19.671      923.695      876.947      386.945        0.274        0.109       55.582       15.296        0.076      339.287       12.518      876.985
01/14/2014  14:58:00       31.088       46.792       56.183       38.368       28.993       21.921     1472.095      840.570      480.547        0.455        0.140       56.178       21.236        0.143      339.406       12.718      876.967
01/14/2014  14:59:00       -9.234       44.568       58.574       27.804       36.488       35.665      773.090     1331.339     1271.964        0.444        0.169       45.515       20.171        0.196      339.636       13.105      876.976
01/14/2014  15:00:00       80.312       84.704       58.560       84.671       50.307       51.448     7169.244     2530.803     2646.893        1.470        0.617      116.725       51.220        0.193      339.228       12.417      876.986
01/14/2014  15:01:00      103.111       45.522       28.648       65.409       37.834       34.873     4278.358     1431.432     1216.159        1.022        0.346      112.713       36.863        0.107      339.268       12.485      876.991
01/14/2014  15:02:00      112.240       88.691       23.984       62.060       29.524       31.536     3851.421      871.680      994.518        1.338        0.286      143.052       32.598        0.052      339.179       12.336      877.011
01/14/2014  15:03:00       19.716       31.165       17.506       27.943       29.615       32.891      780.786      877.049     1081.808        0.220        0.137       36.878       22.056        0.358      339.296       12.534      877.007
01/14/2014  15:04:00       45.350       68.387       67.146       58.371       39.367       38.559     3407.123     1549.729     1486.811        0.884        0.322       82.057       28.888        0.124      339.214       12.393      877.002
01/14/2014  15:05:00       77.711       72.267       63.468       54.171       35.581       44.704     2934.485     1266.030     1998.486        1.074        0.310      106.120       42.664        0.162      339.186       12.347      877.000
01/14/2014  15:06:00      111.041       73.087       17.595       45.610       27.363       25.834     2080.282      748.715      667.406        1.074        0.175      132.935       15.876        0.014      339.138       12.266      877.004
01/14/2014  15:07:00       26.444      -10.536       25.147       47.532       39.270       26.665     2259.313     1542.150      711.014        0.298        0.226       28.466       21.075        0.548      339.405       12.717      877.007
01/14/2014  15:08:00       71.771       65.655       57.995       39.682       45.371       31.799     1574.654     2058.488     1011.165        0.873        0.232       97.271       24.253        0.062      339.228       12.417      877.004
01/14/2014  15:09:00       31.233       26.785       22.545       26.824       27.047       24.284      719.546      731.540      589.713        0.212        0.102       41.145       21.952        0.285      339.195       12.361      877.010
01/14/2014  15:10:00       34.897       28.568       30.868       26.688       27.738       24.398      712.263      769.413      595.266        0.253        0.104       45.099       21.655        0.231      339.324       12.579      877.023
01/14/2014  15:11:00      121.298       60.482       13.171       57.086       39.913       32.488     3258.801     1593.012     1055.468        1.222        0.295      135.541       18.154        0.018      339.276       12.499      877.033
01/14/2014  15:12:00      111.571       75.362       13.921       48.964       35.902       27.134     2397.500     1288.964      736.245        1.137        0.221      134.639       10.123        0.006      339.218       12.399      877.038
01/14/2014  15:13:00       85.476       75.611        0.863       44.498       25.346       23.617     1980.053      642.399      557.765        0.810        0.159      114.119        9.432        0.007      339.299       12.538      877.033
01/14/2014  15:14:00       32.534       57.218       -6.612       24.096       37.835       20.603      580.632     1431.466      424.473        0.341        0.122       65.821       21.417        0.106      339.327       12.585      877.037
01/14/2014  15:15:00       46.434       25.616       32.357       30.323       25.820       27.208      919.497      666.653      740.276        0.309        0.116       53.031       11.590        0.048      339.324       12.579      877.043
01/14/2014  15:16:00       82.724       63.010       62.766       53.764       46.736       40.458     2890.551     2184.251     1636.815        1.073        0.336      103.988       37.664        0.131      339.369       12.654      877.050
01/14/2014  15:17:00      130.633      112.965       64.459       82.173       39.841       51.472     6752.371     1587.308     2649.337        2.248        0.549      172.702       47.919        0.077      339.270       12.487      877.065
01/14/2014  15:18:00       97.809       61.261       31.316       44.096       38.721       33.293     1944.432     1499.350     1108.391        0.943        0.228      115.410       23.420        0.041      339.273       12.494      877.086
01/14/2014  15:19:00       43.837       17.487        4.581       42.454       30.015       27.835     1802.317      900.921      774.787        0.286        0.174       47.196       16.263        0.119      339.368       12.653      877.098
01/14/2014  15:20:00       87.574       46.968        7.085       33.069       28.619       25.403     1093.530      819.073      645.318        0.624        0.128       99.374       12.359        0.015      339.326       12.582      877.091
01/14/2014  15:21:00       40.238       25.970       38.900       50.329       32.634       31.118     2533.053     1064.999      968.307        0.419        0.228       47.891       26.048        0.296      339.428       12.755      877.091
01/14/2014  15:22:00       36.963       39.152       13.892       48.035       20.048       30.908     2307.351      401.920      955.311        0.338        0.183       53.843       29.466        0.299      339.400       12.707      877.086
01/14/2014  15:23:00       14.740       51.741       76.532       43.979       76.372       38.870     1934.177     5832.714     1510.908        0.901        0.464       53.800       32.092        0.356      339.543       12.949      877.073
01/14/2014  15:24:00        6.971       69.180       75.723       33.405       52.500       30.030     1115.924     2756.295      901.816        0.767        0.239       69.530       31.169        0.201      339.548       12.956      877.079
01/14/2014  15:25:00       16.356       10.427       48.699       35.361       77.995       49.015     1250.402     6083.177     2402.457        0.624        0.487       19.397       55.319        8.133      339.415       12.732      877.077
01/14/2014  15:26:00      114.222       60.479       43.466       51.407       38.197       39.008     2642.676     1459.036     1521.600        1.211        0.281      129.245       30.896        0.057      339.405       12.716      877.075
01/14/2014  15:27:00       24.629       -0.955       14.447       51.140       42.541       22.985     2615.324     1809.770      528.305        0.288        0.248       24.648       19.124        0.602      339.532       12.929      877.091
01/14/2014  15:28:00       47.568       13.737       39.607       48.625       53.740       31.655     2364.407     2887.976     1002.067        0.514        0.313       49.512       31.006        0.392      339.432       12.761      877.095
01/14/2014  15:29:00       88.366       42.534       32.252       55.400       45.454       47.211     3069.208     2066.047     2228.861        0.901        0.368       98.069       38.811        0.157      339.321       12.573      877.092
01/14/2014  15:30:00       85.682       43.779       24.742       37.241       43.442       31.566     1386.926     1887.210      996.412        0.707        0.214       96.219       26.722        0.077      339.335       12.597      877.081
01/14/2014  15:31:00       43.801       54.507       54.370       41.743       45.875       31.281     1742.518     2104.473      978.497        0.633        0.241       69.925       22.653        0.105      339.487       12.854      877.064
01/14/2014  15:32:00       45.381       31.051       57.208       38.277       62.520       36.579     1465.110     3908.739     1338.042        0.650        0.336       54.987       39.842        0.525      339.481       12.843      877.068
01/14/2014  15:33:00       80.000       14.578       36.260       46.406       59.115       33.154     2153.492     3494.569     1099.197        0.734        0.337       81.317       29.864        0.135      339.471       12.827      877.070
01/14/2014  15:34:00       54.707        6.714       24.667       44.387       50.628       34.585     1970.244     2563.228     1196.112        0.469        0.286       55.118       28.903        0.275      339.338       12.602      877.071
01/14/2014  15:35:00       49.541      -71.816        4.894       47.938       83.385       31.821     2298.038     6953.097     1012.575        0.895        0.513       87.246       48.834        0.313      339.448       12.788      877.071
01/14/2014  15:36:00       62.070      -60.728       17.682       47.949       98.336       46.418     2299.099     9669.994     2154.596        1.099        0.706       86.837       65.175        0.563      339.402       12.710      877.073
01/14/2014  15:37:00       28.095        3.684       26.793       33.543       39.732       29.199     1125.130     1578.593      852.555        0.254        0.178       28.336       27.335        0.931      339.502       12.878      877.089
01/14/2014  15:38:00       86.825      -33.711       15.064       30.433       43.416       30.662      926.162     1884.965      940.178        0.633        0.188       93.140       28.836        0.096      339.379       12.671      877.098
01/14/2014  15:39:00       89.116       15.746        7.570       27.710       40.062       27.350      767.829     1604.968      748.042        0.568        0.156       90.496       22.073        0.059      339.282       12.509      877.108
01/14/2014  15:40:00      135.789       84.956       48.249       44.972       27.139       34.536     2022.497      736.549     1192.705        1.597        0.198      160.176       16.267        0.010      339.261       12.470      877.102
01/14/2014  15:41:00       67.150       55.127       11.002       28.158       25.984       25.690      792.901      675.184      659.957        0.490        0.106       86.879        5.030        0.003      339.336       12.601      877.111
01/14/2014  15:42:00       76.363       33.603       14.416       44.061       31.278       30.089     1941.355      978.343      905.346        0.550        0.191       83.430       14.073        0.028      339.320       12.571      877.117
01/14/2014  15:43:00       70.503       39.510       26.101       42.157       35.987       32.393     1777.207     1295.049     1049.296        0.567        0.206       80.819       22.906        0.080      339.336       12.600      877.122
01/14/2014  15:44:00       30.227       33.345       45.864       72.082       44.334       33.731     5195.880     1965.468     1137.800        0.621        0.415       45.006       34.496        0.587      339.410       12.723      877.127
01/14/2014  15:45:00       56.991       54.603       51.503       52.243       34.418       31.839     2729.293     1184.613     1013.709        0.690        0.246       78.927       11.752        0.022      339.328       12.586      877.142
01/14/2014  15:46:00       73.813       81.140       70.372       35.177       31.593       30.831     1237.452      998.144      950.544        1.008        0.159      109.690       19.721        0.032      339.380       12.673      877.143
01/14/2014  15:47:00      120.196       57.686       51.162       55.149       56.531       37.336     3041.467     3195.708     1394.004        1.401        0.382      133.322       40.047        0.090      339.337       12.600      877.151
01/14/2014  15:48:00      101.901       85.285       53.227       48.598       45.611       42.873     2361.802     2080.354     1838.119        1.338        0.314      132.881       36.223        0.074      339.298       12.535      877.157
01/14/2014  15:49:00       28.969       87.766       88.965       34.948       31.854       20.898     1221.370     1014.699      436.722        0.956        0.134       92.423       19.857        0.046      339.391       12.692      877.168
01/14/2014  15:50:00       39.332       77.418       78.212       43.192       44.397       47.679     1865.525     1971.098     2273.256        0.988        0.305       86.836       38.800        0.200      339.323       12.577      877.164
01/14/2014  15:51:00       61.000       94.476       77.401       55.837       38.239       47.344     3117.825     1462.209     2241.483        1.273        0.341      112.457       43.102        0.147      339.326       12.583      877.161
01/14/2014  15:52:00       23.098      106.630       94.731       22.259       21.721       15.296      495.445      471.794      233.970        1.104        0.060      109.103       14.406        0.017      339.330       12.589      877.161
01/14/2014  15:53:00       29.531       42.316       45.999       16.599       43.502       26.885      275.515     1892.392      722.790        0.383        0.145       51.601       31.318        0.368      339.377       12.669      877.157
01/14/2014  15:54:00        2.949      -11.127       14.012       26.230       27.861       21.351      688.010      776.227      455.875        0.112        0.096       11.511       22.077        3.678      339.568       12.991      877.146
01/14/2014  15:55:00       56.393       58.608       55.759       40.167       30.388       31.592     1613.356      923.406      998.061        0.663        0.177       81.333       25.918        0.102      339.349       12.621      877.136
01/14/2014  15:56:00       61.514       53.204       50.888       35.665       26.357       34.824     1272.017      694.698     1212.702        0.619        0.159       81.331       22.469        0.076      339.293       12.526      877.123
01/14/2014  15:57:00       45.399       43.837       33.497       32.076       29.596       31.104     1028.880      875.912      967.466        0.399        0.144       63.109       23.708        0.141      339.334       12.595      877.095
01/14/2014  15:58:00       22.294       -4.837       17.403       18.415       27.917       17.130      339.106      779.351      293.431        0.112        0.071       22.812       20.440        0.803      339.416       12.734      877.075
01/14/2014  15:59:00       34.039        1.006       25.972       24.427       42.765       26.510      596.673     1828.865      702.801        0.248        0.156       34.054       32.081        0.888      339.400       12.707      877.056
01/14/2014  16:00:00       64.571      -61.246        6.774       31.955       25.925       21.184     1021.115      672.081      448.766        0.505        0.107       88.997       13.398        0.023      339.412       12.728      877.048
01/14/2014  16:01:00       29.563       25.773       49.126       30.440       33.778       15.849      926.603     1140.928      251.188        0.313        0.116       39.220       13.776        0.123      339.361       12.641      877.038
01/14/2014  16:02:00       52.872       58.646       51.400       46.885       32.450       36.056     2198.204     1053.025     1300.035        0.671        0.228       78.961       30.109        0.145      339.355       12.632      877.041
01/14/2014  16:03:00       79.497       57.135       27.590       35.939       37.911       34.235     1291.606     1437.216     1172.051        0.712        0.195       97.899       20.312        0.043      339.264       12.477      877.045
01/14/2014  16:04:00       30.947       54.224       69.810       37.842       36.776       26.168     1432.014     1352.483      684.760        0.612        0.173       62.434       22.385        0.129      339.373       12.662      877.047
01/14/2014  16:05:00       39.318       49.270       75.961       54.671       46.100       41.346     2988.885     2125.254     1709.498        0.828        0.341       63.035       42.055        0.445      339.341       12.608      877.046
01/14/2014  16:06:00      106.044       67.891       72.568       58.958       58.258       40.129     3476.010     3393.988     1610.369        1.480        0.424      125.915       34.832        0.077      339.281       12.505      877.039
01/14/2014  16:07:00       95.846      108.675       74.077       43.356       35.259       36.989     1879.777     1243.228     1368.200        1.549        0.225      144.903       28.366        0.038      339.286       12.515      877.030
01/14/2014  16:08:00       87.117       83.156       68.920       45.043       38.496       31.700     2028.901     1481.905     1004.876        1.188        0.226      120.434       17.305        0.021      339.357       12.634      877.018
01/14/2014  16:09:00       12.151       62.488       68.051       25.364       30.562       22.640      643.357      934.009      512.559        0.539        0.104       63.658       18.518        0.085      339.400       12.708      877.012
01/14/2014  16:10:00       20.342       44.387       53.883       30.880       25.072       20.870      953.544      628.608      435.555        0.365        0.101       48.826       18.291        0.140      339.367       12.650      877.005
01/14/2014  16:11:00       41.154       32.211       34.521       35.196       23.837       20.372     1238.733      568.224      415.036        0.307        0.111       52.261       18.998        0.132      339.315       12.564      876.990
01/14/2014  16:12:00       60.223       31.562       15.404       39.746       23.937       24.866     1579.771      573.002      618.327        0.382        0.139       67.993       19.493        0.082      339.287       12.516      876.975
01/14/2014  16:13:00       63.999       26.721        3.129       27.005       22.819       20.407      729.247      520.684      416.426        0.324        0.083       69.353       14.570        0.044      339.197       12.365      876.959
01/14/2014  16:14:00       39.155       25.454       16.805       18.146       17.480       14.971      329.268      305.566      224.122        0.166        0.043       46.701        8.253        0.031      339.190       12.353      876.947
01/14/2014  16:15:00       54.170      -32.025        0.668       25.994       36.814       15.185      675.681     1355.254      230.598        0.311        0.113       62.928       19.082        0.092      339.293       12.528      876.944
01/14/2014  16:16:00       67.083      -41.918      -12.607       19.922       20.045       10.706      396.886      401.795      114.624        0.366        0.046       79.102        6.839        0.007      339.301       12.540      876.938
01/14/2014  16:17:00        3.129      -12.035        8.420       10.332       24.377       12.040      106.746      594.247      144.954        0.054        0.042       12.435       13.172        1.122      339.315       12.566      876.937
01/14/2014  16:18:00       52.349       -1.673        2.624       26.399       17.637       17.147      696.903      311.075      294.029        0.203        0.065       52.376       10.441        0.040      339.348       12.620      876.938
01/14/2014  16:19:00        3.317       -3.762       10.353       20.996       15.063       13.661      440.834      226.890      186.613        0.049        0.043        5.015       11.948        5.675      339.449       12.789      876.933
01/14/2014  16:20:00        0.042       -5.351       17.912       13.234       15.590       13.199      175.126      243.058      174.204        0.047        0.030        5.351        8.049        2.262      339.387       12.686      876.933
01/14/2014  16:21:00        4.208        1.694       20.196       19.801       26.881       19.880      392.091      722.597      395.212        0.097        0.075        4.536       19.220       17.953      339.288       12.519      876.926
01/14/2014  16:22:00       24.684      -19.932        9.569       19.154       28.227       20.885      366.881      796.786      436.192        0.135        0.080       31.726       17.782        0.314      339.261       12.473      876.925
01/14/2014  16:23:00        5.320      -22.944        8.857       11.264       36.769       15.278      126.869     1351.974      233.427        0.117        0.086       23.552       17.360        0.543      339.308       12.553      876.917
01/14/2014  16:24:00        4.674      -30.613        3.424       16.370       20.768       16.220      267.981      431.328      263.073        0.097        0.048       30.968       10.947        0.125      339.381       12.675      876.914
01/14/2014  16:25:00       -0.454        2.478       11.990       15.942       15.092       14.065      254.146      227.781      197.835        0.041        0.034        2.519       10.577       17.627      339.267       12.484      876.908
01/14/2014  16:26:00        8.797       -1.657        6.426       23.303       24.783       17.063      543.008      614.193      291.137        0.078        0.072        8.952       15.453        2.980      339.237       12.433      876.906
01/14/2014  16:27:00       25.026        9.274       16.177       24.837       15.853       14.749      616.855      251.321      217.542        0.103        0.054       26.689       12.261        0.211      339.096       12.194      876.897
01/14/2014  16:28:00       24.347       10.556       21.744       21.190       20.555       12.985      449.030      422.525      168.618        0.111        0.052       26.537        8.378        0.100      339.138       12.265      876.900
01/14/2014  16:29:00       37.321       -0.708       27.284       40.771       35.011       22.497     1662.247     1225.798      506.116        0.277        0.170       37.328       25.485        0.466      339.150       12.286      876.913
01/14/2014  16:30:00       38.466      -13.834       17.054       39.307       31.241       21.639     1545.067      976.014      468.258        0.247        0.149       40.878       25.200        0.380      339.238       12.434      876.923
01/14/2014  16:31:00       14.115      -14.442       29.512       15.305       40.103       15.536      234.240     1608.219      241.359        0.168        0.104       20.194       13.213        0.428      339.211       12.389      876.941
01/14/2014  16:32:00       33.846        7.938       41.793       43.481       52.030       44.741     1890.591     2707.167     2001.745        0.478        0.330       34.764       47.360        1.856      339.228       12.416      876.950
01/14/2014  16:33:00       53.658      -23.522       17.367       36.906       33.862       30.259     1362.088     1146.618      915.616        0.358        0.171       58.587       29.900        0.260      339.204       12.375      876.950
01/14/2014  16:34:00       24.492        7.789       30.827       24.162       32.904       19.631      583.784     1082.681      385.365        0.183        0.103       25.701       22.457        0.764      339.167       12.314      876.956
01/14/2014  16:35:00       14.068       26.727       31.440       21.013       18.614       15.006      441.539      346.466      225.178        0.146        0.051       30.203        6.417        0.045      339.047       12.112      876.958
01/14/2014  16:36:00       19.297       -9.678       17.799       23.484       35.286       25.339      551.508     1245.068      642.085        0.161        0.122       21.587       27.656        1.641      339.050       12.119      876.958
01/14/2014  16:37:00       14.876      -33.897       13.727       23.434       26.469       18.358      549.129      700.586      337.007        0.157        0.079       37.018       16.366        0.195      339.101       12.202      876.948
01/14/2014  16:38:00       15.594       -2.871       24.366       22.920       29.551       23.619      525.318      873.274      557.881        0.140        0.098       15.856       17.397        1.204      338.910       11.882      876.942
01/14/2014  16:39:00       15.443      -20.876       13.507       26.965       25.548       22.392      727.097      652.713      501.384        0.137        0.094       25.968        5.834        0.050      338.991       12.019      876.933
01/14/2014  16:40:00        5.324      -31.710        9.559       19.720       35.386       22.149      388.862     1252.192      490.575        0.163        0.107       32.154       11.784        0.134      338.952       11.953      876.915
01/14/2014  16:41:00       -0.809      -44.262      -13.559       26.026       23.128       18.906      677.363      534.891      357.425        0.186        0.078       44.269        3.917        0.008      339.000       12.032      876.897
01/14/2014  16:42:00        2.785       -7.976       17.597       25.162       34.523       22.601      633.140     1191.860      510.810        0.136        0.117        8.448       16.618        3.869      338.820       11.731      876.883
01/14/2014  16:43:00       17.049      -19.580       16.289       41.767       37.988       22.579     1744.517     1443.090      509.811        0.232        0.185       25.963       22.514        0.752      338.885       11.840      876.878
01/14/2014  16:44:00       23.357       -7.633       15.260       39.594       26.753       18.883     1567.681      715.737      356.562        0.174        0.132       24.572       16.715        0.463      338.803       11.704      876.862
01/14/2014  16:45:00      -17.234        6.423       13.426       22.991       12.552       12.534      528.604      157.558      157.110        0.068        0.042       18.392        4.057        0.049      338.730       11.580      876.844
01/14/2014  16:46:00      -10.512       -2.681       -0.688       22.988       18.604       13.833      528.470      346.126      191.340        0.059        0.053       10.848        8.137        0.563      338.807       11.708      876.836
01/14/2014  16:47:00      -14.146       21.017       15.768       15.615       19.354       14.736      243.813      374.561      217.158        0.086        0.042       25.334       11.953        0.223      338.708       11.542      876.823
01/14/2014  16:48:00       -4.965      -24.184        5.029       35.465       27.568       25.077     1257.748      760.012      628.874        0.164        0.132       24.689       21.363        0.749      338.814       11.722      876.807
01/14/2014  16:49:00       24.713      -50.136        3.556       31.025       45.809       23.695      962.550     2098.430      561.452        0.338        0.181       55.895       24.366        0.190      338.854       11.789      876.811
01/14/2014  16:50:00        1.563      -34.130        9.657       31.290       21.860       22.032      979.045      477.843      485.388        0.160        0.097       34.166       15.290        0.200      338.789       11.678      876.800
01/14/2014  16:51:00       10.213        2.229       13.512       23.571       16.808       16.071      555.579      282.504      258.291        0.069        0.055       10.453       11.697        1.252      338.679       11.493      876.798
01/14/2014  16:52:00      -30.204      -15.388        7.419       18.593       16.132       11.862      345.694      260.230      140.699        0.098        0.037       33.898       10.459        0.095      338.710       11.546      876.791
01/14/2014  16:53:00       -1.865      -36.498       -1.411       22.865       31.189       23.256      522.830      972.745      540.846        0.169        0.102       36.546       20.255        0.307      338.813       11.719      876.786
01/14/2014  16:54:00      -36.176      -21.254        6.769       27.071       24.953       16.398      732.833      622.633      268.888        0.171        0.081       41.957       15.168        0.131      338.760       11.629      876.771
01/14/2014  16:55:00      -29.190      -36.552        1.668       24.458       17.506       18.393      598.214      306.445      338.305        0.172        0.062       46.777       10.948        0.055      338.732       11.583      876.771
01/14/2014  16:56:00      -44.318      -27.052        6.386       29.669       25.386       14.060      880.263      644.458      197.687        0.223        0.086       51.922       15.550        0.090      338.678       11.492      876.765
01/14/2014  16:57:00      -34.600      -30.190        3.079       26.990       31.112       17.816      728.461      967.929      317.400        0.207        0.101       45.919       16.069        0.122      338.651       11.447      876.759
01/14/2014  16:58:00      -23.697      -16.917        2.366       25.204       27.459       15.146      635.254      753.988      229.408        0.124        0.081       29.116       13.168        0.205      338.623       11.400      876.756
01/14/2014  16:59:00      -22.014      -15.835        5.702       28.761       16.812       11.817      827.168      282.636      139.635        0.101        0.062       27.117       15.015        0.307      338.552       11.281      876.750
01/14/2014  17:00:00      -51.649      -26.350        0.309       29.997       19.389       11.866      899.835      375.924      140.812        0.239        0.071       57.983       14.425        0.062      338.560       11.294      876.735
01/14/2014  17:01:00      -90.186      -40.314        3.347       17.789       14.761       12.122      316.443      217.878      146.954        0.523        0.034       98.786       10.924        0.012      338.508       11.206      876.728
01/14/2014  17:02:00      -80.257      -15.033       -5.680       13.653       13.919       10.499      186.405      193.733      110.231        0.359        0.025       81.653        8.080        0.010      338.419       11.057      876.724
01/14/2014  17:03:00      -79.063      -15.151       -3.338       30.835       15.867       12.931      950.777      251.746      167.213        0.393        0.068       80.502       11.518        0.020      338.380       10.992      876.716
01/14/2014  17:04:00      -49.530      -15.467        2.425       25.933       23.414       13.786      672.534      548.205      190.044        0.205        0.071       51.889        9.738        0.035      338.337       10.919      876.708
01/14/2014  17:05:00      -81.673       -4.307        0.154       32.828       24.077       17.180     1077.682      579.682      295.165        0.432        0.098       81.786       15.920        0.038      338.249       10.771      876.707
01/14/2014  17:06:00      -79.677       -5.758        0.891       34.954       18.585       18.751     1221.769      345.417      351.584        0.415        0.096       79.885       19.895        0.062      338.185       10.664      876.689
01/14/2014  17:07:00      -62.745      -11.259        2.966       31.945       20.610       16.766     1020.468      424.759      281.093        0.290        0.086       63.748       17.997        0.080      338.039       10.420      876.680
01/14/2014  17:08:00      -90.155       -0.639       -2.089       36.141       16.792       16.635     1306.155      281.958      276.715        0.500        0.093       90.157       18.926        0.044      338.053       10.442      876.678
01/14/2014  17:09:00      -85.077        6.838       -7.096       22.986       20.290       14.804      528.337      411.689      219.164        0.425        0.058       85.352       10.959        0.016      337.935       10.245      876.674
01/14/2014  17:10:00      -76.049        0.732       -6.946       24.957       18.865       14.452      622.855      355.870      208.848        0.351        0.059       76.053       15.992        0.044      337.819       10.051      876.675
01/14/2014  17:11:00      -68.769       -0.425      -10.004       16.682       17.965        9.230      278.301      322.758       85.196        0.276        0.034       68.771        5.711        0.007      337.609        9.697      876.686
01/14/2014  17:12:00      -77.418        7.107      -10.002       25.766       27.724       17.248      663.876      768.636      297.505        0.394        0.087       77.744       13.096        0.028      337.412        9.368      876.698
01/14/2014  17:13:00      -62.528       20.024       -2.743       51.780       31.969       21.189     2681.174     1021.994      448.955        0.423        0.208       65.656       20.319        0.096      337.423        9.387      876.708
01/14/2014  17:14:00      -89.024       -1.766       -8.297       31.733       22.677       16.438     1007.005      514.239      270.194        0.489        0.090       89.042        8.932        0.010      337.393        9.337      876.711
01/14/2014  17:15:00      -88.060        2.662      -14.301       38.069       32.570       17.738     1449.215     1060.784      314.649        0.539        0.141       88.100       16.581        0.035      337.332        9.234      876.721
01/14/2014  17:16:00      -90.169       -8.131      -13.335       32.201       26.200       17.863     1036.932      686.452      319.089        0.521        0.102       90.535       14.382        0.025      337.302        9.184      876.731
01/14/2014  17:17:00      -78.123      -29.675      -11.484       20.301       21.319       10.615      412.139      454.513      112.686        0.405        0.049       83.569        8.188        0.010      337.147        8.925      876.732
01/14/2014  17:18:00      -83.250      -38.273      -15.560       17.926       19.123       11.198      321.356      365.673      125.396        0.472        0.041       91.626        7.544        0.007      337.044        8.751      876.728
01/14/2014  17:19:00      -59.927      -24.041       -8.380       24.742       25.539       18.061      612.178      652.253      326.202        0.291        0.080       64.570       13.193        0.042      337.101        8.847      876.717
01/14/2014  17:20:00      -62.244      -35.693       -1.823       18.500       23.893       13.800      342.259      570.874      190.429        0.313        0.055       71.751        9.733        0.018      337.081        8.814      876.711
01/14/2014  17:21:00      -65.643      -27.707       -9.037       17.606       20.987       10.727      309.979      440.465      115.078        0.301        0.043       71.251        5.494        0.006      337.011        8.697      876.723
01/14/2014  17:22:00      -77.055      -35.943      -17.222       17.194       16.113       10.909      295.623      259.619      119.001        0.410        0.034       85.026        6.627        0.006      336.951        8.598      876.733
01/14/2014  17:23:00      -55.743      -28.035      -14.900       26.073       15.081       14.129      679.824      227.424      199.639        0.261        0.055       62.396        9.701        0.024      336.921        8.547      876.743
01/14/2014  17:24:00      -51.873      -27.756      -15.238       13.229       14.338       10.053      175.014      205.583      101.069        0.209        0.024       58.832        5.452        0.009      336.965        8.620      876.757
01/14/2014  17:25:00      -28.358      -22.723       -6.495       15.837       12.072       11.522      250.800      145.722      132.754        0.095        0.026       36.339        5.389        0.022      336.916        8.538      876.758
01/14/2014  17:26:00      -30.628        2.058       -7.253       18.320        7.951        8.011      335.631       63.214       64.172        0.073        0.023       30.697        3.912        0.016      336.946        8.588      876.762
01/14/2014  17:27:00      -17.834        2.224       -5.618       11.556        8.469        9.728      133.540       71.724       94.639        0.033        0.015       17.972        5.572        0.096      336.998        8.675      876.773
01/14/2014  17:28:00       -5.798       17.624        0.046       12.983       11.803        8.934      168.564      139.305       79.821        0.037        0.019       18.554        4.465        0.058      337.306        9.191      876.772
01/14/2014  17:29:00       -9.547       29.883       -7.908       23.074       23.829       11.656      532.400      567.838      135.864        0.114        0.062       31.370        7.059        0.051      337.544        9.590      876.775
01/14/2014  17:30:00        0.646       59.171       -9.270       26.342       31.103       12.362      693.907      967.383      152.815        0.270        0.091       59.175       14.718        0.062      337.674        9.808      876.785
01/14/2014  17:31:00       12.797      106.734      -17.294       23.801       29.529       12.048      566.487      871.952      145.147        0.672        0.079      107.499        9.969        0.009      337.597        9.677      876.795
01/14/2014  17:32:00      -38.655       80.031      -12.558       27.035       43.609       18.623      730.892     1901.721      346.817        0.552        0.149       88.877       15.649        0.031      337.572        9.637      876.809
01/14/2014  17:33:00      -33.959       13.044      -10.973       17.561       23.727       14.205      308.406      562.955      201.774        0.126        0.054       36.378       11.143        0.094      337.200        9.015      876.822
01/14/2014  17:34:00      -48.286       -9.657      -10.977       13.653       11.996       12.537      186.409      143.894      157.187        0.152        0.024       49.242        5.697        0.013      336.777        8.307      876.844
01/14/2014  17:35:00      -51.154      -15.558       -8.405       17.650       22.713       15.307      311.508      515.878      234.305        0.200        0.053       53.468       14.138        0.070      336.856        8.439      876.853
01/14/2014  17:36:00      -71.844       -6.490      -22.077       25.035       14.272       12.829      626.759      203.682      164.590        0.334        0.050       72.136       13.190        0.033      336.634        8.068      876.850
01/14/2014  17:37:00      -90.741       -2.383      -18.811       20.123       21.656       13.257      404.946      468.994      175.742        0.482        0.052       90.773       11.091        0.015      336.239        7.406      876.849
01/14/2014  17:38:00     -103.873        5.349      -20.959       21.239       16.319       15.300      451.087      266.302      234.077        0.610        0.048      104.010        7.471        0.005      336.296        7.501      876.853
01/14/2014  17:39:00     -122.339        0.171      -28.218       20.638       13.358       11.988      425.922      178.447      143.719        0.826        0.037      122.339        5.825        0.002      336.259        7.440      876.846
01/14/2014  17:40:00     -105.123        4.547      -19.537       23.893       18.544       17.604      570.853      343.867      309.891        0.634        0.061      105.221       13.227        0.016      336.269        7.457      876.837
01/14/2014  17:41:00      -99.451        2.370      -26.812       16.463       12.973       11.544      271.042      168.296      133.254        0.559        0.029       99.479        9.063        0.008      336.392        7.664      876.833
01/14/2014  17:42:00      -99.919       -9.718      -21.287       14.684       14.570       11.250      215.630      212.291      126.571        0.554        0.028      100.390        7.579        0.006      336.294        7.500      876.822
01/14/2014  17:43:00      -73.237      -21.775       -9.572       20.632       21.770       13.536      425.660      473.919      183.224        0.351        0.054       76.406       10.627        0.019      336.275        7.467      876.824
01/14/2014  17:44:00      -95.246      -30.068       -9.516       18.760       25.684       14.682      351.945      659.687      215.555        0.565        0.061       99.879       10.244        0.011      336.179        7.306      876.827
01/14/2014  17:45:00     -100.791      -37.259      -18.042       18.667       23.916       12.317      348.470      571.991      151.715        0.647        0.054      107.457       10.806        0.010      336.223        7.380      876.827
01/14/2014  17:46:00     -103.983      -52.396      -23.337       14.765       21.769       13.229      218.001      473.881      175.001        0.748        0.043      116.438       11.515        0.010      336.264        7.450      876.830
01/14/2014  17:47:00     -100.187      -41.549      -21.328       15.026       22.162       11.989      225.768      491.175      143.732        0.654        0.043      108.461       11.548        0.011      336.260        7.443      876.841
01/14/2014  17:48:00      -97.445      -32.110      -23.863       12.321        9.464       10.056      151.796       89.572      101.129        0.572        0.017      102.599        7.024        0.005      336.314        7.532      876.852
01/14/2014  17:49:00     -113.114      -33.255      -20.799       14.243       14.029       10.997      202.870      196.821      120.933        0.743        0.026      117.901        4.702        0.002      336.235        7.400      876.868
01/14/2014  17:50:00      -77.705      -60.898      -17.248       21.833       17.886       12.389      476.699      319.926      153.493        0.550        0.048       98.724        8.459        0.007      336.203        7.347      876.876
01/14/2014  17:51:00      -80.475      -49.617      -15.810       22.398       19.769       10.999      501.674      390.821      120.980        0.510        0.051       94.542       10.064        0.011      336.179        7.308      876.879
01/14/2014  17:52:00     -110.633      -38.091      -20.435        8.944       15.133        7.572       80.001      229.013       57.342        0.724        0.018      117.007        2.358        0.000      336.164        7.281      876.879
01/14/2014  17:53:00     -107.106      -50.310      -16.574       20.895       18.134       10.442      436.609      328.825      109.028        0.758        0.044      118.333        6.761        0.003      336.220        7.375      876.884
01/14/2014  17:54:00     -133.175      -45.039      -19.563       12.035        9.434        7.848      144.847       89.000       61.590        1.022        0.015      140.585        3.857        0.001      336.240        7.407      876.885
01/14/2014  17:55:00     -133.098      -46.069      -12.038       20.208       17.856       10.220      408.347      318.849      104.453        1.041        0.042      140.845       10.271        0.005      336.249        7.424      876.887
01/14/2014  17:56:00     -120.989      -61.531      -14.743       17.086       17.534       13.787      291.938      307.445      190.074        0.972        0.039      135.736        5.730        0.002      336.179        7.308      876.888
01/14/2014  17:57:00     -112.417      -68.913      -10.257       17.160       20.554       13.227      294.454      422.447      174.950        0.919        0.045      131.858        3.140        0.001      336.177        7.303      876.895
01/14/2014  17:58:00     -107.761      -68.522      -10.283       22.979       20.767       17.704      528.046      431.260      313.431        0.884        0.064      127.702       12.078        0.009      336.168        7.288      876.901
01/14/2014  17:59:00     -112.758      -74.183      -14.095       26.534       19.322       16.662      704.066      373.356      277.623        0.989        0.068      134.972        8.504        0.004      336.162        7.278      876.912
01/14/2014  18:00:00     -138.238      -74.054      -17.804       16.076       15.307       11.402      258.447      234.292      130.012        1.277        0.031      156.824        6.533        0.002      336.062        7.110      876.910
01/14/2014  18:01:00     -143.680      -65.691      -14.836       13.884       14.359       11.201      192.761      206.188      125.464        1.285        0.026      157.985        5.458        0.001      336.003        7.013      876.917
01/14/2014  18:02:00     -147.383      -70.687      -10.692       15.417       19.169       14.450      237.672      367.455      208.803        1.382        0.041      163.458        9.272        0.003      336.003        7.011      876.928
01/14/2014  18:03:00     -147.030      -76.580       -6.280       30.246       21.098       20.024      914.823      445.134      400.964        1.464        0.088      165.778       15.663        0.009      335.967        6.954      876.934
01/14/2014  18:04:00     -158.698      -77.475      -13.945       24.143       22.631       18.888      582.862      512.173      356.766        1.642        0.073      176.600        5.284        0.001      335.904        6.848      876.938
01/14/2014  18:05:00     -147.406      -71.943       -5.412       33.769       29.701       23.976     1140.360      882.178      574.850        1.477        0.130      164.026       19.664        0.014      335.901        6.843      876.948
01/14/2014  18:06:00     -155.605      -55.520      -10.016       31.306       27.034       18.799      980.097      730.828      353.407        1.473        0.103      165.213       13.456        0.007      335.850        6.758      876.952
01/14/2014  18:07:00     -132.338      -55.513       -9.984       30.849       30.540       21.077      951.689      932.687      444.224        1.151        0.116      143.509       16.370        0.013      335.849        6.756      876.967
01/14/2014  18:08:00     -105.237      -38.211       -8.261       26.861       27.161       15.687      721.500      737.731      246.082        0.715        0.085      111.959        6.135        0.003      335.765        6.618      876.973
01/14/2014  18:09:00     -109.916      -30.844      -14.462       21.578       22.525       17.144      465.594      507.369      293.920        0.725        0.063      114.162       10.509        0.008      335.777        6.637      876.982
01/14/2014  18:10:00     -121.637      -66.436      -17.271       18.480       20.614       15.539      341.526      424.952      241.470        1.026        0.050      138.597       11.181        0.007      335.759        6.607      876.995
01/14/2014  18:11:00     -125.613      -66.898      -19.347       24.314       25.617       18.672      591.187      656.213      348.627        1.111        0.080      142.316       17.810        0.016      335.777        6.638      876.993
01/14/2014  18:12:00     -128.940      -51.712      -24.860       19.742       21.174       14.927      389.753      448.332      222.811        1.049        0.053      138.924        8.826        0.004      335.778        6.638      876.998
01/14/2014  18:13:00     -117.495      -51.781      -18.341       19.202       16.635       11.645      368.717      276.737      135.611        0.880        0.039      128.399        7.813        0.004      335.725        6.550      877.001
01/14/2014  18:14:00      -98.708      -60.682      -17.211       20.402       23.884       14.474      416.251      570.451      209.501        0.746        0.060      115.869       12.714        0.012      335.711        6.526      877.006
01/14/2014  18:15:00     -119.116      -65.267      -19.461       30.445       22.946       14.206      926.883      526.525      201.803        1.024        0.083      135.825        8.633        0.004      335.614        6.367      877.022
01/14/2014  18:16:00      -93.871      -76.732      -13.563       36.586       30.683       21.512     1338.557      941.428      462.778        0.881        0.137      121.242       11.356        0.009      335.652        6.428      877.033
01/14/2014  18:17:00     -108.645      -57.838      -10.696       28.644       23.449       15.940      820.484      549.836      254.097        0.844        0.081      123.081       15.174        0.015      335.627        6.386      877.042
01/14/2014  18:18:00     -126.613      -56.952      -12.537       21.513       24.545       17.263      462.822      602.482      298.017        1.040        0.068      138.832       10.695        0.006      335.506        6.185      877.047
01/14/2014  18:19:00     -135.869      -60.834      -16.634       24.461       26.929       20.090      598.327      725.180      403.594        1.208        0.086      148.866        8.898        0.004      335.541        6.245      877.051
01/14/2014  18:20:00     -139.663      -41.614       -9.251       36.209       29.866       22.292     1311.062      891.949      496.922        1.201        0.135      145.731       21.796        0.022      335.519        6.207      877.060
01/14/2014  18:21:00     -115.117      -43.660       -2.315       38.799       39.600       23.619     1505.363     1568.132      557.872        0.940        0.182      123.118       19.314        0.025      335.462        6.111      877.065
01/14/2014  18:22:00     -135.642      -12.805       -7.852       39.324       30.563       24.332     1546.345      934.107      592.041        1.085        0.154      136.245       21.744        0.025      335.436        6.068      877.066
01/14/2014  18:23:00     -131.221      -10.943       -5.505       37.092       32.771       25.542     1375.805     1073.960      652.404        1.023        0.155      131.676       20.560        0.024      335.419        6.039      877.067
01/14/2014  18:24:00     -102.024      -35.001       -7.894       44.099       31.192       26.560     1944.678      972.917      705.441        0.766        0.181      107.861       27.512        0.065      335.399        6.006      877.085
01/14/2014  18:25:00     -128.060      -18.892      -10.482       33.801       25.303       19.266     1142.484      640.221      371.190        0.951        0.108      129.446       16.431        0.016      335.394        5.999      877.093
01/14/2014  18:26:00      -81.306      -14.608       -8.665       52.885       22.119       16.869     2796.816      489.271      284.567        0.523        0.179       82.608       11.497        0.019      335.372        5.960      877.103
01/14/2014  18:27:00     -105.981       -6.919      -16.253       28.527       29.332       17.437      813.796      860.362      304.056        0.676        0.099      106.206       14.089        0.018      335.495        6.167      877.113
01/14/2014  18:28:00     -105.301       -3.492      -11.739       47.660       24.449       22.451     2271.478      597.743      504.042        0.731        0.169      105.359       21.932        0.043      335.537        6.238      877.121
01/14/2014  18:29:00      -94.617      -25.934       -3.969       33.689       27.568       22.136     1134.942      759.987      490.021        0.601        0.119       98.107       13.258        0.018      335.432        6.061      877.127
01/14/2014  18:30:00     -108.814      -21.433      -11.556       31.581       26.824       17.970      997.343      719.514      322.912        0.724        0.102      110.905       16.984        0.023      335.476        6.136      877.129
01/14/2014  18:31:00     -103.897      -21.221      -13.126       22.323       24.382       15.219      498.332      594.480      231.609        0.637        0.066      106.042       13.261        0.016      335.435        6.065      877.138
01/14/2014  18:32:00     -110.491       -5.544      -12.438       33.647       20.237       17.176     1132.131      409.516      295.003        0.711        0.092      110.630       12.872        0.014      335.392        5.994      877.152
01/14/2014  18:33:00     -107.868      -17.471       -9.441       24.129       18.397       18.982      582.221      338.435      360.310        0.666        0.064      109.274       13.680        0.016      335.502        6.179      877.157
01/14/2014  18:34:00      -90.981      -36.191       -8.653       20.057       19.987       16.625      402.294      399.491      276.389        0.537        0.054       97.915        9.920        0.010      335.489        6.157      877.174
01/14/2014  18:35:00      -95.832      -41.480      -17.465       20.382       20.111       13.793      415.421      404.440      190.233        0.611        0.051      104.424       10.091        0.009      335.494        6.165      877.178
01/14/2014  18:36:00      -92.113      -48.439      -21.377       22.354       24.416       16.418      499.697      596.160      269.539        0.633        0.068      104.072        6.710        0.004      335.468        6.122      877.186
01/14/2014  18:37:00      -91.069      -32.687      -11.974       28.560       30.681       18.944      815.650      941.331      358.882        0.581        0.106       96.757       13.977        0.021      335.425        6.049      877.184
01/14/2014  18:38:00     -104.960      -24.173      -13.492       29.724       28.183       17.467      883.536      794.291      305.099        0.688        0.099      107.708       13.101        0.015      335.530        6.224      877.184
01/14/2014  18:39:00      -78.501      -31.012      -14.490       26.178       24.583       16.853      685.293      604.307      284.038        0.445        0.079       84.405       14.062        0.028      335.392        5.994      877.173
01/14/2014  18:40:00      -91.117      -21.766      -15.179       17.179       18.632       12.971      295.108      347.135      168.241        0.491        0.041       93.680        9.095        0.009      335.393        5.996      877.170
01/14/2014  18:41:00      -91.279      -21.829      -20.475       16.103       16.520       14.139      259.317      272.921      199.913        0.498        0.037       93.853       10.557        0.013      335.478        6.138      877.155
01/14/2014  18:42:00      -79.869      -25.831      -10.473       16.715       17.704       12.977      279.389      313.421      168.395        0.396        0.038       83.943       10.969        0.017      335.479        6.139      877.142
01/14/2014  18:43:00      -96.163      -11.598      -23.573       18.832       19.616       12.047      354.647      384.773      145.129        0.541        0.044       96.860        8.513        0.008      335.622        6.378      877.136
01/14/2014  18:44:00      -94.672      -25.954      -21.753       16.891       12.285        9.127      285.297      150.920       83.304        0.531        0.026       98.165        6.122        0.004      335.455        6.099      877.150
01/14/2014  18:45:00     -115.976      -10.579      -24.205       14.089       12.918       12.333      198.500      166.875      152.101        0.733        0.026      116.458        7.919        0.005      335.456        6.102      877.152
01/14/2014  18:46:00     -113.384       -7.835      -21.740       19.564       18.463       15.715      382.742      340.871      246.958        0.718        0.049      113.654        8.728        0.006      335.404        6.015      877.166
01/14/2014  18:47:00      -75.280       -7.151      -10.753       25.789       20.863       15.545      665.083      435.274      241.661        0.359        0.067       75.619       12.128        0.026      335.403        6.013      877.169
01/14/2014  18:48:00      -38.939      -10.840       -0.310       19.472       20.352       12.926      379.174      414.187      167.093        0.130        0.048       40.419       10.152        0.063      335.266        5.785      877.184
01/14/2014  18:49:00      -67.046       -4.289      -16.057       17.163       13.140        9.615      294.555      172.652       92.449        0.267        0.028       67.183        8.170        0.015      335.478        6.138      877.185
01/14/2014  18:50:00      -57.057      -13.613       -9.100       13.252       14.742       10.327      175.628      217.316      106.657        0.201        0.025       58.658        4.412        0.006      335.622        6.378      877.194
01/14/2014  18:51:00      -77.535      -17.697      -12.356       14.703       16.338        8.955      216.167      266.944       80.187        0.352        0.028       79.529        7.175        0.008      335.507        6.188      877.190
01/14/2014  18:52:00      -92.624      -19.927      -16.870       18.418       16.127       10.609      339.230      260.066      112.551        0.499        0.036       94.743        8.734        0.008      335.519        6.207      877.197
01/14/2014  18:53:00      -78.445      -13.300      -16.275       13.035       15.184       10.770      169.904      230.541      115.987        0.356        0.026       79.565        6.129        0.006      335.431        6.060      877.209
01/14/2014  18:54:00      -88.306       -7.406      -15.452       17.991       13.973       12.091      323.665      195.239      146.192        0.438        0.033       88.616        6.546        0.005      335.400        6.009      877.214
01/14/2014  18:55:00      -85.755      -12.831      -16.146       16.890       18.197       12.779      285.262      331.122      163.301        0.428        0.039       86.709        7.843        0.008      335.357        5.936      877.210
01/14/2014  18:56:00      -90.604       -6.180      -14.269       19.450       18.157       15.589      378.302      329.686      243.029        0.470        0.048       90.815        9.830        0.012      335.369        5.956      877.202
01/14/2014  18:57:00      -91.064       -5.121      -14.736       17.464       16.879       11.675      305.007      284.885      136.314        0.463        0.036       91.208        7.316        0.006      335.328        5.887      877.202
01/14/2014  18:58:00      -84.933       -6.887      -15.479       19.681       17.114       11.449      387.349      292.878      131.089        0.416        0.041       85.212        9.487        0.012      335.344        5.915      877.202
01/14/2014  18:59:00      -78.876      -26.815      -12.235       14.298       18.142       13.761      204.427      329.122      189.359        0.391        0.036       83.309       13.317        0.026      335.388        5.989      877.226
01/14/2014  19:00:00      -82.339      -11.063      -19.043       20.880       20.334       12.608      435.970      413.487      158.959        0.414        0.050       83.079       12.137        0.021      335.409        6.023      877.250
01/14/2014  19:01:00      -72.499      -37.005      -17.507       16.404       16.557       12.113      269.107      274.128      146.715        0.381        0.034       81.397        8.681        0.011      335.329        5.890      877.268
01/14/2014  19:02:00      -95.125      -38.407      -24.504       16.458       19.121       15.848      270.868      365.619      251.174        0.601        0.044      102.586       10.257        0.010      335.330        5.891      877.283
01/14/2014  19:03:00     -107.680      -39.796      -16.744       16.445       18.720       10.087      270.429      350.447      101.743        0.709        0.036      114.799        9.545        0.007      335.335        5.899      877.285
01/14/2014  19:04:00     -118.470      -44.634      -15.784       13.084       12.826       10.571      171.199      164.513      111.746        0.836        0.022      126.599        9.018        0.005      335.397        6.003      877.300
01/14/2014  19:05:00     -101.179      -47.754      -10.473        8.923       19.848       10.709       79.613      393.939      114.676        0.661        0.029      111.882        6.177        0.003      335.388        5.989      877.306
01/14/2014  19:06:00      -89.256      -45.470       -9.344       16.450       17.119        9.605      270.598      293.057       92.257        0.539        0.033      100.170        6.186        0.004      335.352        5.927      877.310
01/14/2014  19:07:00      -67.759      -44.403       -7.401       25.772       25.935       21.346      664.181      672.625      455.652        0.420        0.090       81.012       15.593        0.037      335.281        5.810      877.326
01/14/2014  19:08:00     -106.453      -69.111      -12.499       27.980       25.891       16.390      782.861      670.328      268.644        0.899        0.086      126.919       11.284        0.008      335.253        5.763      877.332
01/14/2014  19:09:00     -115.616      -63.702       -5.036       32.368       21.606       17.633     1047.672      466.826      310.920        0.964        0.091      132.004       13.094        0.010      335.185        5.650      877.322
01/14/2014  19:10:00     -127.514      -67.589       -3.691       32.644       21.325       14.887     1065.616      454.775      221.631        1.129        0.087      144.320       11.781        0.007      335.122        5.548      877.323
01/14/2014  19:11:00     -143.961      -55.392      -20.156       20.858       16.676       13.240      435.058      278.089      175.304        1.254        0.044      154.250        7.806        0.003      335.060        5.443      877.319
01/14/2014  19:12:00     -136.231      -67.589      -17.476       14.968       18.899       14.237      224.032      357.184      202.693        1.211        0.039      152.076        5.968        0.002      335.075        5.469      877.305
01/14/2014  19:13:00     -124.704      -49.970      -15.287       14.621       17.002       12.509      213.761      289.078      156.464        0.947        0.033      134.343        6.897        0.003      335.066        5.453      877.307
01/14/2014  19:14:00     -126.699      -58.350       -2.486       41.297       18.376       16.952     1705.406      337.662      287.368        1.090        0.117      139.490       20.333        0.021      335.065        5.452      877.300
01/14/2014  19:15:00     -125.495      -53.584       -3.548       37.858       26.218       19.032     1433.233      687.408      362.216        1.056        0.124      136.456       21.280        0.024      335.023        5.381      877.296
01/14/2014  19:16:00     -114.031      -55.449      -15.715       19.975       23.502       20.314      398.982      552.332      412.669        0.884        0.068      126.798       14.998        0.014      335.036        5.404      877.306
01/14/2014  19:17:00     -122.889      -66.321       -6.310       27.412       19.144       18.005      751.443      366.494      324.184        1.049        0.072      139.643       18.171        0.017      335.014        5.368      877.322
01/14/2014  19:18:00     -103.182      -54.583        2.654       37.175       26.892       21.904     1381.959      723.204      479.804        0.811        0.129      116.730       22.362        0.037      334.986        5.322      877.334
01/14/2014  19:19:00      -56.335      -48.408        6.304       46.014       28.109       22.136     2117.297      790.103      490.006        0.448        0.170       74.277       23.993        0.104      334.986        5.321      877.348
01/14/2014  19:20:00      -55.098      -43.167        8.694       36.817       29.237       21.311     1355.491      854.819      454.176        0.382        0.133       69.994       17.033        0.059      334.949        5.259      877.363
01/14/2014  19:21:00      -73.531      -59.305        4.505       41.132       24.287       26.581     1691.833      589.838      706.526        0.597        0.149       94.466       25.147        0.071      334.977        5.308      877.371
01/14/2014  19:22:00      -86.316      -58.351       -2.232       37.541       29.295       20.764     1409.346      858.181      431.141        0.678        0.135      104.189       22.271        0.046      335.019        5.376      877.364
01/14/2014  19:23:00      -72.855      -70.931        2.371       38.845       44.078       23.080     1508.960     1942.865      532.709        0.716        0.199      101.682       22.899        0.051      334.995        5.336      877.363
01/14/2014  19:24:00      -83.036      -75.003       -1.239       36.199       38.419       23.709     1310.359     1476.012      562.093        0.793        0.167      111.894       23.921        0.046      334.923        5.217      877.362
01/14/2014  19:25:00      -81.016      -87.056       -5.070       39.094       30.391       23.834     1528.316      923.628      568.071        0.859        0.151      118.922       22.646        0.036      334.893        5.166      877.359
01/14/2014  19:26:00      -80.586      -92.589       -1.492       27.383       34.354       21.622      749.844     1180.204      467.530        0.873        0.120      122.747       18.990        0.024      334.878        5.141      877.361
01/14/2014  19:27:00      -88.681      -83.051       -2.441       31.021       37.490       17.054      962.293     1405.536      290.848        0.871        0.133      121.498       13.834        0.013      334.885        5.153      877.358
01/14/2014  19:28:00     -112.460      -92.539       -8.807       31.787       36.891       20.017     1010.417     1360.946      400.664        1.203        0.139      145.639       16.368        0.013      334.987        5.323      877.360
01/14/2014  19:29:00      -82.274      -64.507       -0.521       34.532       35.111       21.823     1192.425     1232.770      476.239        0.692        0.145      104.548       16.649        0.025      334.946        5.253      877.368
01/14/2014  19:30:00      -86.028      -85.494       -1.858       39.729       35.786       20.208     1578.372     1280.624      408.347        0.899        0.163      121.285       22.786        0.035      334.943        5.249      877.361
01/14/2014  19:31:00     -101.939      -86.192      -13.406       24.949       34.379       19.926      622.439     1181.909      397.041        1.010        0.110      133.494       18.120        0.018      334.937        5.240      877.363
01/14/2014  19:32:00      -92.407      -55.388       -0.324       41.822       30.793       19.975     1749.074      948.192      399.012        0.735        0.155      107.735       21.623        0.040      334.883        5.150      877.358
01/14/2014  19:33:00     -105.690      -56.076       -0.876       26.761       20.918       17.881      716.170      437.562      319.739        0.789        0.074      119.645       12.813        0.011      334.781        4.980      877.343
01/14/2014  19:34:00      -92.309      -58.721       -1.357       26.862       19.781       16.445      721.585      391.278      270.442        0.668        0.069      109.404       13.211        0.015      334.722        4.882      877.338
01/14/2014  19:35:00     -112.917      -28.207       -6.413       25.488       20.868       15.916      649.649      435.490      253.325        0.746        0.067      116.386       12.360        0.011      334.775        4.969      877.325
01/14/2014  19:36:00     -112.673      -48.561       -4.035       21.503       20.871       12.699      462.382      435.589      161.266        0.806        0.053      122.692        9.457        0.006      334.740        4.912      877.326
01/14/2014  19:37:00      -90.051      -46.744        1.443       52.466       30.752       20.553     2752.669      945.662      422.429        0.721        0.206      101.460       24.668        0.059      334.722        4.882      877.319
01/14/2014  19:38:00     -108.929      -61.795        2.452       29.675       25.807       18.833      880.591      665.978      354.665        0.880        0.095      125.237       16.574        0.018      334.716        4.871      877.310
01/14/2014  19:39:00      -90.899      -43.578       -1.649       38.801       26.586       21.499     1505.551      706.797      462.203        0.642        0.134      100.805       19.102        0.036      334.643        4.750      877.309
01/14/2014  19:40:00     -122.860      -62.823       -8.269       18.505       17.756       15.001      342.417      315.272      225.022        1.000        0.044      137.990        8.451        0.004      334.569        4.628      877.302
01/14/2014  19:41:00     -103.417      -34.672       -4.825       34.586       21.124       18.698     1196.170      446.223      349.597        0.696        0.100      109.075       19.454        0.032      334.509        4.527      877.309
01/14/2014  19:42:00     -102.854      -39.407        2.916       26.135       21.194       15.723      683.064      449.181      247.214        0.676        0.069      110.144       14.818        0.018      334.484        4.485      877.315
01/14/2014  19:43:00     -104.714      -30.948        4.349       38.566       24.215       19.048     1487.305      586.352      362.823        0.719        0.122      109.192       22.438        0.042      334.513        4.535      877.321
01/14/2014  19:44:00     -132.249      -44.195       -4.554       26.201       20.417       15.321      686.515      416.871      234.720        1.040        0.067      139.439       13.186        0.009      334.468        4.460      877.294
01/14/2014  19:45:00     -119.144      -44.711       -3.814       32.961       22.754       16.864     1086.438      517.725      284.401        0.905        0.094      127.257       13.975        0.012      334.466        4.456      877.272
01/14/2014  19:46:00     -117.094      -50.313       -3.054       35.012       24.761       17.657     1225.872      613.126      311.773        0.920        0.108      127.446       16.260        0.016      334.473        4.470      877.257
01/14/2014  19:47:00     -144.983      -34.754       -9.976       32.864       30.630       17.506     1080.010      938.195      306.448        1.233        0.116      149.090       15.080        0.010      334.409        4.363      877.230
01/14/2014  19:48:00     -141.666      -34.469      -11.834       34.476       26.494       19.639     1188.568      701.927      385.702        1.184        0.114      145.799       17.414        0.014      334.393        4.336      877.213
01/14/2014  19:49:00     -130.566       -6.925      -12.311       44.597       31.086       21.840     1988.873      966.325      476.993        1.034        0.172      130.750       22.596        0.030      334.266        4.125      877.219
01/14/2014  19:50:00     -131.889       10.103       -4.123       53.514       51.608       28.798     2863.707     2663.367      829.353        1.193        0.318      132.275       29.654        0.050      334.367        4.293      877.218
01/14/2014  19:51:00     -108.541       30.114      -11.582       54.083       31.595       30.449     2925.016      998.267      927.128        0.884        0.243      112.641       23.798        0.045      334.370        4.298      877.222
01/14/2014  19:52:00     -106.927       33.428      -14.547       52.286       40.379       28.920     2733.834     1630.457      836.349        0.898        0.260      112.031       23.885        0.045      334.376        4.308      877.217
01/14/2014  19:53:00      -86.625       11.573       -6.101       42.667       33.559       26.075     1820.447     1126.177      679.916        0.565        0.181       87.394       21.544        0.061      334.349        4.264      877.221
01/14/2014  19:54:00     -100.431       -1.237      -16.484       34.256       41.066       24.152     1173.479     1686.455      583.333        0.690        0.172      100.438       16.703        0.028      334.284        4.154      877.224
01/14/2014  19:55:00     -122.311        5.813      -14.895       41.353       31.944       21.744     1710.073     1020.448      472.812        0.921        0.160      122.449       14.460        0.014      334.238        4.079      877.215
01/14/2014  19:56:00     -136.176       12.648      -17.764       38.341       31.389       24.487     1470.021      985.278      599.612        1.104        0.153      136.762       22.432        0.027      334.263        4.121      877.214
01/14/2014  19:57:00      -73.360       -5.903       -2.268       25.876       34.621       22.789      669.553     1198.594      519.345        0.390        0.119       73.597       21.144        0.083      334.291        4.167      877.224
01/14/2014  19:58:00      -62.789      -29.529       -7.389       22.160       18.543       22.307      491.046      343.833      497.600        0.310        0.067       69.386        8.092        0.014      334.198        4.012      877.218
01/14/2014  19:59:00      -86.735      -27.230      -14.006       24.845       22.003       17.302      617.256      484.150      299.365        0.493        0.070       90.909       10.366        0.013      334.086        3.825      877.206
01/14/2014  20:00:00      -84.551      -33.710      -15.392       19.791       19.528       17.484      391.686      381.360      305.701        0.480        0.054       91.023        9.871        0.012      334.066        3.792      877.193
01/14/2014  20:01:00      -98.607      -40.043      -18.557       17.486       18.117       12.950      305.743      328.239      167.693        0.624        0.040      106.427        6.348        0.004      334.065        3.791      877.179
01/14/2014  20:02:00      -99.953      -43.218      -20.884       24.473       21.435       17.999      598.927      459.477      323.968        0.684        0.069      108.897       10.434        0.009      334.007        3.697      877.170
01/14/2014  20:03:00      -84.927      -42.364      -21.943       31.870       28.264       21.455     1015.714      798.882      460.302        0.588        0.114       94.907       11.149        0.014      334.074        3.806      877.174
01/14/2014  20:04:00      -44.774      -18.170       -1.811       33.306       19.593       19.485     1109.284      383.868      379.676        0.211        0.094       48.320       12.480        0.067      334.038        3.748      877.178
01/14/2014  20:05:00      -98.471      -28.228      -20.184       26.355       26.017       18.071      694.576      676.897      326.571        0.630        0.085      102.437        8.123        0.006      334.010        3.701      877.184
01/14/2014  20:06:00     -115.810      -45.732      -19.904       24.631       26.495       18.142      606.693      701.972      329.141        0.877        0.082      124.513       11.498        0.009      334.060        3.782      877.194
01/14/2014  20:07:00      -85.449      -61.095      -14.677       28.599       32.417       19.561      817.919     1050.848      382.626        0.675        0.113      105.043        6.084        0.003      334.051        3.769      877.205
01/14/2014  20:08:00     -120.718      -41.178      -14.959       16.338       16.804        8.942      266.923      282.384       79.955        0.856        0.031      127.548        6.235        0.002      334.025        3.727      877.207
01/14/2014  20:09:00     -124.744      -34.038      -18.087       12.057       16.103       12.140      145.378      259.307      147.379        0.880        0.028      129.304        4.428        0.001      334.047        3.761      877.195
01/14/2014  20:10:00     -128.224      -39.674      -17.670       22.377       15.996       14.469      500.750      255.882      209.357        0.965        0.048      134.222       11.632        0.008      334.039        3.750      877.186
01/14/2014  20:11:00     -117.140      -46.877      -15.310       20.643       16.929       12.774      426.138      286.592      163.164        0.851        0.044      126.172        8.713        0.005      333.948        3.599      877.196
01/14/2014  20:12:00     -117.412      -49.464      -13.968       15.649       17.886       11.733      244.879      319.921      137.663        0.856        0.035      127.406        4.682        0.001      333.891        3.503      877.206
01/14/2014  20:13:00      -78.743      -41.933       -6.484       29.599       20.092       16.783      876.093      403.677      281.663        0.478        0.078       89.213        8.673        0.009      333.875        3.477      877.211
01/14/2014  20:14:00      -74.476      -34.808      -10.389       26.003       19.506       17.420      676.138      380.484      303.459        0.411        0.068       82.209       11.726        0.020      333.870        3.469      877.236
01/14/2014  20:15:00      -41.157      -18.365        1.102       30.650       23.277       15.932      939.422      541.841      253.826        0.188        0.087       45.069       13.585        0.091      333.823        3.392      877.262
01/14/2014  20:16:00      -94.323      -23.367      -14.289       20.564       18.208       12.940      422.883      331.548      167.440        0.528        0.046       97.174        9.489        0.010      333.812        3.373      877.279
01/14/2014  20:17:00     -107.269      -16.589      -21.107       21.870       21.322       14.351      478.315      454.611      205.952        0.668        0.057      108.544        5.872        0.003      333.818        3.381      877.305
01/14/2014  20:18:00      -99.037      -31.115      -11.836       17.635       20.751       12.427      311.009      430.619      154.420        0.591        0.045      103.809        6.166        0.004      333.862        3.457      877.321
01/14/2014  20:19:00      -93.337      -45.511      -14.919       16.729       28.264       13.014      279.857      798.880      169.372        0.613        0.062      103.842       10.253        0.010      333.849        3.433      877.324
01/14/2014  20:20:00      -79.166      -62.611      -15.669       16.861       20.025       12.759      284.282      401.020      162.796        0.564        0.042      100.933       11.126        0.012      333.887        3.495      877.338
01/14/2014  20:21:00      -84.375      -38.551      -13.247       11.118        9.642        8.366      123.620       92.961       69.995        0.453        0.014       92.765        2.261        0.001      333.897        3.514      877.353
01/14/2014  20:22:00      -79.026      -25.351      -16.465        4.686        7.650        6.650       21.955       58.517       44.222        0.364        0.006       82.993        2.292        0.001      333.907        3.531      877.349
01/14/2014  20:23:00      -68.627      -36.939      -11.135       11.292        9.878       10.045      127.508       97.570      100.908        0.326        0.016       77.937        9.359        0.014      333.987        3.663      877.358
01/14/2014  20:24:00      -66.838      -37.569       -7.205       13.083       11.070        9.635      171.152      122.546       92.829        0.316        0.019       76.673        2.171        0.001      333.958        3.615      877.344
01/14/2014  20:25:00      -82.501      -34.257      -12.335        8.175        8.607        7.438       66.836       74.084       55.328        0.416        0.010       89.330        4.032        0.002      333.963        3.623      877.331
01/14/2014  20:26:00      -96.589      -41.257      -13.957        8.805       11.307        7.453       77.526      127.858       55.549        0.574        0.013      105.032        4.247        0.002      333.956        3.611      877.303
01/14/2014  20:27:00     -109.604      -40.794       -9.461        8.160       10.275        7.673       66.578      105.581       58.869        0.700        0.012      116.950        4.056        0.001      333.965        3.627      877.283
01/14/2014  20:28:00     -100.693      -47.694      -12.711       15.012       14.617       11.899      225.358      213.669      141.597        0.658        0.029      111.417        7.542        0.005      333.854        3.442      877.284
01/14/2014  20:29:00     -106.016      -41.078       -7.544       12.809       11.704        7.575      164.068      136.977       57.383        0.667        0.018      113.697        5.343        0.002      333.744        3.260      877.288
01/14/2014  20:30:00     -114.304      -42.703      -15.920       14.257       13.424        8.081      203.266      180.213       65.295        0.780        0.022      122.021        4.795        0.002      333.701        3.188      877.288
01/14/2014  20:31:00     -117.022      -36.958      -14.851       17.983       20.052       11.909      323.396      402.102      141.820        0.807        0.043      122.719        4.850        0.002      333.707        3.198      877.288
01/14/2014  20:32:00     -139.243      -34.320      -15.627       21.349       17.438       13.421      455.769      304.098      180.126        1.088        0.047      143.411        7.637        0.003      333.711        3.204      877.292
01/14/2014  20:33:00     -128.593      -39.870      -11.928       19.028       17.351       14.217      362.084      301.043      202.129        0.957        0.043      134.632        9.823        0.005      333.669        3.136      877.289
01/14/2014  20:34:00     -125.884      -46.924      -16.980       16.247       18.497       12.929      263.970      342.155      167.155        0.956        0.039      134.346        6.612        0.002      333.620        3.054      877.292
01/14/2014  20:35:00     -132.902      -49.381      -19.813        9.741       10.029        9.461       94.879      100.574       89.519        1.039        0.014      141.780        2.205        0.000      333.562        2.959      877.294
01/14/2014  20:36:00     -133.950      -55.129      -16.648       11.184       13.533        9.859      125.093      183.154       97.191        1.083        0.020      144.851        4.648        0.001      333.536        2.915      877.289
01/14/2014  20:37:00     -127.692      -45.880      -18.743       13.259       12.686       10.623      175.792      160.939      112.854        0.961        0.022      135.684        5.793        0.002      333.566        2.964      877.292
01/14/2014  20:38:00     -127.940      -50.678      -10.334       14.749       18.033       12.816      217.536      325.172      164.258        0.988        0.035      137.612        9.523        0.005      333.627        3.064      877.296
01/14/2014  20:39:00     -127.610      -58.441       -8.728       19.540       23.201       13.815      381.814      538.307      190.857        1.044        0.056      140.356        9.743        0.005      333.597        3.015      877.298
01/14/2014  20:40:00     -117.782      -54.153       -8.885       25.998       19.863       15.489      675.885      394.554      239.898        0.910        0.066      129.635       10.909        0.007      333.548        2.934      877.310
01/14/2014  20:41:00      -98.953      -60.834       -1.599       41.612       28.875       18.131     1731.567      833.785      328.747        0.819        0.145      116.157       20.164        0.030      333.512        2.874      877.330
01/14/2014  20:42:00     -120.051      -64.467       -6.862       27.758       20.286       13.569      770.490      411.522      184.122        0.999        0.068      136.265       11.999        0.008      333.482        2.825      877.352
01/14/2014  20:43:00     -137.527      -55.409       -9.333       18.286       18.323       14.043      334.361      335.730      197.204        1.147        0.043      148.270        9.808        0.004      333.483        2.827      877.365
01/14/2014  20:44:00     -126.831      -53.668       -4.940       17.023       17.948       12.558      289.777      322.139      157.713        0.988        0.038      137.719        8.278        0.004      333.450        2.771      877.373
01/14/2014  20:45:00     -120.366      -53.168       -5.803       23.133       19.439       14.585      535.140      377.877      212.725        0.924        0.056      131.586       13.006        0.010      333.438        2.751      877.393
01/14/2014  20:46:00     -110.118      -54.861       -5.100       21.744       23.848       13.511      472.788      568.706      182.553        0.819        0.061      123.027       10.281        0.007      333.442        2.757      877.395
01/14/2014  20:47:00     -123.423      -56.259      -10.022       18.603       15.587       14.526      346.079      242.949      210.996        0.965        0.040      135.640       11.624        0.007      333.465        2.795      877.392
01/14/2014  20:48:00     -103.921      -68.753       -4.043       26.069       23.357       17.157      679.574      545.540      294.377        0.853        0.076      124.606       16.820        0.018      333.475        2.814      877.403
01/14/2014  20:49:00     -101.458      -71.192       -6.684       26.612       23.217       17.181      708.184      539.051      295.179        0.847        0.077      123.943       12.626        0.010      333.491        2.837      877.395
01/14/2014  20:50:00     -124.373      -88.340       -9.621       21.413       23.755       17.526      458.532      564.294      307.163        1.235        0.066      152.553       14.237        0.009      333.513        2.876      877.393
01/14/2014  20:51:00     -126.820      -69.794      -14.172       18.496       22.599       12.803      342.110      510.729      163.920        1.109        0.051      144.757        7.471        0.003      333.474        2.810      877.396
01/14/2014  20:52:00     -124.734      -81.904       -9.962       31.788       23.288       18.930     1010.447      542.315      358.347        1.214        0.096      149.221       14.160        0.009      333.447        2.767      877.396
01/14/2014  20:53:00     -102.396      -58.675      -18.808       23.818       18.320       14.101      567.301      335.607      198.848        0.769        0.055      118.016        7.048        0.004      333.400        2.691      877.394
01/14/2014  20:54:00      -88.113      -52.490      -10.364       24.507       14.545       13.763      600.608      211.547      189.423        0.581        0.050      102.563        7.373        0.005      333.406        2.700      877.389
01/14/2014  20:55:00     -107.536      -48.845       -2.759       19.088       19.564       15.048      364.352      382.758      226.452        0.747        0.049      118.110        9.126        0.006      333.368        2.636      877.388
01/14/2014  20:56:00     -103.156      -52.233       -8.949       17.008       10.621        9.199      289.260      112.807       84.626        0.697        0.024      115.626        5.396        0.002      333.360        2.624      877.403
01/14/2014  20:57:00     -107.786      -57.401      -13.835       10.090       11.933       10.370      101.799      142.391      107.545        0.773        0.018      122.118        2.880        0.001      333.352        2.611      877.399
01/14/2014  20:58:00     -107.201      -61.934       -6.752       12.572       10.181        9.251      158.060      103.662       85.579        0.786        0.017      123.806        5.474        0.002      333.338        2.587      877.402
01/14/2014  20:59:00     -113.058      -57.139      -11.527        9.209       10.083        8.264       84.808      101.663       68.295        0.822        0.013      126.676        4.910        0.002      333.368        2.637      877.410
01/14/2014  21:00:00     -101.213      -53.786      -14.439        9.319       13.394        8.350       86.846      179.412       69.720        0.684        0.017      114.617        7.492        0.004      333.411        2.707      877.421
01/14/2014  21:01:00     -103.795      -54.319      -14.172       15.129       11.897       11.825      228.873      141.548      139.835        0.722        0.026      117.150        9.658        0.007      333.542        2.925      877.421
01/14/2014  21:02:00     -115.975      -49.100      -15.967        7.756       12.879        6.320       60.158      165.873       39.936        0.819        0.013      125.941        4.305        0.001      333.624        3.059      877.416
01/14/2014  21:03:00      -99.481      -45.634       -6.457       16.652       11.623        9.427      277.277      135.096       88.865        0.626        0.025      109.448        5.193        0.002      333.616        3.046      877.411
01/14/2014  21:04:00      -73.965      -50.481       -7.815       23.654       17.306        9.914      559.517      299.510       98.296        0.452        0.048       89.550        7.913        0.008      333.512        2.875      877.405
01/14/2014  21:05:00      -85.252      -50.513       -7.158       21.040       13.496       11.763      442.688      182.134      138.360        0.532        0.038       99.093        6.513        0.004      333.470        2.805      877.397
01/14/2014  21:06:00      -84.139      -50.859       -5.479       16.326       10.684        8.266      266.538      114.149       68.325        0.507        0.022       98.316        6.003        0.004      333.423        2.726      877.385
01/14/2014  21:07:00     -106.424      -57.830       -9.730       17.757       11.591       13.182      315.321      134.358      173.775        0.769        0.031      121.122        5.541        0.002      333.437        2.749      877.385
01/14/2014  21:08:00     -100.955      -52.232       -6.138       33.824       14.927       12.832     1144.052      222.826      164.668        0.724        0.077      113.667        9.375        0.007      333.359        2.621      877.395
01/14/2014  21:09:00     -103.504      -59.733       -3.701       24.122       22.247       15.108      581.876      494.923      228.244        0.780        0.065      119.504       14.660        0.015      333.333        2.578      877.397
01/14/2014  21:10:00     -104.173      -51.553       -4.414       15.712       11.541        8.786      246.862      133.199       77.190        0.699        0.023      116.231        5.730        0.002      333.367        2.635      877.414
01/14/2014  21:11:00     -130.910      -44.382       -6.499       15.294       13.200       11.801      233.898      174.244      139.272        0.985        0.027      138.229        7.386        0.003      333.395        2.681      877.423
01/14/2014  21:12:00      -93.000      -23.112        1.043       36.821       22.300       14.809     1355.802      497.274      219.293        0.563        0.104       95.829       12.731        0.018      333.418        2.718      877.426
01/14/2014  21:13:00     -146.255       -1.152      -13.030       26.163       22.614       12.769      684.523      511.404      163.042        1.146        0.068      146.260       12.454        0.007      333.379        2.655      877.430
01/14/2014  21:14:00     -166.926       14.276      -18.065       27.152       17.744       14.593      737.236      314.846      212.962        1.483        0.063      167.535       13.754        0.007      333.489        2.837      877.422
01/14/2014  21:15:00     -147.379       -5.860      -12.442       41.573       21.951       20.838     1728.300      481.847      434.205        1.228        0.132      147.496       18.233        0.015      333.532        2.908      877.414
01/14/2014  21:16:00     -125.372       14.780      -12.066       53.510       31.503       26.781     2863.343      992.418      717.226        1.033        0.229      126.240       24.055        0.036      333.540        2.921      877.423
01/14/2014  21:17:00      -60.935        4.528       -2.619       49.144       30.690       24.655     2415.138      941.855      607.856        0.385        0.198       61.103       16.805        0.076      333.496        2.848      877.427
01/14/2014  21:18:00      -22.181       -0.216        6.346       37.545       28.532       25.343     1409.648      814.052      642.281        0.170        0.143       22.182       24.012        1.172      333.431        2.741      877.437
01/14/2014  21:19:00      -26.845      -19.177        6.150       48.458       33.909       21.896     2348.183     1149.821      479.448        0.255        0.199       32.991       26.003        0.621      333.353        2.613      877.436
01/14/2014  21:20:00     -105.517       -6.600      -12.767       50.363       41.745       29.273     2536.449     1742.635      856.887        0.824        0.257      105.723       23.677        0.050      333.295        2.516      877.433
01/14/2014  21:21:00      -45.602      -15.828        3.126       30.438       26.371       15.619      926.489      695.443      243.960        0.210        0.093       48.271       11.774        0.059      333.224        2.399      877.430
01/14/2014  21:22:00      -85.253      -14.506      -11.516       32.751       32.232       18.674     1072.654     1038.927      348.720        0.504        0.123       86.478       13.106        0.023      333.210        2.375      877.432
01/14/2014  21:23:00      -75.522      -12.103      -16.307       17.998       16.652       12.445      323.924      277.295      154.890        0.344        0.038       76.485        6.239        0.007      333.185        2.332      877.443
01/14/2014  21:24:00      -63.637      -15.662      -13.779       19.175       13.131       13.305      367.672      172.420      177.016        0.260        0.036       65.536        8.141        0.015      333.224        2.398      877.443
01/14/2014  21:25:00      -68.532      -16.267      -20.708       16.532       12.931       10.875      273.307      167.222      118.260        0.297        0.028       70.436        5.326        0.006      333.251        2.443      877.451
01/14/2014  21:26:00      -53.981      -25.527       -4.641       28.107       16.776       19.496      790.000      281.437      380.103        0.252        0.073       59.713       11.059        0.034      333.264        2.464      877.450
01/14/2014  21:27:00      -98.970      -42.200      -17.482       19.197       23.850       14.784      368.518      568.839      218.552        0.652        0.058      107.592        7.476        0.005      333.157        2.288      877.451
01/14/2014  21:28:00     -112.697      -63.247      -15.218       38.253       23.081       12.081     1463.286      532.741      145.956        0.954        0.107      129.232        7.968        0.004      333.203        2.363      877.451
01/14/2014  21:29:00     -119.720      -52.054      -12.142       31.680       23.337       17.941     1003.597      544.593      321.882        0.953        0.094      130.547       16.867        0.017      333.211        2.376      877.463
01/14/2014  21:30:00     -122.276      -68.501       -8.598       33.611       21.615       22.548     1129.675      467.221      508.400        1.091        0.105      140.156       17.274        0.015      333.206        2.369      877.455
01/14/2014  21:31:00     -133.486      -42.085      -18.119       15.513       16.139       12.717      240.654      260.473      161.714        1.029        0.033      139.963        3.795        0.001      333.134        2.249      877.456
01/14/2014  21:32:00     -135.111      -49.074       -8.248       22.632       18.897       16.809      512.214      357.109      282.541        1.094        0.058      143.747       13.825        0.009      333.198        2.355      877.453
01/14/2014  21:33:00     -129.251      -27.116       -8.756       31.227       21.629       15.781      975.103      467.797      249.052        0.960        0.085      132.065       13.621        0.011      333.180        2.326      877.461
01/14/2014  21:34:00     -128.290      -33.043       -6.895       44.897       28.021       16.737     2015.749      785.200      280.144        1.034        0.154      132.477       20.668        0.024      333.131        2.245      877.479
01/14/2014  21:35:00     -112.888      -47.789       -8.987       28.509       22.138       17.504      812.765      490.075      306.383        0.836        0.080      122.587       16.318        0.018      333.050        2.112      877.483
01/14/2014  21:36:00     -114.664      -44.494      -10.133       21.042       24.394       14.370      442.764      595.073      206.508        0.824        0.062      122.994       10.543        0.007      333.067        2.139      877.487
01/14/2014  21:37:00      -87.509      -15.168       -4.696       30.043       36.468       18.897      902.568     1329.931      357.111        0.525        0.129       88.814       14.285        0.026      333.049        2.109      877.491
01/14/2014  21:38:00     -100.280      -16.426       -5.777       34.826       30.258       20.851     1212.883      915.558      434.756        0.646        0.128      101.616       20.092        0.039      332.995        2.021      877.487
01/14/2014  21:39:00     -123.497      -14.374      -21.345       30.081       20.070       16.906      904.838      402.786      285.811        0.875        0.080      124.331       13.880        0.012      332.998        2.025      877.487
01/14/2014  21:40:00     -108.462      -25.669      -15.533       31.373       28.710       20.677      984.282      824.259      427.525        0.745        0.112      111.458       21.145        0.036      332.983        1.999      877.506
01/14/2014  21:41:00      -87.744      -40.623      -15.103       28.976       18.555       20.133      839.615      344.282      405.351        0.558        0.079       96.692       11.863        0.015      332.998        2.025      877.498
01/14/2014  21:42:00     -122.909      -34.988      -18.442       33.552       21.865       19.224     1125.727      478.062      369.578        0.932        0.099      127.792       18.010        0.020      333.026        2.072      877.482
01/14/2014  21:43:00     -116.599      -32.158      -22.555       34.729       21.422       17.188     1206.075      458.898      295.425        0.855        0.098      120.952       15.383        0.016      333.046        2.105      877.465
01/14/2014  21:44:00     -115.717      -23.416      -12.713       37.275       33.520       19.352     1389.404     1123.585      374.512        0.849        0.144      118.062       20.499        0.030      333.008        2.043      877.451
01/14/2014  21:45:00     -116.505      -12.955      -17.247       31.160       27.002       19.126      970.957      729.100      365.815        0.805        0.103      117.223       15.589        0.018      332.956        1.956      877.435
01/14/2014  21:46:00     -128.598      -13.142      -14.557       40.656       21.262       17.786     1652.886      452.093      316.329        0.967        0.121      129.268       17.961        0.019      333.006        2.038      877.430
01/14/2014  21:47:00     -128.433      -19.138      -14.971       34.132       24.177       20.089     1165.026      584.542      403.569        0.962        0.108      129.851       18.234        0.020      332.970        1.979      877.428
01/14/2014  21:48:00     -135.807      -16.178      -20.598       21.493       24.154       15.962      461.950      583.422      254.784        1.021        0.065      136.767       10.049        0.005      333.009        2.044      877.437
01/14/2014  21:49:00     -136.758      -10.262      -19.409       24.175       22.859       16.246      584.417      522.534      263.949        1.028        0.069      137.142       13.989        0.010      333.020        2.063      877.432
01/14/2014  21:50:00     -136.924      -12.735      -16.853       16.452       16.663       13.276      270.666      277.644      176.241        0.996        0.036      137.515        8.205        0.004      333.014        2.052      877.428
01/14/2014  21:51:00      -99.494      -24.441      -14.569       15.102       15.403       12.507      228.080      237.260      156.422        0.567        0.031      102.452        5.905        0.003      333.029        2.077      877.445
01/14/2014  21:52:00      -80.264      -31.666      -17.075       14.292       23.969       12.614      204.271      574.521      159.124        0.434        0.047       86.285       10.483        0.015      333.116        2.221      877.455
01/14/2014  21:53:00      -90.376      -35.868      -19.139       17.756       20.732       11.569      315.276      429.809      133.849        0.535        0.044       97.234        7.743        0.006      333.096        2.189      877.465
01/14/2014  21:54:00     -103.059      -37.006      -18.328       18.562       17.116       12.780      344.546      292.972      163.320        0.656        0.040      109.501        8.981        0.007      333.075        2.152      877.483
01/14/2014  21:55:00     -118.561      -32.104      -17.876       13.002       15.308       12.182      169.051      234.326      148.407        0.798        0.028      122.830        5.564        0.002      333.022        2.066      877.495
01/14/2014  21:56:00     -118.571      -45.412      -11.713       14.668       12.333        9.626      215.160      152.108       92.665        0.836        0.023      126.969        5.376        0.002      333.017        2.057      877.488
01/14/2014  21:57:00     -135.348      -42.591      -10.191       13.320       13.601       10.546      177.415      184.974      111.210        1.036        0.024      141.891        7.320        0.003      332.999        2.027      877.481
01/14/2014  21:58:00     -124.215      -24.890       -7.075       29.010       15.872       14.600      841.601      251.928      213.156        0.870        0.065      126.684       15.579        0.015      332.935        1.920      877.466
01/14/2014  21:59:00     -121.068      -57.091      -11.966       24.263       23.306       13.262      588.670      543.162      175.881        0.968        0.065      133.854        8.990        0.005      332.885        1.840      877.453
01/14/2014  22:00:00      -99.913      -73.526       -2.728       46.728       36.171       26.734     2183.489     1308.346      714.692        0.980        0.210      124.051       26.958        0.047      332.892        1.850      877.439
01/14/2014  22:01:00      -98.686      -63.557       -0.613       53.013       33.321       27.372     2810.425     1110.317      749.202        0.922        0.233      117.381       24.333        0.043      332.859        1.797      877.430
01/14/2014  22:02:00      -93.450      -63.615        3.515       43.874       37.004       28.210     1924.911     1369.313      795.800        0.844        0.205      113.048       24.761        0.048      332.794        1.689      877.421
01/14/2014  22:03:00     -134.247      -73.431       -3.161       45.932       28.767       23.277     2109.794      827.541      541.842        1.345        0.174      153.017       23.240        0.023      332.791        1.685      877.424
01/14/2014  22:04:00     -114.139      -66.376        0.358       46.165       35.165       23.084     2131.237     1236.546      532.865        1.067        0.195      132.036       20.364        0.024      332.782        1.669      877.408
01/14/2014  22:05:00      -86.980      -56.520        0.980       42.213       28.799       21.372     1781.970      829.399      456.775        0.691        0.153      103.731       17.797        0.029      332.773        1.656      877.392
01/14/2014  22:06:00     -116.556      -88.062       -3.638       39.964       32.478       23.679     1597.088     1054.832      560.712        1.228        0.161      146.083       18.734        0.016      332.840        1.765      877.385
01/14/2014  22:07:00     -102.826      -67.401       -1.594       48.363       25.446       27.738     2339.018      647.522      769.417        0.944        0.188      122.947       21.184        0.030      332.756        1.625      877.386
01/14/2014  22:08:00     -101.318      -60.474        1.353       43.596       29.447       26.796     1900.645      867.126      718.041        0.870        0.174      117.994       26.043        0.049      332.760        1.633      877.388
01/14/2014  22:09:00      -89.391      -62.717        1.137       40.070       29.032       21.164     1605.593      842.863      447.905        0.741        0.145      109.198       18.434        0.028      332.740        1.599      877.387
01/14/2014  22:10:00     -103.622      -67.400       -1.588       34.999       32.197       22.163     1224.906     1036.634      491.202        0.902        0.138      123.614       15.318        0.015      332.819        1.731      877.395
01/14/2014  22:11:00      -64.273      -55.529        1.772       29.856       27.836       21.278      891.404      774.831      452.765        0.467        0.106       84.938       13.920        0.027      332.787        1.677      877.417
01/14/2014  22:12:00      -51.707      -53.430        2.573       41.278       37.030       24.221     1703.860     1371.233      586.653        0.460        0.183       74.353       22.555        0.092      332.801        1.702      877.436
01/14/2014  22:13:00      -76.911      -65.813        1.840       39.648       33.403       23.686     1571.948     1115.776      561.024        0.675        0.162      101.226       17.702        0.031      332.839        1.763      877.457
01/14/2014  22:14:00      -52.572      -54.315        6.017       51.284       34.444       25.929     2630.093     1186.381      672.333        0.512        0.224       75.590       25.935        0.118      332.844        1.772      877.469
01/14/2014  22:15:00      -63.119      -39.764        6.366       43.296       34.211       24.239     1874.529     1170.375      587.547        0.462        0.182       74.600       23.075        0.096      332.819        1.731      877.467
01/14/2014  22:16:00     -115.624      -60.306        1.818       31.551       25.323       21.399      995.473      641.254      457.920        0.955        0.105      130.406       18.109        0.019      332.758        1.629      877.470
01/14/2014  22:17:00     -108.807      -66.329       -5.279       29.170       25.379       17.817      850.892      644.091      317.449        0.904        0.091      127.431       18.532        0.021      332.768        1.645      877.476
01/14/2014  22:18:00     -128.427      -68.276      -15.524       14.052       16.232       11.962      197.463      263.470      143.094        1.100        0.030      145.448        8.161        0.003      332.702        1.536      877.465
01/14/2014  22:19:00     -116.053      -68.151       -9.574       31.579       14.978       16.868      997.241      224.350      284.534        0.985        0.075      134.584       17.936        0.018      332.715        1.559      877.445
01/14/2014  22:20:00      -97.493      -58.199       -5.348       32.937       21.974       17.969     1084.851      482.867      322.869        0.741        0.095      113.543       17.745        0.024      332.712        1.553      877.439
01/14/2014  22:21:00     -121.763      -53.388      -11.584       13.067       21.146       10.406      170.743      447.161      108.280        0.927        0.036      132.953        7.323        0.003      332.672        1.485      877.445
01/14/2014  22:22:00     -108.442      -43.216      -10.478       19.680       22.036       11.508      387.307      485.599      132.440        0.737        0.050      116.736       11.212        0.009      332.642        1.438      877.452
01/14/2014  22:23:00     -108.180      -39.471      -11.721       16.611       18.774       14.233      275.931      352.469      202.574        0.711        0.042      115.156        9.211        0.006      332.591        1.354      877.447
01/14/2014  22:24:00     -113.093      -45.995      -14.032       20.199       16.045       13.256      407.989      257.430      175.715        0.797        0.042      122.088        9.662        0.006      332.586        1.346      877.451
01/14/2014  22:25:00     -107.065      -28.191      -12.576       16.968       17.552       10.245      287.906      308.086      104.956        0.656        0.035      110.714        6.991        0.004      332.625        1.408      877.449
01/14/2014  22:26:00     -108.767      -36.605      -10.888       14.617       13.609       10.945      213.671      185.195      119.784        0.690        0.026      114.761        6.976        0.004      332.612        1.387      877.447
01/14/2014  22:27:00     -120.070      -40.785      -19.696       12.198       13.345       10.283      148.792      178.087      105.736        0.845        0.022      126.807        7.321        0.003      332.578        1.332      877.459
01/14/2014  22:28:00     -120.002      -34.740      -14.215       14.096       13.824        8.950      198.689      191.102       80.103        0.814        0.023      124.930        5.960        0.002      332.554        1.291      877.467
01/14/2014  22:29:00     -116.052      -35.249      -14.441       17.723       14.042       11.182      314.121      197.179      125.041        0.778        0.032      121.287        8.435        0.005      332.514        1.224      877.477
01/14/2014  22:30:00     -126.474      -34.460      -15.297        8.438       10.544        7.422       71.193      111.173       55.082        0.883        0.012      131.084        3.229        0.001      332.465        1.143      877.493
01/14/2014  22:31:00     -114.685      -44.381      -23.254       12.686       16.338       10.447      160.929      266.942      109.136        0.810        0.027      122.973        6.370        0.003      332.405        1.047      877.502
01/14/2014  22:32:00      -92.719      -56.114      -16.625       37.996       28.153       21.658     1443.731      792.599      469.048        0.736        0.135      108.377       20.299        0.035      332.365        0.980      877.493
01/14/2014  22:33:00     -103.049      -36.098      -17.433       29.680       22.464       20.361      880.895      504.639      414.572        0.701        0.090      109.189       12.004        0.012      332.325        0.913      877.487
01/14/2014  22:34:00     -121.766      -53.938      -12.481       23.510       22.232       15.350      552.739      494.272      235.615        0.959        0.064      133.177        7.642        0.003      332.326        0.916      877.468
01/14/2014  22:35:00     -117.096      -44.256      -21.437       20.566       15.656       14.742      422.953      245.122      217.340        0.851        0.044      125.180        9.499        0.006      332.269        0.823      877.464
01/14/2014  22:36:00     -121.280      -38.038      -15.577       20.731       19.711       10.895      429.780      388.516      118.711        0.867        0.047      127.106        8.531        0.005      332.317        0.902      877.465
01/14/2014  22:37:00      -93.266      -39.835      -11.368       13.084       12.410       11.152      171.181      154.010      124.375        0.543        0.022      101.417        5.629        0.003      332.320        0.905      877.471
01/14/2014  22:38:00      -87.277      -45.641      -10.624       13.112       20.112       10.873      171.923      404.477      118.222        0.525        0.035       98.491        8.106        0.007      332.353        0.961      877.458
01/14/2014  22:39:00     -121.389      -25.199      -14.681       20.628       17.184       15.051      425.523      295.275      226.520        0.827        0.047      123.977       11.686        0.009      332.312        0.894      877.446
01/14/2014  22:40:00     -116.487      -14.462      -13.625       20.533       25.099       15.547      421.589      629.948      241.723        0.763        0.065      117.381       11.151        0.009      332.297        0.868      877.443
01/14/2014  22:41:00      -88.739      -18.502      -16.811       25.684       28.884       21.085      659.659      834.277      444.563        0.522        0.097       90.648       21.448        0.056      332.403        1.043      877.450
01/14/2014  22:42:00      -97.236      -17.268      -17.559       20.094       15.456       10.053      403.760      238.875      101.069        0.540        0.037       98.758        6.660        0.005      332.325        0.913      877.435
01/14/2014  22:43:00      -89.108       -9.176      -17.091       12.367        9.653        9.650      152.952       93.184       93.130        0.433        0.017       89.579        5.498        0.004      332.364        0.978      877.432
01/14/2014  22:44:00      -96.137      -20.508      -17.231       13.609       19.891       11.875      185.211      395.641      141.027        0.534        0.036       98.300       10.939        0.012      332.353        0.961      877.415
01/14/2014  22:45:00     -102.347      -16.296      -18.510       15.064       15.920       10.803      226.937      253.441      116.700        0.584        0.030      103.636        5.835        0.003      332.327        0.918      877.415
01/14/2014  22:46:00     -101.409      -23.179      -14.655       16.771       17.793       12.237      281.256      316.605      149.737        0.589        0.037      104.024        7.802        0.006      332.237        0.768      877.415
01/14/2014  22:47:00      -95.408      -25.162      -13.355       27.600       20.395       16.874      761.743      415.975      284.744        0.569        0.073       98.671       16.368        0.028      332.239        0.774      877.408
01/14/2014  22:48:00      -93.124      -24.087      -15.012       18.593       16.676       12.026      345.689      278.092      144.627        0.512        0.038       96.189       11.654        0.015      332.268        0.822      877.396
01/14/2014  22:49:00      -94.727      -25.590      -17.234       11.617       15.256        9.661      134.950      232.752       93.338        0.519        0.023       98.123        5.618        0.003      332.253        0.795      877.396
01/14/2014  22:50:00     -112.873      -18.632      -18.025       19.460       14.378       16.126      378.695      206.719      260.058        0.713        0.042      114.401       11.741        0.011      332.267        0.818      877.398
01/14/2014  22:51:00     -119.791      -17.724      -20.577       15.454       16.908       13.946      238.815      285.875      194.486        0.790        0.036      121.095        9.740        0.006      332.242        0.778      877.392
01/14/2014  22:52:00     -105.383      -35.008      -17.640       20.451       20.805       15.616      418.238      432.834      243.862        0.687        0.055      111.046       10.530        0.009      332.193        0.698      877.385
01/14/2014  22:53:00      -90.784      -25.583      -11.543       24.748       17.327       16.746      612.482      300.239      280.430        0.511        0.060       94.320        9.297        0.010      332.177        0.672      877.393
01/14/2014  22:54:00      -96.432      -36.000      -11.940       22.862       32.306       14.822      522.678     1043.648      219.682        0.626        0.089      102.933        9.782        0.009      332.189        0.689      877.373
01/14/2014  22:55:00     -110.774      -22.807       -6.567       25.950       32.085       19.384      673.400     1029.431      375.745        0.746        0.104      113.097       11.342        0.010      332.121        0.578      877.374
01/14/2014  22:56:00     -129.088      -29.170      -13.749       26.802       23.752       18.765      718.371      564.177      352.112        0.967        0.082      132.342        5.265        0.002      332.193        0.698      877.357
01/14/2014  22:57:00      -98.948      -28.567      -12.839       35.276       33.448       19.026     1244.395     1118.753      361.976        0.675        0.136      102.990       15.678        0.023      332.204        0.715      877.349
01/14/2014  22:58:00      -97.465      -34.999      -12.207       29.887       27.778       19.643      893.219      771.621      385.852        0.646        0.103      103.558       14.140        0.019      332.236        0.768      877.339
01/14/2014  22:59:00      -69.023      -38.990       -4.514       48.513       23.983       20.629     2353.547      575.160      425.574        0.483        0.168       79.275       23.485        0.088      332.247        0.786      877.325
01/14/2014  23:00:00      -99.565      -33.233      -11.617       25.310       20.353       17.070      640.577      414.254      291.383        0.625        0.067      104.965       10.815        0.011      332.233        0.762      877.305
01/14/2014  23:01:00      -80.085      -19.875       -4.972       28.292       21.309       11.849      800.446      454.066      140.397        0.411        0.070       82.514       10.590        0.016      332.226        0.751      877.285
01/14/2014  23:02:00      -82.740      -39.707       -9.098       15.952       10.533        9.620      254.450      110.947       92.536        0.448        0.023       91.774        6.896        0.006      332.313        0.894      877.271
01/14/2014  23:03:00      -95.655      -38.299      -14.373        9.054        8.037        6.668       81.977       64.586       44.464        0.551        0.010      103.038        2.900        0.001      332.322        0.908      877.256
01/14/2014  23:04:00      -92.649      -43.420      -11.881       15.805       10.555        6.242      249.813      111.398       38.960        0.551        0.020      102.319        2.015        0.000      332.409        1.055      877.248
01/14/2014  23:05:00     -101.761      -49.052      -20.885        8.092       11.428        7.593       65.488      130.594       57.653        0.673        0.013      112.966        6.292        0.003      332.430        1.086      877.233
01/14/2014  23:06:00     -104.958      -48.528      -15.429       13.481       11.071       10.611      181.749      122.557      112.593        0.701        0.021      115.634        7.925        0.005      332.443        1.108      877.227
01/14/2014  23:07:00     -112.312      -34.162      -13.750        9.062       15.879        9.180       82.112      252.138       84.270        0.719        0.021      117.393        5.827        0.002      332.542        1.271      877.217
01/14/2014  23:08:00      -82.784      -50.085      -13.164       14.606       12.055        9.093      213.327      145.330       82.675        0.499        0.022       96.756        5.705        0.003      332.482        1.173      877.227
01/14/2014  23:09:00      -76.279      -28.998      -11.396       10.893        7.957        6.963      118.648       63.308       48.486        0.351        0.012       81.605        4.751        0.003      332.431        1.088      877.233
01/14/2014  23:10:00      -86.345      -19.278      -11.780        9.822       10.353        7.217       96.465      107.190       52.083        0.411        0.013       88.471        3.781        0.002      332.431        1.090      877.223
01/14/2014  23:11:00      -95.057      -28.576      -10.272        7.000       10.724        6.806       48.997      115.012       46.321        0.508        0.011       99.260        2.723        0.001      332.437        1.099      877.216
01/14/2014  23:12:00     -105.024      -25.105      -10.961       10.001       11.113        6.940      100.010      123.495       48.159        0.603        0.014      107.982        4.649        0.002      332.404        1.045      877.214
01/14/2014  23:13:00     -113.654      -28.469      -10.716       13.613       12.862        9.842      185.302      165.443       96.860        0.714        0.022      117.165        6.804        0.003      332.366        0.980      877.214
01/14/2014  23:14:00     -106.116      -45.228      -10.498       14.375       12.838        8.002      206.654      164.804       64.032        0.693        0.022      115.352        6.616        0.003      332.364        0.978      877.212
01/14/2014  23:15:00     -111.875      -39.273      -10.849        9.417       11.582        8.279       88.672      134.143       68.538        0.723        0.015      118.568        6.687        0.003      332.436        1.096      877.198
01/14/2014  23:16:00     -106.870      -33.778       -8.907        9.702       13.388        8.912       94.137      179.232       79.415        0.650        0.018      112.082        4.464        0.002      332.340        0.940      877.178
01/14/2014  23:17:00     -112.741      -34.316      -11.471       14.741       16.861       12.192      217.292      284.285      148.636        0.733        0.033      117.848        8.075        0.005      332.419        1.069      877.157
01/14/2014  23:18:00      -98.673      -33.267      -11.523       13.784       12.121        9.783      190.012      146.925       95.700        0.570        0.022      104.130        8.310        0.006      332.360        0.972      877.150
01/14/2014  23:19:00      -88.198      -37.302      -12.314       16.748       20.241       12.504      280.496      409.718      156.344        0.508        0.042       95.762        8.711        0.008      332.326        0.916      877.150
01/14/2014  23:20:00      -87.507      -24.816      -11.615       14.402       13.306        9.031      207.424      177.053       81.556        0.444        0.023       90.958        6.484        0.005      332.352        0.959      877.144
01/14/2014  23:21:00      -86.730      -17.606      -13.383       11.094       12.312        9.126      123.081      151.589       83.288        0.418        0.018       88.500        6.221        0.005      332.344        0.943      877.150
01/14/2014  23:22:00      -86.379      -33.653      -17.888       13.592       16.962       11.125      184.750      287.708      123.760        0.475        0.030       92.703        5.021        0.003      332.373        0.993      877.156
01/14/2014  23:23:00      -98.308      -38.425      -15.526       13.231       14.286       12.300      175.061      204.089      151.297        0.596        0.027      105.550        8.942        0.007      332.326        0.914      877.156
01/14/2014  23:24:00      -95.391      -46.442      -19.706       11.538       16.459       10.253      133.130      270.912      105.130        0.608        0.025      106.095        8.218        0.006      332.320        0.906      877.158
01/14/2014  23:25:00     -112.602      -50.961      -15.375       12.202       13.383        8.964      148.890      179.113       80.351        0.796        0.020      123.597        5.821        0.002      332.364        0.976      877.158
01/14/2014  23:26:00      -95.090      -48.620      -18.817       10.114        7.846        8.228      102.287       61.553       67.705        0.600        0.012      106.799        4.097        0.001      332.380        1.005      877.168
01/14/2014  23:27:00     -104.325      -46.141      -19.028       13.057       15.510       11.089      170.483      240.553      122.975        0.695        0.027      114.073        9.436        0.007      332.490        1.185      877.175
01/14/2014  23:28:00     -108.504      -50.525      -16.189       10.922       10.286       11.318      119.286      105.806      128.092        0.747        0.018      119.691        5.248        0.002      332.397        1.033      877.178
01/14/2014  23:29:00     -124.494      -51.127      -16.947        7.552        8.314        5.207       57.028       69.121       27.110        0.928        0.008      134.584        2.561        0.000      332.369        0.988      877.177
01/14/2014  23:30:00     -126.173      -62.943      -11.273        7.560       13.522        8.299       57.155      182.846       68.867        1.016        0.015      141.001        3.601        0.001      332.300        0.873      877.191
01/14/2014  23:31:00     -106.326      -60.966      -15.610       29.134       15.794       12.626      848.767      249.445      159.424        0.826        0.063      122.565       12.460        0.010      332.233        0.764      877.202
01/14/2014  23:32:00      -90.276      -53.864       -8.890       33.244       20.410       18.192     1105.148      416.568      330.961        0.649        0.093      105.124       11.783        0.013      332.191        0.694      877.212
01/14/2014  23:33:00      -93.568      -61.472       -7.776       25.785       14.875       16.139      664.882      221.277      260.454        0.687        0.057      111.954       13.239        0.014      332.108        0.557      877.215
01/14/2014  23:34:00      -89.724      -56.691       -3.756       24.276       18.138       11.802      589.337      328.988      139.286        0.617        0.053      106.133       10.921        0.011      332.100        0.543      877.211
01/14/2014  23:35:00      -95.010      -51.968       -4.982       19.057       15.861       14.613      363.180      251.585      213.545        0.629        0.041      108.294       11.482        0.011      332.085        0.518      877.214
01/14/2014  23:36:00     -106.569      -61.919       -5.896       18.130       11.836       11.841      328.708      140.099      140.210        0.792        0.030      123.251        6.985        0.003      332.152        0.630      877.215
01/14/2014  23:37:00     -120.099      -60.037       -4.084       31.084       21.034       19.393      966.222      442.418      376.076        0.991        0.089      134.269       19.086        0.020      332.094        0.534      877.223
01/14/2014  23:38:00     -128.777      -66.946       -1.449       22.695       19.491       14.739      515.068      379.888      217.241        1.109        0.056      145.139       14.274        0.010      332.080        0.510      877.219
01/14/2014  23:39:00     -143.524      -71.392       -4.377       24.656       16.106       15.821      607.930      259.418      250.300        1.342        0.056      160.299       14.956        0.009      332.129        0.592      877.213
01/14/2014  23:40:00     -143.726      -57.776       -9.826       19.259       17.586       13.611      370.891      309.257      185.257        1.248        0.043      154.904        9.988        0.004      332.186        0.686      877.205
01/14/2014  23:41:00     -147.962      -36.717      -18.631       13.376       11.643       10.609      178.928      135.564      112.545        1.201        0.021      152.450        5.951        0.002      332.154        0.634      877.194
01/14/2014  23:42:00     -167.981      -42.636      -21.041       24.812       16.478       12.794      615.638      271.512      163.678        1.576        0.053      173.307       11.768        0.005      332.093        0.531      877.174
01/14/2014  23:43:00     -149.599      -46.748      -27.517       26.702       13.981        9.456      713.023      195.463       89.420        1.316        0.050      156.733        6.272        0.002      332.019        0.410      877.149
01/14/2014  23:44:00     -116.203      -59.962      -15.667       23.719       24.888       18.617      562.574      619.436      346.605        0.944        0.076      130.761        5.806        0.002      331.976        0.337      877.133
01/14/2014  23:45:00     -114.463      -64.899      -16.201       23.867       20.434       16.431      569.637      417.545      269.962        0.942        0.063      131.581        8.936        0.005      331.988        0.358      877.127
01/14/2014  23:46:00     -150.067      -53.733      -16.853       23.537       23.180       17.427      553.994      537.294      303.707        1.354        0.070      159.397       16.984        0.011      332.019        0.408      877.125
01/14/2014  23:47:00     -154.002      -45.260      -18.105       15.113       17.897       11.737      228.402      320.309      137.756        1.339        0.034      160.515        8.752        0.003      331.991        0.363      877.130
01/14/2014  23:48:00     -123.409      -50.243      -14.812       12.844       18.629       11.859      164.965      347.033      140.627        0.931        0.033      133.245        6.196        0.002      332.016        0.404      877.129
01/14/2014  23:49:00     -113.672      -59.620      -10.792       21.694       18.932       12.794      470.626      358.431      163.687        0.879        0.050      128.358        9.037        0.005      332.019        0.409      877.135
01/14/2014  23:50:00     -118.711      -40.486        0.720       17.967       18.114        9.649      322.818      328.117       93.097        0.824        0.037      125.425        5.158        0.002      332.082        0.513      877.142
01/14/2014  23:51:00      -95.608      -60.954      -11.280       21.194       16.235       16.584      449.171      263.575      275.013        0.699        0.049      113.386       10.853        0.009      332.039        0.443      877.163
01/14/2014  23:52:00      -86.936      -59.574      -12.117       23.798       18.598       14.266      566.334      345.899      203.526        0.618        0.056      105.389       10.277        0.010      332.057        0.472      877.194
01/14/2014  23:53:00      -94.939      -67.452       -4.357       31.409       21.867       17.087      986.515      478.159      291.963        0.767        0.088      116.461       10.908        0.009      332.113        0.564      877.209
01/14/2014  23:54:00     -101.480      -67.044       -2.083       38.958       20.698       21.742     1517.714      428.410      472.728        0.861        0.121      121.627       14.063        0.013      332.026        0.421      877.223
01/14/2014  23:55:00     -123.354      -68.246       -5.999       31.928       22.814       20.966     1019.390      520.485      439.567        1.094        0.099      140.974       17.647        0.016      331.938        0.276      877.229
01/14/2014  23:56:00     -122.095      -68.958       -8.409       39.479       28.061       22.744     1558.607      787.404      517.269        1.130        0.143      140.223       21.356        0.023      331.973        0.333      877.241
01/14/2014  23:57:00     -134.092      -59.977      -14.526       14.940       24.193       14.281      223.191      585.314      203.946        1.140        0.051      146.894       12.831        0.008      331.919        0.245      877.247
01/14/2014  23:58:00     -115.122      -63.623      -14.156       22.538       21.125       16.817      507.951      446.252      282.805        0.937        0.062      131.533        7.421        0.003      331.904        0.219      877.255
01/14/2014  23:59:00     -111.264      -66.257       -4.063       31.799       24.041       20.741     1011.147      577.957      430.174        0.940        0.101      129.498       16.484        0.016      331.877        0.176      877.261
